Wetterdaten: aktuell Dienstag, 09.08.2022 21:39
Datum Zeit Temp. I. Temp. 2m Temp. 5cm Temp. Wz LF I. Luftf.2m LF Wz Luftdruck Regen Wind Richtung Richtung Taupunkt Windchill Windben
09.08.2022 21:39 26,7 C 14,3 C 11,1 C 26,0 C 46 % 73 % 53 % 1030,6 hPa 0,0 l/m 0,0 km/h (0 Bft) NO 45 9,5 C 14,3 C 0,0 km/h (0 Bft)
09.08.2022 21:38 26,7 C 14,4 C 11,3 C 26,0 C 46 % 73 % 53 % 1030,6 hPa 0,0 l/m 0,0 km/h (0 Bft) NO 45 9,6 C 14,4 C 0,0 km/h (0 Bft)
09.08.2022 21:37 26,7 C 14,4 C 11,3 C 26,0 C 46 % 73 % 53 % 1030,6 hPa 0,0 l/m 0,0 km/h (0 Bft) NO 45 9,6 C 14,4 C 0,0 km/h (0 Bft)
09.08.2022 21:36 26,6 C 14,4 C 11,3 C 26,0 C 46 % 73 % 53 % 1031,2 hPa 0,0 l/m 0,0 km/h (0 Bft) NO 45 9,6 C 14,4 C 0,0 km/h (0 Bft)
09.08.2022 21:35 26,6 C 14,4 C 11,3 C 26,0 C 46 % 73 % 53 % 1031,2 hPa 0,0 l/m 0,0 km/h (0 Bft) NO 45 9,6 C 14,4 C 0,0 km/h (0 Bft)
09.08.2022 21:34 26,6 C 14,5 C 11,3 C 26,0 C 46 % 72 % 53 % 1031,2 hPa 0,0 l/m 0,0 km/h (0 Bft) O 90 9,5 C 14,5 C 0,0 km/h (0 Bft)
09.08.2022 21:33 26,6 C 14,5 C 11,3 C 26,0 C 46 % 72 % 53 % 1031,2 hPa 0,0 l/m 0,0 km/h (0 Bft) O 90 9,5 C 14,5 C 0,0 km/h (0 Bft)
09.08.2022 21:32 26,6 C 14,6 C 11,4 C 26,1 C 46 % 72 % 53 % 1031,2 hPa 0,0 l/m 0,0 km/h (0 Bft) O 90 9,6 C 14,6 C 0,0 km/h (0 Bft)
09.08.2022 21:31 26,6 C 14,6 C 11,4 C 26,1 C 46 % 72 % 53 % 1031,2 hPa 0,0 l/m 0,0 km/h (0 Bft) O 90 9,6 C 14,6 C 0,0 km/h (0 Bft)
09.08.2022 21:30 26,5 C 14,6 C 11,3 C 26,1 C 46 % 72 % 53 % 1031,2 hPa 0,0 l/m 0,0 km/h (0 Bft) O-NO 67 9,6 C 14,6 C 0,0 km/h (0 Bft)
09.08.2022 21:29 26,5 C 14,6 C 11,3 C 26,1 C 46 % 72 % 53 % 1031,2 hPa 0,0 l/m 0,0 km/h (0 Bft) O-NO 67 9,6 C 14,6 C 0,0 km/h (0 Bft)
09.08.2022 21:28 26,5 C 14,6 C 11,3 C 26,0 C 46 % 72 % 53 % 1031,2 hPa 0,0 l/m 0,0 km/h (0 Bft) NO 45 9,6 C 14,6 C 0,0 km/h (0 Bft)
09.08.2022 21:27 26,5 C 14,6 C 11,3 C 26,0 C 46 % 72 % 53 % 1031,2 hPa 0,0 l/m 0,0 km/h (0 Bft) NO 45 9,6 C 14,6 C 0,0 km/h (0 Bft)
09.08.2022 21:26 26,4 C 14,7 C 11,4 C 26,0 C 46 % 72 % 53 % 1031,2 hPa 0,0 l/m 0,0 km/h (0 Bft) O-NO 67 9,7 C 14,7 C 0,0 km/h (0 Bft)
09.08.2022 21:25 26,4 C 14,7 C 11,4 C 26,0 C 46 % 72 % 53 % 1031,2 hPa 0,0 l/m 0,0 km/h (0 Bft) O-NO 67 9,7 C 14,7 C 0,0 km/h (0 Bft)
09.08.2022 21:24 26,4 C 14,7 C 11,5 C 26,0 C 46 % 71 % 53 % 1031,2 hPa 0,0 l/m 0,0 km/h (0 Bft) O 90 9,5 C 14,7 C 0,0 km/h (0 Bft)
09.08.2022 21:23 26,4 C 14,7 C 11,5 C 26,0 C 46 % 71 % 53 % 1031,2 hPa 0,0 l/m 0,0 km/h (0 Bft) O 90 9,5 C 14,7 C 0,0 km/h (0 Bft)
09.08.2022 21:22 26,3 C 14,8 C 11,4 C 26,0 C 46 % 71 % 53 % 1031,2 hPa 0,0 l/m 0,0 km/h (0 Bft) NO 45 9,6 C 14,8 C 0,0 km/h (0 Bft)
09.08.2022 21:21 26,3 C 14,8 C 11,4 C 26,0 C 46 % 71 % 53 % 1031,2 hPa 0,0 l/m 0,0 km/h (0 Bft) NO 45 9,6 C 14,8 C 0,0 km/h (0 Bft)
09.08.2022 21:20 26,2 C 14,9 C 11,3 C 26,0 C 46 % 71 % 53 % 1031,2 hPa 0,0 l/m 0,0 km/h (0 Bft) SO 135 9,7 C 14,9 C 0,0 km/h (0 Bft)
09.08.2022 21:19 26,2 C 14,9 C 11,3 C 26,0 C 46 % 71 % 53 % 1031,2 hPa 0,0 l/m 0,0 km/h (0 Bft) SO 135 9,7 C 14,9 C 0,0 km/h (0 Bft)
09.08.2022 21:18 26,2 C 15,0 C 11,4 C 26,1 C 46 % 70 % 53 % 1031,2 hPa 0,0 l/m 0,0 km/h (0 Bft) SO 135 9,6 C 15,0 C 0,0 km/h (0 Bft)
09.08.2022 21:17 26,2 C 15,0 C 11,4 C 26,1 C 46 % 70 % 53 % 1031,2 hPa 0,0 l/m 0,0 km/h (0 Bft) SO 135 9,6 C 15,0 C 0,0 km/h (0 Bft)
09.08.2022 21:16 26,1 C 15,1 C 11,5 C 26,1 C 45 % 70 % 53 % 1030,6 hPa 0,0 l/m 0,0 km/h (0 Bft) NO 45 9,7 C 15,1 C 0,0 km/h (0 Bft)
09.08.2022 21:15 26,1 C 15,1 C 11,5 C 26,1 C 45 % 70 % 53 % 1030,6 hPa 0,0 l/m 0,0 km/h (0 Bft) NO 45 9,7 C 15,1 C 0,0 km/h (0 Bft)
09.08.2022 21:14 26,1 C 15,1 C 11,6 C 26,1 C 45 % 70 % 53 % 1030,6 hPa 0,0 l/m 0,0 km/h (0 Bft) NO 45 9,7 C 15,1 C 0,0 km/h (0 Bft)
09.08.2022 21:13 26,1 C 15,1 C 11,6 C 26,1 C 45 % 70 % 53 % 1030,6 hPa 0,0 l/m 0,0 km/h (0 Bft) NO 45 9,7 C 15,1 C 0,0 km/h (0 Bft)
09.08.2022 21:12 26,0 C 15,2 C 11,8 C 26,2 C 44 % 70 % 53 % 1030,6 hPa 0,0 l/m 0,0 km/h (0 Bft) SO 135 9,8 C 15,2 C 0,0 km/h (0 Bft)
09.08.2022 21:11 26,0 C 15,2 C 11,8 C 26,2 C 44 % 70 % 53 % 1030,6 hPa 0,0 l/m 0,0 km/h (0 Bft) SO 135 9,8 C 15,2 C 0,0 km/h (0 Bft)
09.08.2022 21:10 26,1 C 15,4 C 11,9 C 26,3 C 44 % 70 % 53 % 1030,6 hPa 0,0 l/m 0,0 km/h (0 Bft) O-NO 67 10,0 C 15,4 C 0,0 km/h (0 Bft)
09.08.2022 21:09 26,1 C 15,4 C 11,9 C 26,3 C 44 % 70 % 53 % 1030,6 hPa 0,0 l/m 0,0 km/h (0 Bft) O-NO 67 10,0 C 15,4 C 0,0 km/h (0 Bft)
09.08.2022 21:08 26,2 C 15,5 C 11,9 C 26,3 C 44 % 70 % 52 % 1030,6 hPa 0,0 l/m 0,2 km/h (0 Bft) O-NO 67 10,1 C 15,5 C 0,0 km/h (0 Bft)
09.08.2022 21:07 26,2 C 15,5 C 11,9 C 26,3 C 44 % 70 % 52 % 1030,6 hPa 0,0 l/m 0,2 km/h (0 Bft) O-NO 67 10,1 C 15,5 C 0,0 km/h (0 Bft)
09.08.2022 21:06 26,4 C 15,6 C 11,8 C 26,2 C 43 % 69 % 53 % 1030,6 hPa 0,0 l/m 0,2 km/h (0 Bft) O 90 9,9 C 15,6 C 0,0 km/h (0 Bft)
09.08.2022 21:05 26,4 C 15,6 C 11,8 C 26,2 C 43 % 69 % 53 % 1030,6 hPa 0,0 l/m 0,2 km/h (0 Bft) O 90 9,9 C 15,6 C 0,0 km/h (0 Bft)
09.08.2022 21:04 26,6 C 15,7 C 12,0 C 26,3 C 43 % 69 % 53 % 1030,6 hPa 0,0 l/m 0,2 km/h (0 Bft) SO 135 10,0 C 15,7 C 0,0 km/h (0 Bft)
09.08.2022 21:03 26,6 C 15,7 C 12,0 C 26,3 C 43 % 69 % 53 % 1030,6 hPa 0,0 l/m 0,2 km/h (0 Bft) SO 135 10,0 C 15,7 C 0,0 km/h (0 Bft)
09.08.2022 21:02 26,8 C 15,8 C 12,0 C 26,3 C 43 % 68 % 53 % 1030,6 hPa 0,0 l/m 0,2 km/h (0 Bft) N-NO 22 9,9 C 15,8 C 0,0 km/h (0 Bft)
09.08.2022 21:00 26,9 C 16,0 C 12,1 C 26,4 C 43 % 67 % 53 % 1030,6 hPa 0,0 l/m 0,3 km/h (0 Bft) N-NO 22 9,9 C 16,0 C 0,0 km/h (0 Bft)
09.08.2022 20:59 26,9 C 16,0 C 12,1 C 26,4 C 43 % 67 % 53 % 1030,6 hPa 0,0 l/m 0,3 km/h (0 Bft) N-NO 22 9,9 C 16,0 C 0,0 km/h (0 Bft)
09.08.2022 20:58 27,2 C 16,2 C 12,1 C 26,5 C 42 % 66 % 54 % 1030,6 hPa 0,0 l/m 0,5 km/h (0 Bft) S 180 9,8 C 16,2 C 0,0 km/h (0 Bft)
09.08.2022 20:57 27,2 C 16,2 C 12,1 C 26,5 C 42 % 66 % 54 % 1030,6 hPa 0,0 l/m 0,5 km/h (0 Bft) S 180 9,8 C 16,2 C 0,0 km/h (0 Bft)
09.08.2022 20:56 27,4 C 16,3 C 12,3 C 26,5 C 42 % 66 % 54 % 1029,9 hPa 0,0 l/m 0,5 km/h (0 Bft) S 180 9,9 C 16,3 C 0,0 km/h (0 Bft)
09.08.2022 20:55 27,4 C 16,3 C 12,3 C 26,5 C 42 % 66 % 54 % 1029,9 hPa 0,0 l/m 0,5 km/h (0 Bft) S 180 9,9 C 16,3 C 0,0 km/h (0 Bft)
09.08.2022 20:54 27,6 C 16,4 C 12,3 C 26,4 C 42 % 66 % 54 % 1029,9 hPa 0,0 l/m 0,5 km/h (0 Bft) S 180 10,0 C 16,4 C 0,0 km/h (0 Bft)
09.08.2022 20:53 27,6 C 16,4 C 12,3 C 26,4 C 42 % 66 % 54 % 1029,9 hPa 0,0 l/m 0,5 km/h (0 Bft) S 180 10,0 C 16,4 C 0,0 km/h (0 Bft)
09.08.2022 20:52 27,8 C 16,5 C 12,4 C 26,5 C 43 % 66 % 54 % 1029,9 hPa 0,0 l/m 0,5 km/h (0 Bft) O-SO 112 10,1 C 16,5 C 3,6 km/h (1 Bft)
09.08.2022 20:51 27,8 C 16,5 C 12,4 C 26,5 C 43 % 66 % 54 % 1029,9 hPa 0,0 l/m 0,5 km/h (0 Bft) O-SO 112 10,1 C 16,5 C 3,6 km/h (1 Bft)
09.08.2022 20:50 27,9 C 16,7 C 12,5 C 26,5 C 43 % 65 % 54 % 1029,9 hPa 0,0 l/m 0,3 km/h (0 Bft) O 90 10,1 C 16,7 C 0,0 km/h (0 Bft)
09.08.2022 20:49 27,9 C 16,7 C 12,5 C 26,5 C 43 % 65 % 54 % 1029,9 hPa 0,0 l/m 0,3 km/h (0 Bft) O 90 10,1 C 16,7 C 0,0 km/h (0 Bft)
09.08.2022 20:48 28,1 C 16,9 C 12,8 C 26,5 C 43 % 64 % 54 % 1029,9 hPa 0,0 l/m 0,5 km/h (0 Bft) S 180 10,0 C 16,9 C 4,8 km/h (1 Bft)
09.08.2022 20:47 28,1 C 16,9 C 12,8 C 26,5 C 43 % 64 % 54 % 1029,9 hPa 0,0 l/m 0,5 km/h (0 Bft) S 180 10,0 C 16,9 C 4,8 km/h (1 Bft)
09.08.2022 20:46 28,2 C 17,0 C 12,9 C 26,5 C 44 % 64 % 54 % 1029,9 hPa 0,0 l/m 0,3 km/h (0 Bft) SO 135 10,1 C 17,0 C 0,0 km/h (0 Bft)
09.08.2022 20:45 28,2 C 17,0 C 12,9 C 26,5 C 44 % 64 % 54 % 1029,9 hPa 0,0 l/m 0,3 km/h (0 Bft) SO 135 10,1 C 17,0 C 0,0 km/h (0 Bft)
09.08.2022 20:44 28,1 C 17,2 C 13,4 C 26,6 C 45 % 64 % 54 % 1029,9 hPa 0,0 l/m 0,3 km/h (0 Bft) S-SW 202 10,3 C 17,2 C 2,7 km/h (1 Bft)
09.08.2022 20:43 28,1 C 17,2 C 13,4 C 26,6 C 45 % 64 % 54 % 1029,9 hPa 0,0 l/m 0,3 km/h (0 Bft) S-SW 202 10,3 C 17,2 C 2,7 km/h (1 Bft)
09.08.2022 20:42 28,1 C 17,2 C 13,2 C 26,5 C 45 % 64 % 54 % 1029,9 hPa 0,0 l/m 0,6 km/h (0 Bft) NW 315 10,3 C 17,2 C 0,0 km/h (0 Bft)
09.08.2022 20:41 28,1 C 17,2 C 13,2 C 26,5 C 45 % 64 % 54 % 1029,9 hPa 0,0 l/m 0,6 km/h (0 Bft) NW 315 10,3 C 17,2 C 0,0 km/h (0 Bft)
09.08.2022 20:40 28,1 C 17,3 C 13,1 C 26,7 C 45 % 63 % 54 % 1029,9 hPa 0,0 l/m 1,1 km/h (1 Bft) O-NO 67 10,2 C 17,3 C 0,0 km/h (0 Bft)
09.08.2022 20:39 28,1 C 17,3 C 13,1 C 26,7 C 45 % 63 % 54 % 1029,9 hPa 0,0 l/m 1,1 km/h (1 Bft) O-NO 67 10,2 C 17,3 C 0,0 km/h (0 Bft)
09.08.2022 20:38 28,1 C 17,5 C 13,6 C 26,6 C 45 % 63 % 54 % 1029,9 hPa 0,0 l/m 1,4 km/h (1 Bft) N-NW 337 10,4 C 17,5 C 0,0 km/h (0 Bft)
09.08.2022 20:37 28,1 C 17,5 C 13,6 C 26,6 C 45 % 63 % 54 % 1029,9 hPa 0,0 l/m 1,4 km/h (1 Bft) N-NW 337 10,4 C 17,5 C 0,0 km/h (0 Bft)
09.08.2022 20:36 28,1 C 17,6 C 13,9 C 26,7 C 45 % 63 % 54 % 1029,6 hPa 0,0 l/m 1,9 km/h (1 Bft) N-NW 337 10,5 C 17,6 C 0,0 km/h (0 Bft)
09.08.2022 20:35 28,1 C 17,6 C 13,9 C 26,7 C 45 % 63 % 54 % 1029,6 hPa 0,0 l/m 1,9 km/h (1 Bft) N-NW 337 10,5 C 17,6 C 0,0 km/h (0 Bft)
09.08.2022 20:34 28,0 C 17,7 C 13,9 C 26,7 C 44 % 63 % 54 % 1029,6 hPa 0,0 l/m 2,4 km/h (1 Bft) N-NO 22 10,6 C 17,7 C 0,0 km/h (0 Bft)
09.08.2022 20:33 28,0 C 17,7 C 13,9 C 26,7 C 44 % 63 % 54 % 1029,6 hPa 0,0 l/m 2,4 km/h (1 Bft) N-NO 22 10,6 C 17,7 C 0,0 km/h (0 Bft)
09.08.2022 20:32 28,0 C 17,8 C 14,2 C 26,7 C 44 % 63 % 54 % 1029,6 hPa 0,0 l/m 2,7 km/h (1 Bft) N-NO 22 10,7 C 17,8 C 5,6 km/h (1 Bft)
09.08.2022 20:31 28,0 C 17,8 C 14,2 C 26,7 C 44 % 63 % 54 % 1029,6 hPa 0,0 l/m 2,7 km/h (1 Bft) N-NO 22 10,7 C 17,8 C 5,6 km/h (1 Bft)
09.08.2022 20:30 28,0 C 17,8 C 14,0 C 26,6 C 44 % 63 % 54 % 1029,6 hPa 0,0 l/m 3,1 km/h (1 Bft) W-SW 247 10,7 C 17,8 C 6,7 km/h (2 Bft)
09.08.2022 20:29 28,0 C 17,8 C 14,0 C 26,6 C 44 % 63 % 54 % 1029,6 hPa 0,0 l/m 3,1 km/h (1 Bft) W-SW 247 10,7 C 17,8 C 6,7 km/h (2 Bft)
09.08.2022 20:28 28,0 C 17,9 C 14,2 C 26,7 C 43 % 63 % 54 % 1029,6 hPa 0,0 l/m 2,9 km/h (1 Bft) N 360 10,8 C 17,9 C 4,8 km/h (1 Bft)
09.08.2022 20:27 28,0 C 17,9 C 14,2 C 26,7 C 43 % 63 % 54 % 1029,6 hPa 0,0 l/m 2,9 km/h (1 Bft) N 360 10,8 C 17,9 C 4,8 km/h (1 Bft)
09.08.2022 20:26 28,0 C 18,0 C 14,5 C 26,7 C 43 % 62 % 54 % 1029,6 hPa 0,0 l/m 3,1 km/h (1 Bft) N 360 10,6 C 18,0 C 6,7 km/h (2 Bft)
09.08.2022 20:25 28,0 C 18,0 C 14,5 C 26,7 C 43 % 62 % 54 % 1029,6 hPa 0,0 l/m 3,1 km/h (1 Bft) N 360 10,6 C 18,0 C 6,7 km/h (2 Bft)
09.08.2022 20:24 28,0 C 18,0 C 14,3 C 26,7 C 42 % 62 % 55 % 1029,6 hPa 0,0 l/m 2,9 km/h (1 Bft) N 360 10,6 C 18,0 C 4,0 km/h (1 Bft)
09.08.2022 20:23 28,0 C 18,0 C 14,3 C 26,7 C 42 % 62 % 55 % 1029,6 hPa 0,0 l/m 2,9 km/h (1 Bft) N 360 10,6 C 18,0 C 4,0 km/h (1 Bft)
09.08.2022 20:22 28,0 C 18,0 C 14,1 C 26,8 C 41 % 62 % 55 % 1029,6 hPa 0,0 l/m 2,7 km/h (1 Bft) N-NW 337 10,6 C 18,0 C 7,5 km/h (2 Bft)
09.08.2022 20:21 28,0 C 18,0 C 14,1 C 26,8 C 41 % 62 % 55 % 1029,6 hPa 0,0 l/m 2,7 km/h (1 Bft) N-NW 337 10,6 C 18,0 C 7,5 km/h (2 Bft)
09.08.2022 20:20 28,2 C 18,1 C 14,3 C 26,8 C 41 % 62 % 55 % 1029,6 hPa 0,0 l/m 2,7 km/h (1 Bft) N-NO 22 10,7 C 18,1 C 6,3 km/h (2 Bft)
09.08.2022 20:19 28,2 C 18,1 C 14,3 C 26,8 C 41 % 62 % 55 % 1029,6 hPa 0,0 l/m 2,7 km/h (1 Bft) N-NO 22 10,7 C 18,1 C 6,3 km/h (2 Bft)
09.08.2022 20:18 28,2 C 18,2 C 14,3 C 26,8 C 41 % 62 % 55 % 1029,6 hPa 0,0 l/m 3,1 km/h (1 Bft) NO 45 10,8 C 18,2 C 3,8 km/h (1 Bft)
09.08.2022 20:17 28,2 C 18,2 C 14,3 C 26,8 C 41 % 62 % 55 % 1029,6 hPa 0,0 l/m 3,1 km/h (1 Bft) NO 45 10,8 C 18,2 C 3,8 km/h (1 Bft)
09.08.2022 20:16 28,4 C 18,3 C 14,6 C 26,9 C 41 % 62 % 55 % 1029,3 hPa 0,0 l/m 3,5 km/h (1 Bft) N-NO 22 10,9 C 18,3 C 4,0 km/h (1 Bft)
09.08.2022 20:15 28,4 C 18,3 C 14,6 C 26,9 C 41 % 62 % 55 % 1029,3 hPa 0,0 l/m 3,5 km/h (1 Bft) N-NO 22 10,9 C 18,3 C 4,0 km/h (1 Bft)
09.08.2022 20:14 28,6 C 18,4 C 14,6 C 26,9 C 41 % 62 % 55 % 1029,3 hPa 0,0 l/m 4,2 km/h (1 Bft) N-NW 337 11,0 C 18,4 C 5,6 km/h (1 Bft)
09.08.2022 20:13 28,6 C 18,4 C 14,6 C 26,9 C 41 % 62 % 55 % 1029,3 hPa 0,0 l/m 4,2 km/h (1 Bft) N-NW 337 11,0 C 18,4 C 5,6 km/h (1 Bft)
09.08.2022 20:12 28,8 C 18,5 C 14,7 C 26,8 C 40 % 61 % 55 % 1029,3 hPa 0,0 l/m 4,3 km/h (1 Bft) N 360 10,8 C 18,5 C 6,5 km/h (2 Bft)
09.08.2022 20:11 28,8 C 18,5 C 14,7 C 26,8 C 40 % 61 % 55 % 1029,3 hPa 0,0 l/m 4,3 km/h (1 Bft) N 360 10,8 C 18,5 C 6,5 km/h (2 Bft)
09.08.2022 20:10 28,9 C 18,5 C 14,9 C 26,8 C 40 % 61 % 55 % 1029,3 hPa 0,0 l/m 4,5 km/h (1 Bft) N-NW 337 10,8 C 18,5 C 4,2 km/h (1 Bft)
09.08.2022 20:09 28,9 C 18,5 C 14,9 C 26,8 C 40 % 61 % 55 % 1029,3 hPa 0,0 l/m 4,5 km/h (1 Bft) N-NW 337 10,8 C 18,5 C 4,2 km/h (1 Bft)
09.08.2022 20:08 29,2 C 18,6 C 15,1 C 26,9 C 41 % 61 % 56 % 1029,3 hPa 0,0 l/m 4,5 km/h (1 Bft) N-NW 337 10,9 C 18,6 C 6,9 km/h (2 Bft)
09.08.2022 20:07 29,2 C 18,6 C 15,1 C 26,9 C 41 % 61 % 56 % 1029,3 hPa 0,0 l/m 4,5 km/h (1 Bft) N-NW 337 10,9 C 18,6 C 6,9 km/h (2 Bft)
09.08.2022 20:06 29,3 C 18,6 C 15,0 C 26,9 C 41 % 61 % 56 % 1029,3 hPa 0,0 l/m 4,3 km/h (1 Bft) N-NO 22 10,9 C 18,6 C 12,8 km/h (3 Bft)
09.08.2022 20:05 29,3 C 18,6 C 15,0 C 26,9 C 41 % 61 % 56 % 1029,3 hPa 0,0 l/m 4,3 km/h (1 Bft) N-NO 22 10,9 C 18,6 C 12,8 km/h (3 Bft)
09.08.2022 20:04 29,5 C 18,6 C 15,2 C 27,0 C 41 % 61 % 56 % 1029,3 hPa 0,0 l/m 4,2 km/h (1 Bft) N 360 10,9 C 18,6 C 5,2 km/h (1 Bft)
09.08.2022 20:03 29,5 C 18,6 C 15,2 C 27,0 C 41 % 61 % 56 % 1029,3 hPa 0,0 l/m 4,2 km/h (1 Bft) N 360 10,9 C 18,6 C 5,2 km/h (1 Bft)
09.08.2022 20:01 29,7 C 18,7 C 14,9 C 27,1 C 41 % 61 % 56 % 1029,3 hPa 0,0 l/m 4,5 km/h (1 Bft) N-NW 337 11,0 C 18,7 C 6,7 km/h (2 Bft)
09.08.2022 20:00 29,9 C 18,7 C 15,0 C 27,1 C 42 % 61 % 56 % 1029,3 hPa 0,0 l/m 4,5 km/h (1 Bft) N 360 11,0 C 18,7 C 5,4 km/h (1 Bft)
09.08.2022 19:59 29,9 C 18,7 C 15,0 C 27,1 C 42 % 61 % 56 % 1029,3 hPa 0,0 l/m 4,5 km/h (1 Bft) N 360 11,0 C 18,7 C 5,4 km/h (1 Bft)
09.08.2022 19:58 30,0 C 18,8 C 15,2 C 27,1 C 43 % 61 % 56 % 1029,3 hPa 0,0 l/m 4,3 km/h (1 Bft) N-NW 337 11,1 C 18,8 C 4,2 km/h (1 Bft)
09.08.2022 19:57 30,0 C 18,8 C 15,2 C 27,1 C 43 % 61 % 56 % 1029,3 hPa 0,0 l/m 4,3 km/h (1 Bft) N-NW 337 11,1 C 18,8 C 4,2 km/h (1 Bft)
09.08.2022 19:56 30,1 C 18,9 C 15,5 C 27,0 C 44 % 61 % 56 % 1029,1 hPa 0,0 l/m 4,7 km/h (1 Bft) N-NO 22 11,2 C 18,9 C 8,8 km/h (2 Bft)
09.08.2022 19:55 30,1 C 18,9 C 15,5 C 27,0 C 44 % 61 % 56 % 1029,1 hPa 0,0 l/m 4,7 km/h (1 Bft) N-NO 22 11,2 C 18,9 C 8,8 km/h (2 Bft)
09.08.2022 19:54 30,2 C 19,0 C 15,5 C 27,1 C 46 % 60 % 56 % 1029,1 hPa 0,0 l/m 4,8 km/h (1 Bft) NW 315 11,1 C 19,0 C 5,9 km/h (2 Bft)
09.08.2022 19:53 30,2 C 19,0 C 15,5 C 27,1 C 46 % 60 % 56 % 1029,1 hPa 0,0 l/m 4,8 km/h (1 Bft) NW 315 11,1 C 19,0 C 5,9 km/h (2 Bft)
09.08.2022 19:52 30,2 C 19,1 C 15,4 C 27,1 C 46 % 60 % 56 % 1029,1 hPa 0,0 l/m 4,7 km/h (1 Bft) N 360 11,1 C 19,1 C 9,4 km/h (2 Bft)
09.08.2022 19:51 30,2 C 19,1 C 15,4 C 27,1 C 46 % 60 % 56 % 1029,1 hPa 0,0 l/m 4,7 km/h (1 Bft) N 360 11,1 C 19,1 C 9,4 km/h (2 Bft)
09.08.2022 19:50 30,3 C 19,1 C 15,6 C 27,0 C 46 % 60 % 56 % 1029,1 hPa 0,0 l/m 4,5 km/h (1 Bft) N-NW 337 11,1 C 19,1 C 5,0 km/h (1 Bft)
09.08.2022 19:49 30,3 C 19,1 C 15,6 C 27,0 C 46 % 60 % 56 % 1029,1 hPa 0,0 l/m 4,5 km/h (1 Bft) N-NW 337 11,1 C 19,1 C 5,0 km/h (1 Bft)
09.08.2022 19:48 30,2 C 19,2 C 15,8 C 27,0 C 46 % 60 % 56 % 1029,1 hPa 0,0 l/m 4,8 km/h (1 Bft) N-NW 337 11,2 C 19,2 C 5,4 km/h (1 Bft)
09.08.2022 19:47 30,2 C 19,2 C 15,8 C 27,0 C 46 % 60 % 56 % 1029,1 hPa 0,0 l/m 4,8 km/h (1 Bft) N-NW 337 11,2 C 19,2 C 5,4 km/h (1 Bft)
09.08.2022 19:46 30,2 C 19,2 C 15,8 C 27,1 C 46 % 60 % 56 % 1029,1 hPa 0,0 l/m 4,5 km/h (1 Bft) N 360 11,2 C 19,2 C 9,8 km/h (2 Bft)
09.08.2022 19:45 30,2 C 19,2 C 15,8 C 27,1 C 46 % 60 % 56 % 1029,1 hPa 0,0 l/m 4,5 km/h (1 Bft) N 360 11,2 C 19,2 C 9,8 km/h (2 Bft)
09.08.2022 19:44 30,4 C 19,3 C 15,7 C 27,1 C 46 % 60 % 56 % 1029,1 hPa 0,0 l/m 4,2 km/h (1 Bft) N 360 11,3 C 19,3 C 9,8 km/h (2 Bft)
09.08.2022 19:43 30,4 C 19,3 C 15,7 C 27,1 C 46 % 60 % 56 % 1029,1 hPa 0,0 l/m 4,2 km/h (1 Bft) N 360 11,3 C 19,3 C 9,8 km/h (2 Bft)
09.08.2022 19:42 30,4 C 19,4 C 15,5 C 27,1 C 46 % 60 % 56 % 1029,1 hPa 0,0 l/m 4,2 km/h (1 Bft) NO 45 11,4 C 19,4 C 9,4 km/h (2 Bft)
09.08.2022 19:41 30,4 C 19,4 C 15,5 C 27,1 C 46 % 60 % 56 % 1029,1 hPa 0,0 l/m 4,2 km/h (1 Bft) NO 45 11,4 C 19,4 C 9,4 km/h (2 Bft)
09.08.2022 19:40 30,4 C 19,4 C 15,6 C 27,1 C 46 % 59 % 56 % 1029,1 hPa 0,0 l/m 4,2 km/h (1 Bft) SW 225 11,2 C 19,4 C 11,1 km/h (2 Bft)
09.08.2022 19:39 30,4 C 19,4 C 15,6 C 27,1 C 46 % 59 % 56 % 1029,1 hPa 0,0 l/m 4,2 km/h (1 Bft) SW 225 11,2 C 19,4 C 11,1 km/h (2 Bft)
09.08.2022 19:38 30,5 C 19,5 C 15,7 C 27,1 C 46 % 59 % 56 % 1029,1 hPa 0,0 l/m 3,7 km/h (1 Bft) N-NO 22 11,3 C 19,5 C 7,7 km/h (2 Bft)
09.08.2022 19:37 30,5 C 19,5 C 15,7 C 27,1 C 46 % 59 % 56 % 1029,1 hPa 0,0 l/m 3,7 km/h (1 Bft) N-NO 22 11,3 C 19,5 C 7,7 km/h (2 Bft)
09.08.2022 19:36 30,5 C 19,6 C 16,0 C 27,1 C 46 % 59 % 56 % 1029,2 hPa 0,0 l/m 3,7 km/h (1 Bft) N-NO 22 11,4 C 19,6 C 7,5 km/h (2 Bft)
09.08.2022 19:35 30,5 C 19,6 C 16,0 C 27,1 C 46 % 59 % 56 % 1029,2 hPa 0,0 l/m 3,7 km/h (1 Bft) N-NO 22 11,4 C 19,6 C 7,5 km/h (2 Bft)
09.08.2022 19:34 30,6 C 19,7 C 16,0 C 27,1 C 46 % 59 % 56 % 1029,2 hPa 0,0 l/m 3,5 km/h (1 Bft) N-NO 22 11,5 C 19,7 C 4,8 km/h (1 Bft)
09.08.2022 19:33 30,6 C 19,7 C 16,0 C 27,1 C 46 % 59 % 56 % 1029,2 hPa 0,0 l/m 3,5 km/h (1 Bft) N-NO 22 11,5 C 19,7 C 4,8 km/h (1 Bft)
09.08.2022 19:32 30,6 C 19,7 C 16,0 C 27,2 C 46 % 59 % 56 % 1029,2 hPa 0,0 l/m 3,5 km/h (1 Bft) W-NW 292 11,5 C 19,7 C 11,5 km/h (2 Bft)
09.08.2022 19:31 30,6 C 19,7 C 16,0 C 27,2 C 46 % 59 % 56 % 1029,2 hPa 0,0 l/m 3,5 km/h (1 Bft) W-NW 292 11,5 C 19,7 C 11,5 km/h (2 Bft)
09.08.2022 19:30 30,6 C 19,7 C 16,0 C 27,1 C 46 % 59 % 56 % 1029,2 hPa 0,0 l/m 2,9 km/h (1 Bft) N-NW 337 11,5 C 19,7 C 6,1 km/h (2 Bft)
09.08.2022 19:29 30,6 C 19,7 C 16,0 C 27,1 C 46 % 59 % 56 % 1029,2 hPa 0,0 l/m 2,9 km/h (1 Bft) N-NW 337 11,5 C 19,7 C 6,1 km/h (2 Bft)
09.08.2022 19:28 30,7 C 19,8 C 16,0 C 27,1 C 46 % 59 % 56 % 1029,2 hPa 0,0 l/m 2,9 km/h (1 Bft) N 360 11,6 C 19,8 C 4,8 km/h (1 Bft)
09.08.2022 19:27 30,7 C 19,8 C 16,0 C 27,1 C 46 % 59 % 56 % 1029,2 hPa 0,0 l/m 2,9 km/h (1 Bft) N 360 11,6 C 19,8 C 4,8 km/h (1 Bft)
09.08.2022 19:26 30,8 C 19,9 C 16,0 C 27,2 C 45 % 59 % 56 % 1029,2 hPa 0,0 l/m 2,7 km/h (1 Bft) W-SW 247 11,6 C 19,9 C 4,4 km/h (1 Bft)
09.08.2022 19:25 30,8 C 19,9 C 16,0 C 27,2 C 45 % 59 % 56 % 1029,2 hPa 0,0 l/m 2,7 km/h (1 Bft) W-SW 247 11,6 C 19,9 C 4,4 km/h (1 Bft)
09.08.2022 19:24 30,8 C 19,9 C 16,3 C 27,1 C 45 % 59 % 56 % 1029,2 hPa 0,0 l/m 2,6 km/h (1 Bft) N 360 11,6 C 19,9 C 3,3 km/h (1 Bft)
09.08.2022 19:23 30,8 C 19,9 C 16,3 C 27,1 C 45 % 59 % 56 % 1029,2 hPa 0,0 l/m 2,6 km/h (1 Bft) N 360 11,6 C 19,9 C 3,3 km/h (1 Bft)
09.08.2022 19:22 30,9 C 20,0 C 16,5 C 27,1 C 45 % 59 % 56 % 1029,2 hPa 0,0 l/m 2,3 km/h (1 Bft) N-NW 337 11,7 C 20,0 C 5,4 km/h (1 Bft)
09.08.2022 19:21 30,9 C 20,0 C 16,5 C 27,1 C 45 % 59 % 56 % 1029,2 hPa 0,0 l/m 2,3 km/h (1 Bft) N-NW 337 11,7 C 20,0 C 5,4 km/h (1 Bft)
09.08.2022 19:20 30,9 C 20,1 C 16,6 C 27,1 C 45 % 59 % 56 % 1029,2 hPa 0,0 l/m 2,4 km/h (1 Bft) N-NO 22 11,8 C 20,1 C 4,6 km/h (1 Bft)
09.08.2022 19:19 30,9 C 20,1 C 16,6 C 27,1 C 45 % 59 % 56 % 1029,2 hPa 0,0 l/m 2,4 km/h (1 Bft) N-NO 22 11,8 C 20,1 C 4,6 km/h (1 Bft)
09.08.2022 19:18 31,0 C 20,2 C 16,7 C 27,2 C 45 % 59 % 56 % 1029,2 hPa 0,0 l/m 2,1 km/h (1 Bft) NW 315 11,9 C 20,2 C 5,4 km/h (1 Bft)
09.08.2022 19:17 31,0 C 20,2 C 16,7 C 27,2 C 45 % 59 % 56 % 1029,2 hPa 0,0 l/m 2,1 km/h (1 Bft) NW 315 11,9 C 20,2 C 5,4 km/h (1 Bft)
09.08.2022 19:16 31,0 C 20,2 C 16,8 C 27,2 C 45 % 59 % 56 % 1029,1 hPa 0,0 l/m 1,8 km/h (1 Bft) S-SW 202 11,9 C 20,2 C 2,5 km/h (1 Bft)
09.08.2022 19:15 31,0 C 20,2 C 16,8 C 27,2 C 45 % 59 % 56 % 1029,1 hPa 0,0 l/m 1,8 km/h (1 Bft) S-SW 202 11,9 C 20,2 C 2,5 km/h (1 Bft)
09.08.2022 19:14 31,1 C 20,2 C 16,9 C 27,1 C 45 % 58 % 56 % 1029,1 hPa 0,0 l/m 1,9 km/h (1 Bft) W-SW 247 11,7 C 20,2 C 0,0 km/h (0 Bft)
09.08.2022 19:13 31,1 C 20,2 C 16,9 C 27,1 C 45 % 58 % 56 % 1029,1 hPa 0,0 l/m 1,9 km/h (1 Bft) W-SW 247 11,7 C 20,2 C 0,0 km/h (0 Bft)
09.08.2022 19:12 31,2 C 20,3 C 16,8 C 27,2 C 45 % 58 % 56 % 1029,1 hPa 0,0 l/m 2,6 km/h (1 Bft) SW 225 11,8 C 20,3 C 3,3 km/h (1 Bft)
09.08.2022 19:11 31,2 C 20,3 C 16,8 C 27,2 C 45 % 58 % 56 % 1029,1 hPa 0,0 l/m 2,6 km/h (1 Bft) SW 225 11,8 C 20,3 C 3,3 km/h (1 Bft)
09.08.2022 19:10 31,2 C 20,3 C 16,7 C 27,2 C 45 % 59 % 56 % 1029,1 hPa 0,0 l/m 2,1 km/h (1 Bft) W-SW 247 12,0 C 20,3 C 6,7 km/h (2 Bft)
09.08.2022 19:09 31,2 C 20,3 C 16,7 C 27,2 C 45 % 59 % 56 % 1029,1 hPa 0,0 l/m 2,1 km/h (1 Bft) W-SW 247 12,0 C 20,3 C 6,7 km/h (2 Bft)
09.08.2022 19:08 31,3 C 20,4 C 16,8 C 27,2 C 45 % 59 % 56 % 1029,1 hPa 0,0 l/m 2,4 km/h (1 Bft) N-NO 22 12,1 C 20,4 C 0,0 km/h (0 Bft)
09.08.2022 19:07 31,3 C 20,4 C 16,8 C 27,2 C 45 % 59 % 56 % 1029,1 hPa 0,0 l/m 2,4 km/h (1 Bft) N-NO 22 12,1 C 20,4 C 0,0 km/h (0 Bft)
09.08.2022 19:06 31,2 C 20,5 C 16,8 C 27,2 C 45 % 58 % 56 % 1029,1 hPa 0,0 l/m 2,9 km/h (1 Bft) NW 315 11,9 C 20,5 C 0,0 km/h (0 Bft)
09.08.2022 19:05 31,2 C 20,5 C 16,8 C 27,2 C 45 % 58 % 56 % 1029,1 hPa 0,0 l/m 2,9 km/h (1 Bft) NW 315 11,9 C 20,5 C 0,0 km/h (0 Bft)
09.08.2022 19:04 31,4 C 20,6 C 16,8 C 27,2 C 44 % 58 % 56 % 1029,1 hPa 0,0 l/m 2,9 km/h (1 Bft) SW 225 12,0 C 20,6 C 7,9 km/h (2 Bft)
09.08.2022 19:03 31,4 C 20,6 C 16,8 C 27,2 C 44 % 58 % 56 % 1029,1 hPa 0,0 l/m 2,9 km/h (1 Bft) SW 225 12,0 C 20,6 C 7,9 km/h (2 Bft)
09.08.2022 19:02 31,5 C 20,6 C 17,2 C 27,2 C 44 % 58 % 56 % 1029,1 hPa 0,0 l/m 2,6 km/h (1 Bft) NW 315 12,0 C 20,6 C 10,7 km/h (2 Bft)
09.08.2022 19:00 31,5 C 20,6 C 17,4 C 27,2 C 44 % 58 % 56 % 1029,1 hPa 0,0 l/m 2,3 km/h (1 Bft) S-SW 202 12,0 C 20,6 C 0,0 km/h (0 Bft)
09.08.2022 18:59 31,5 C 20,6 C 17,4 C 27,2 C 44 % 58 % 56 % 1029,1 hPa 0,0 l/m 2,3 km/h (1 Bft) S-SW 202 12,0 C 20,6 C 0,0 km/h (0 Bft)
09.08.2022 18:58 31,6 C 20,6 C 17,3 C 27,2 C 44 % 58 % 56 % 1029,1 hPa 0,0 l/m 2,1 km/h (1 Bft) S 180 12,0 C 20,6 C 7,1 km/h (2 Bft)
09.08.2022 18:57 31,6 C 20,6 C 17,3 C 27,2 C 44 % 58 % 56 % 1029,1 hPa 0,0 l/m 2,1 km/h (1 Bft) S 180 12,0 C 20,6 C 7,1 km/h (2 Bft)
09.08.2022 18:56 31,6 C 20,7 C 17,1 C 27,2 C 44 % 58 % 56 % 1029,1 hPa 0,0 l/m 1,4 km/h (1 Bft) W-SW 247 12,1 C 20,7 C 6,5 km/h (2 Bft)
09.08.2022 18:55 31,6 C 20,7 C 17,1 C 27,2 C 44 % 58 % 56 % 1029,1 hPa 0,0 l/m 1,4 km/h (1 Bft) W-SW 247 12,1 C 20,7 C 6,5 km/h (2 Bft)
09.08.2022 18:54 31,6 C 20,7 C 17,0 C 27,1 C 44 % 58 % 56 % 1029,1 hPa 0,0 l/m 0,8 km/h (0 Bft) W-SW 247 12,1 C 20,7 C 6,3 km/h (2 Bft)
09.08.2022 18:53 31,6 C 20,7 C 17,0 C 27,1 C 44 % 58 % 56 % 1029,1 hPa 0,0 l/m 0,8 km/h (0 Bft) W-SW 247 12,1 C 20,7 C 6,3 km/h (2 Bft)
09.08.2022 18:52 31,7 C 20,8 C 17,0 C 27,2 C 44 % 58 % 56 % 1029,1 hPa 0,0 l/m 0,5 km/h (0 Bft) SW 225 12,2 C 20,8 C 4,4 km/h (1 Bft)
09.08.2022 18:51 31,7 C 20,8 C 17,0 C 27,2 C 44 % 58 % 56 % 1029,1 hPa 0,0 l/m 0,5 km/h (0 Bft) SW 225 12,2 C 20,8 C 4,4 km/h (1 Bft)
09.08.2022 18:50 31,7 C 20,8 C 17,0 C 27,1 C 44 % 58 % 56 % 1029,1 hPa 0,0 l/m 0,5 km/h (0 Bft) W-SW 247 12,2 C 20,8 C 0,0 km/h (0 Bft)
09.08.2022 18:49 31,7 C 20,8 C 17,0 C 27,1 C 44 % 58 % 56 % 1029,1 hPa 0,0 l/m 0,5 km/h (0 Bft) W-SW 247 12,2 C 20,8 C 0,0 km/h (0 Bft)
09.08.2022 18:48 31,7 C 20,9 C 17,1 C 27,1 C 44 % 58 % 56 % 1029,1 hPa 0,0 l/m 1,0 km/h (0 Bft) NW 315 12,3 C 20,9 C 3,3 km/h (1 Bft)
09.08.2022 18:47 31,7 C 20,9 C 17,1 C 27,1 C 44 % 58 % 56 % 1029,1 hPa 0,0 l/m 1,0 km/h (0 Bft) NW 315 12,3 C 20,9 C 3,3 km/h (1 Bft)
09.08.2022 18:46 31,7 C 21,0 C 17,1 C 27,1 C 44 % 58 % 56 % 1029,1 hPa 0,0 l/m 1,1 km/h (1 Bft) W-NW 292 12,4 C 21,0 C 0,0 km/h (0 Bft)
09.08.2022 18:45 31,7 C 21,0 C 17,1 C 27,1 C 44 % 58 % 56 % 1029,1 hPa 0,0 l/m 1,1 km/h (1 Bft) W-NW 292 12,4 C 21,0 C 0,0 km/h (0 Bft)
09.08.2022 18:44 31,7 C 21,1 C 17,4 C 27,1 C 44 % 57 % 56 % 1029,1 hPa 0,0 l/m 1,3 km/h (1 Bft) NW 315 12,2 C 21,1 C 2,5 km/h (1 Bft)
09.08.2022 18:43 31,7 C 21,1 C 17,4 C 27,1 C 44 % 57 % 56 % 1029,1 hPa 0,0 l/m 1,3 km/h (1 Bft) NW 315 12,2 C 21,1 C 2,5 km/h (1 Bft)
09.08.2022 18:42 31,7 C 21,1 C 17,5 C 27,1 C 44 % 57 % 56 % 1029,1 hPa 0,0 l/m 1,4 km/h (1 Bft) W-NW 292 12,2 C 21,1 C 2,3 km/h (1 Bft)
09.08.2022 18:41 31,7 C 21,1 C 17,5 C 27,1 C 44 % 57 % 56 % 1029,1 hPa 0,0 l/m 1,4 km/h (1 Bft) W-NW 292 12,2 C 21,1 C 2,3 km/h (1 Bft)
09.08.2022 18:40 31,7 C 21,2 C 17,6 C 27,1 C 44 % 57 % 56 % 1029,1 hPa 0,0 l/m 1,6 km/h (1 Bft) W-NW 292 12,3 C 21,2 C 2,3 km/h (1 Bft)
09.08.2022 18:39 31,7 C 21,2 C 17,6 C 27,1 C 44 % 57 % 56 % 1029,1 hPa 0,0 l/m 1,6 km/h (1 Bft) W-NW 292 12,3 C 21,2 C 2,3 km/h (1 Bft)
09.08.2022 18:38 31,6 C 21,2 C 17,7 C 27,1 C 44 % 57 % 56 % 1029,1 hPa 0,0 l/m 1,9 km/h (1 Bft) NW 315 12,3 C 21,2 C 9,0 km/h (2 Bft)
09.08.2022 18:37 31,6 C 21,2 C 17,7 C 27,1 C 44 % 57 % 56 % 1029,1 hPa 0,0 l/m 1,9 km/h (1 Bft) NW 315 12,3 C 21,2 C 9,0 km/h (2 Bft)
09.08.2022 18:36 31,6 C 21,2 C 17,6 C 27,1 C 45 % 57 % 56 % 1029,4 hPa 0,0 l/m 2,4 km/h (1 Bft) NW 315 12,3 C 21,2 C 3,3 km/h (1 Bft)
09.08.2022 18:35 31,6 C 21,2 C 17,6 C 27,1 C 45 % 57 % 56 % 1029,4 hPa 0,0 l/m 2,4 km/h (1 Bft) NW 315 12,3 C 21,2 C 3,3 km/h (1 Bft)
09.08.2022 18:34 31,6 C 21,3 C 17,8 C 27,1 C 44 % 57 % 56 % 1029,4 hPa 0,0 l/m 2,7 km/h (1 Bft) SO 135 12,4 C 21,3 C 0,0 km/h (0 Bft)
09.08.2022 18:33 31,6 C 21,3 C 17,8 C 27,1 C 44 % 57 % 56 % 1029,4 hPa 0,0 l/m 2,7 km/h (1 Bft) SO 135 12,4 C 21,3 C 0,0 km/h (0 Bft)
09.08.2022 18:32 31,6 C 21,3 C 18,1 C 27,1 C 45 % 57 % 56 % 1029,4 hPa 0,0 l/m 3,1 km/h (1 Bft) W-NW 292 12,4 C 21,3 C 3,1 km/h (1 Bft)
09.08.2022 18:31 31,6 C 21,3 C 18,1 C 27,1 C 45 % 57 % 56 % 1029,4 hPa 0,0 l/m 3,1 km/h (1 Bft) W-NW 292 12,4 C 21,3 C 3,1 km/h (1 Bft)
09.08.2022 18:30 31,6 C 21,3 C 18,1 C 27,0 C 45 % 56 % 56 % 1029,4 hPa 0,0 l/m 3,1 km/h (1 Bft) SW 225 12,2 C 21,3 C 5,4 km/h (1 Bft)
09.08.2022 18:29 31,6 C 21,3 C 18,1 C 27,0 C 45 % 56 % 56 % 1029,4 hPa 0,0 l/m 3,1 km/h (1 Bft) SW 225 12,2 C 21,3 C 5,4 km/h (1 Bft)
09.08.2022 18:28 31,6 C 21,3 C 18,0 C 27,0 C 44 % 56 % 56 % 1029,4 hPa 0,0 l/m 3,2 km/h (1 Bft) S 180 12,2 C 21,3 C 7,9 km/h (2 Bft)
09.08.2022 18:27 31,6 C 21,3 C 18,0 C 27,0 C 44 % 56 % 56 % 1029,4 hPa 0,0 l/m 3,2 km/h (1 Bft) S 180 12,2 C 21,3 C 7,9 km/h (2 Bft)
09.08.2022 18:26 31,6 C 21,3 C 18,3 C 26,9 C 45 % 56 % 56 % 1029,4 hPa 0,0 l/m 3,4 km/h (1 Bft) S-SW 202 12,2 C 21,3 C 4,6 km/h (1 Bft)
09.08.2022 18:25 31,6 C 21,3 C 18,3 C 26,9 C 45 % 56 % 56 % 1029,4 hPa 0,0 l/m 3,4 km/h (1 Bft) S-SW 202 12,2 C 21,3 C 4,6 km/h (1 Bft)
09.08.2022 18:24 31,6 C 21,3 C 18,4 C 26,9 C 45 % 56 % 56 % 1029,4 hPa 0,0 l/m 3,2 km/h (1 Bft) NW 315 12,2 C 21,3 C 4,8 km/h (1 Bft)
09.08.2022 18:23 31,6 C 21,3 C 18,4 C 26,9 C 45 % 56 % 56 % 1029,4 hPa 0,0 l/m 3,2 km/h (1 Bft) NW 315 12,2 C 21,3 C 4,8 km/h (1 Bft)
09.08.2022 18:22 31,6 C 21,3 C 18,2 C 26,9 C 45 % 56 % 56 % 1029,4 hPa 0,0 l/m 3,5 km/h (1 Bft) W-SW 247 12,2 C 21,3 C 7,5 km/h (2 Bft)
09.08.2022 18:21 31,6 C 21,3 C 18,2 C 26,9 C 45 % 56 % 56 % 1029,4 hPa 0,0 l/m 3,5 km/h (1 Bft) W-SW 247 12,2 C 21,3 C 7,5 km/h (2 Bft)
09.08.2022 18:20 31,6 C 21,3 C 18,2 C 26,9 C 45 % 56 % 56 % 1029,4 hPa 0,0 l/m 4,0 km/h (1 Bft) W 270 12,2 C 21,3 C 3,1 km/h (1 Bft)
09.08.2022 18:19 31,6 C 21,3 C 18,2 C 26,9 C 45 % 56 % 56 % 1029,4 hPa 0,0 l/m 4,0 km/h (1 Bft) W 270 12,2 C 21,3 C 3,1 km/h (1 Bft)
09.08.2022 18:18 31,5 C 21,4 C 18,2 C 26,9 C 45 % 56 % 56 % 1029,4 hPa 0,0 l/m 4,7 km/h (1 Bft) SW 225 12,3 C 21,4 C 11,7 km/h (2 Bft)
09.08.2022 18:17 31,5 C 21,4 C 18,2 C 26,9 C 45 % 56 % 56 % 1029,4 hPa 0,0 l/m 4,7 km/h (1 Bft) SW 225 12,3 C 21,4 C 11,7 km/h (2 Bft)
09.08.2022 18:16 31,5 C 21,5 C 18,3 C 26,9 C 45 % 55 % 56 % 1029,4 hPa 0,0 l/m 4,2 km/h (1 Bft) W-NW 292 12,1 C 21,5 C 4,6 km/h (1 Bft)
09.08.2022 18:15 31,5 C 21,5 C 18,3 C 26,9 C 45 % 55 % 56 % 1029,4 hPa 0,0 l/m 4,2 km/h (1 Bft) W-NW 292 12,1 C 21,5 C 4,6 km/h (1 Bft)
09.08.2022 18:14 31,5 C 21,5 C 18,3 C 26,8 C 45 % 56 % 56 % 1029,4 hPa 0,0 l/m 4,2 km/h (1 Bft) SW 225 12,3 C 21,5 C 2,3 km/h (1 Bft)
09.08.2022 18:13 31,5 C 21,5 C 18,3 C 26,8 C 45 % 56 % 56 % 1029,4 hPa 0,0 l/m 4,2 km/h (1 Bft) SW 225 12,3 C 21,5 C 2,3 km/h (1 Bft)
09.08.2022 18:12 31,5 C 21,6 C 18,4 C 26,8 C 45 % 56 % 56 % 1029,4 hPa 0,0 l/m 4,2 km/h (1 Bft) O 90 12,4 C 21,6 C 10,7 km/h (2 Bft)
09.08.2022 18:11 31,5 C 21,6 C 18,4 C 26,8 C 45 % 56 % 56 % 1029,4 hPa 0,0 l/m 4,2 km/h (1 Bft) O 90 12,4 C 21,6 C 10,7 km/h (2 Bft)
09.08.2022 18:10 31,4 C 21,6 C 18,4 C 26,9 C 45 % 56 % 56 % 1029,4 hPa 0,0 l/m 3,7 km/h (1 Bft) W-NW 292 12,4 C 21,6 C 14,4 km/h (3 Bft)
09.08.2022 18:09 31,4 C 21,6 C 18,4 C 26,9 C 45 % 56 % 56 % 1029,4 hPa 0,0 l/m 3,7 km/h (1 Bft) W-NW 292 12,4 C 21,6 C 14,4 km/h (3 Bft)
09.08.2022 18:08 31,4 C 21,7 C 18,6 C 26,9 C 45 % 56 % 56 % 1029,4 hPa 0,0 l/m 3,5 km/h (1 Bft) W-SW 247 12,5 C 21,7 C 5,9 km/h (2 Bft)
09.08.2022 18:07 31,4 C 21,7 C 18,6 C 26,9 C 45 % 56 % 56 % 1029,4 hPa 0,0 l/m 3,5 km/h (1 Bft) W-SW 247 12,5 C 21,7 C 5,9 km/h (2 Bft)
09.08.2022 18:06 31,4 C 21,7 C 18,4 C 26,9 C 45 % 56 % 56 % 1029,4 hPa 0,0 l/m 3,2 km/h (1 Bft) W-NW 292 12,5 C 21,7 C 9,0 km/h (2 Bft)
09.08.2022 18:05 31,4 C 21,7 C 18,4 C 26,9 C 45 % 56 % 56 % 1029,4 hPa 0,0 l/m 3,2 km/h (1 Bft) W-NW 292 12,5 C 21,7 C 9,0 km/h (2 Bft)
09.08.2022 18:04 31,4 C 21,7 C 18,4 C 26,9 C 45 % 56 % 56 % 1029,4 hPa 0,0 l/m 3,2 km/h (1 Bft) W-NW 292 12,5 C 21,7 C 11,3 km/h (2 Bft)
09.08.2022 18:03 31,4 C 21,7 C 18,4 C 26,9 C 45 % 56 % 56 % 1029,4 hPa 0,0 l/m 3,2 km/h (1 Bft) W-NW 292 12,5 C 21,7 C 11,3 km/h (2 Bft)
09.08.2022 18:01 31,4 C 21,8 C 18,6 C 26,8 C 45 % 55 % 56 % 1029,4 hPa 0,0 l/m 3,1 km/h (1 Bft) S 180 12,4 C 21,8 C 5,6 km/h (1 Bft)
09.08.2022 18:00 31,3 C 21,8 C 18,7 C 26,8 C 45 % 56 % 56 % 1029,4 hPa 0,0 l/m 3,1 km/h (1 Bft) W-NW 292 12,6 C 21,8 C 2,9 km/h (1 Bft)
09.08.2022 17:59 31,3 C 21,8 C 18,7 C 26,8 C 45 % 56 % 56 % 1029,4 hPa 0,0 l/m 3,1 km/h (1 Bft) W-NW 292 12,6 C 21,8 C 2,9 km/h (1 Bft)
09.08.2022 17:58 31,3 C 21,9 C 18,7 C 26,8 C 45 % 56 % 56 % 1029,4 hPa 0,0 l/m 2,9 km/h (1 Bft) S 180 12,7 C 21,9 C 14,4 km/h (3 Bft)
09.08.2022 17:57 31,3 C 21,9 C 18,7 C 26,8 C 45 % 56 % 56 % 1029,4 hPa 0,0 l/m 2,9 km/h (1 Bft) S 180 12,7 C 21,9 C 14,4 km/h (3 Bft)
09.08.2022 17:56 31,2 C 21,9 C 18,6 C 26,7 C 45 % 56 % 56 % 1029,4 hPa 0,0 l/m 2,1 km/h (1 Bft) NW 315 12,7 C 21,9 C 2,1 km/h (1 Bft)
09.08.2022 17:55 31,2 C 21,9 C 18,6 C 26,7 C 45 % 56 % 56 % 1029,4 hPa 0,0 l/m 2,1 km/h (1 Bft) NW 315 12,7 C 21,9 C 2,1 km/h (1 Bft)
09.08.2022 17:54 31,2 C 21,9 C 18,3 C 26,7 C 45 % 56 % 56 % 1029,4 hPa 0,0 l/m 2,1 km/h (1 Bft) SW 225 12,7 C 21,9 C 3,3 km/h (1 Bft)
09.08.2022 17:53 31,2 C 21,9 C 18,3 C 26,7 C 45 % 56 % 56 % 1029,4 hPa 0,0 l/m 2,1 km/h (1 Bft) SW 225 12,7 C 21,9 C 3,3 km/h (1 Bft)
09.08.2022 17:52 31,2 C 21,9 C 18,1 C 26,6 C 45 % 57 % 56 % 1029,4 hPa 0,0 l/m 3,1 km/h (1 Bft) W-NW 292 13,0 C 21,9 C 5,9 km/h (2 Bft)
09.08.2022 17:51 31,2 C 21,9 C 18,1 C 26,6 C 45 % 57 % 56 % 1029,4 hPa 0,0 l/m 3,1 km/h (1 Bft) W-NW 292 13,0 C 21,9 C 5,9 km/h (2 Bft)
09.08.2022 17:50 31,1 C 21,9 C 18,3 C 26,6 C 45 % 57 % 56 % 1029,4 hPa 0,0 l/m 3,4 km/h (1 Bft) W-NW 292 13,0 C 21,9 C 4,2 km/h (1 Bft)
09.08.2022 17:49 31,1 C 21,9 C 18,3 C 26,6 C 45 % 57 % 56 % 1029,4 hPa 0,0 l/m 3,4 km/h (1 Bft) W-NW 292 13,0 C 21,9 C 4,2 km/h (1 Bft)
09.08.2022 17:48 31,1 C 21,9 C 18,3 C 26,7 C 45 % 56 % 56 % 1029,4 hPa 0,0 l/m 3,7 km/h (1 Bft) NW 315 12,7 C 21,9 C 4,2 km/h (1 Bft)
09.08.2022 17:47 31,1 C 21,9 C 18,3 C 26,7 C 45 % 56 % 56 % 1029,4 hPa 0,0 l/m 3,7 km/h (1 Bft) NW 315 12,7 C 21,9 C 4,2 km/h (1 Bft)
09.08.2022 17:46 31,0 C 21,9 C 18,5 C 26,7 C 45 % 56 % 56 % 1029,4 hPa 0,0 l/m 4,3 km/h (1 Bft) W-SW 247 12,7 C 21,9 C 3,8 km/h (1 Bft)
09.08.2022 17:45 31,0 C 21,9 C 18,5 C 26,7 C 45 % 56 % 56 % 1029,4 hPa 0,0 l/m 4,3 km/h (1 Bft) W-SW 247 12,7 C 21,9 C 3,8 km/h (1 Bft)
09.08.2022 17:44 31,0 C 21,9 C 18,7 C 26,7 C 45 % 55 % 56 % 1029,4 hPa 0,0 l/m 4,8 km/h (1 Bft) S 180 12,4 C 21,9 C 16,9 km/h (3 Bft)
09.08.2022 17:43 31,0 C 21,9 C 18,7 C 26,7 C 45 % 55 % 56 % 1029,4 hPa 0,0 l/m 4,8 km/h (1 Bft) S 180 12,4 C 21,9 C 4,8 km/h (1 Bft)
09.08.2022 17:42 31,0 C 21,9 C 19,0 C 26,6 C 46 % 55 % 56 % 1029,4 hPa 0,0 l/m 4,5 km/h (1 Bft) SW 225 12,4 C 21,9 C 16,9 km/h (3 Bft)
09.08.2022 17:41 31,0 C 21,9 C 19,0 C 26,6 C 46 % 55 % 56 % 1029,4 hPa 0,0 l/m 4,5 km/h (1 Bft) SW 225 12,4 C 21,9 C 16,9 km/h (3 Bft)
09.08.2022 17:40 30,9 C 22,0 C 19,0 C 26,6 C 46 % 56 % 56 % 1029,4 hPa 0,0 l/m 3,9 km/h (1 Bft) W-NW 292 12,8 C 22,0 C 7,5 km/h (2 Bft)
09.08.2022 17:39 30,9 C 22,0 C 19,0 C 26,6 C 46 % 56 % 56 % 1029,4 hPa 0,0 l/m 3,9 km/h (1 Bft) W-NW 292 12,8 C 22,0 C 7,5 km/h (2 Bft)
09.08.2022 17:38 30,9 C 22,0 C 18,9 C 26,5 C 46 % 55 % 56 % 1029,4 hPa 0,0 l/m 3,2 km/h (1 Bft) W-SW 247 12,5 C 22,0 C 8,2 km/h (2 Bft)
09.08.2022 17:37 30,9 C 22,0 C 18,9 C 26,5 C 46 % 55 % 56 % 1029,4 hPa 0,0 l/m 3,2 km/h (1 Bft) W-SW 247 12,5 C 22,0 C 8,2 km/h (2 Bft)
09.08.2022 17:36 30,8 C 22,1 C 18,9 C 26,5 C 46 % 55 % 56 % 1029,3 hPa 0,0 l/m 2,4 km/h (1 Bft) W-NW 292 12,6 C 22,1 C 6,3 km/h (2 Bft)
09.08.2022 17:35 30,8 C 22,1 C 18,9 C 26,5 C 46 % 55 % 56 % 1029,3 hPa 0,0 l/m 2,4 km/h (1 Bft) W-NW 292 12,6 C 22,1 C 6,3 km/h (2 Bft)
09.08.2022 17:34 30,8 C 22,1 C 18,8 C 26,4 C 46 % 55 % 56 % 1029,3 hPa 0,0 l/m 2,1 km/h (1 Bft) W-SW 247 12,6 C 22,1 C 4,8 km/h (1 Bft)
09.08.2022 17:33 30,8 C 22,1 C 18,8 C 26,4 C 46 % 55 % 56 % 1029,3 hPa 0,0 l/m 2,1 km/h (1 Bft) W-SW 247 12,6 C 22,1 C 4,8 km/h (1 Bft)
09.08.2022 17:32 30,8 C 22,1 C 19,0 C 26,4 C 46 % 55 % 56 % 1029,3 hPa 0,0 l/m 2,1 km/h (1 Bft) W-SW 247 12,6 C 22,1 C 4,2 km/h (1 Bft)
09.08.2022 17:31 30,8 C 22,1 C 19,0 C 26,4 C 46 % 55 % 56 % 1029,3 hPa 0,0 l/m 2,1 km/h (1 Bft) W-SW 247 12,6 C 22,1 C 4,2 km/h (1 Bft)
09.08.2022 17:30 30,6 C 22,1 C 18,9 C 26,5 C 46 % 55 % 56 % 1029,3 hPa 0,0 l/m 1,8 km/h (1 Bft) SW 225 12,6 C 22,1 C 5,2 km/h (1 Bft)
09.08.2022 17:29 30,6 C 22,1 C 18,9 C 26,5 C 46 % 55 % 56 % 1029,3 hPa 0,0 l/m 1,8 km/h (1 Bft) SW 225 12,6 C 22,1 C 5,2 km/h (1 Bft)
09.08.2022 17:28 30,6 C 22,2 C 18,9 C 26,5 C 46 % 55 % 56 % 1029,3 hPa 0,0 l/m 1,6 km/h (1 Bft) W-SW 247 12,7 C 22,2 C 2,3 km/h (1 Bft)
09.08.2022 17:27 30,6 C 22,2 C 18,9 C 26,5 C 46 % 55 % 56 % 1029,3 hPa 0,0 l/m 1,6 km/h (1 Bft) W-SW 247 12,7 C 22,2 C 2,3 km/h (1 Bft)
09.08.2022 17:26 30,6 C 22,1 C 18,3 C 26,4 C 46 % 56 % 56 % 1029,3 hPa 0,0 l/m 1,9 km/h (1 Bft) O 90 12,9 C 22,1 C 2,5 km/h (1 Bft)
09.08.2022 17:25 30,6 C 22,1 C 18,3 C 26,4 C 46 % 56 % 56 % 1029,3 hPa 0,0 l/m 1,9 km/h (1 Bft) O 90 12,9 C 22,1 C 2,5 km/h (1 Bft)
09.08.2022 17:24 30,5 C 22,1 C 18,3 C 26,4 C 46 % 56 % 56 % 1029,3 hPa 0,0 l/m 2,4 km/h (1 Bft) N-NO 22 12,9 C 22,1 C 6,9 km/h (2 Bft)
09.08.2022 17:23 30,5 C 22,1 C 18,3 C 26,4 C 46 % 56 % 56 % 1029,3 hPa 0,0 l/m 2,4 km/h (1 Bft) N-NO 22 12,9 C 22,1 C 6,9 km/h (2 Bft)
09.08.2022 17:22 30,5 C 22,2 C 18,0 C 26,3 C 46 % 56 % 56 % 1029,3 hPa 0,0 l/m 2,7 km/h (1 Bft) W-NW 292 13,0 C 22,2 C 5,4 km/h (1 Bft)
09.08.2022 17:21 30,5 C 22,2 C 18,0 C 26,3 C 46 % 56 % 56 % 1029,3 hPa 0,0 l/m 2,7 km/h (1 Bft) W-NW 292 13,0 C 22,2 C 5,4 km/h (1 Bft)
09.08.2022 17:20 30,5 C 22,2 C 18,3 C 26,3 C 46 % 56 % 56 % 1029,3 hPa 0,0 l/m 3,1 km/h (1 Bft) W-SW 247 13,0 C 22,2 C 3,6 km/h (1 Bft)
09.08.2022 17:19 30,5 C 22,2 C 18,3 C 26,3 C 46 % 56 % 56 % 1029,3 hPa 0,0 l/m 3,1 km/h (1 Bft) W-SW 247 13,0 C 22,2 C 3,6 km/h (1 Bft)
09.08.2022 17:18 30,4 C 22,2 C 18,4 C 26,3 C 46 % 55 % 56 % 1029,3 hPa 0,0 l/m 3,4 km/h (1 Bft) N-NW 337 12,7 C 22,2 C 0,0 km/h (0 Bft)
09.08.2022 17:17 30,4 C 22,2 C 18,4 C 26,3 C 46 % 55 % 56 % 1029,3 hPa 0,0 l/m 3,4 km/h (1 Bft) N-NW 337 12,7 C 22,2 C 0,0 km/h (0 Bft)
09.08.2022 17:16 30,4 C 22,3 C 18,5 C 26,3 C 46 % 55 % 56 % 1029,7 hPa 0,0 l/m 3,2 km/h (1 Bft) N-NW 337 12,8 C 22,3 C 4,2 km/h (1 Bft)
09.08.2022 17:15 30,4 C 22,3 C 18,5 C 26,3 C 46 % 55 % 56 % 1029,7 hPa 0,0 l/m 3,2 km/h (1 Bft) N-NW 337 12,8 C 22,3 C 4,2 km/h (1 Bft)
09.08.2022 17:14 30,2 C 22,3 C 18,8 C 26,2 C 46 % 55 % 56 % 1029,7 hPa 0,0 l/m 3,9 km/h (1 Bft) W-NW 292 12,8 C 22,3 C 5,6 km/h (1 Bft)
09.08.2022 17:13 30,2 C 22,3 C 18,8 C 26,2 C 46 % 55 % 56 % 1029,7 hPa 0,0 l/m 3,9 km/h (1 Bft) W-NW 292 12,8 C 22,3 C 5,6 km/h (1 Bft)
09.08.2022 17:12 30,2 C 22,3 C 18,9 C 26,3 C 46 % 55 % 56 % 1029,7 hPa 0,0 l/m 3,9 km/h (1 Bft) W-NW 292 12,8 C 22,3 C 5,6 km/h (1 Bft)
09.08.2022 17:11 30,2 C 22,3 C 18,9 C 26,3 C 46 % 55 % 56 % 1029,7 hPa 0,0 l/m 3,9 km/h (1 Bft) W-NW 292 12,8 C 22,3 C 5,6 km/h (1 Bft)
09.08.2022 17:10 30,2 C 22,4 C 18,9 C 26,3 C 45 % 53 % 56 % 1029,7 hPa 0,0 l/m 3,9 km/h (1 Bft) NW 315 12,3 C 22,4 C 4,0 km/h (1 Bft)
09.08.2022 17:09 30,2 C 22,4 C 18,9 C 26,3 C 45 % 53 % 56 % 1029,7 hPa 0,0 l/m 3,9 km/h (1 Bft) NW 315 12,3 C 22,4 C 4,0 km/h (1 Bft)
09.08.2022 17:08 30,2 C 22,4 C 18,9 C 26,3 C 45 % 53 % 56 % 1029,7 hPa 0,0 l/m 4,0 km/h (1 Bft) W-NW 292 12,3 C 22,4 C 6,9 km/h (2 Bft)
09.08.2022 17:07 30,2 C 22,4 C 18,9 C 26,3 C 45 % 53 % 56 % 1029,7 hPa 0,0 l/m 4,0 km/h (1 Bft) W-NW 292 12,3 C 22,4 C 6,9 km/h (2 Bft)
09.08.2022 17:06 30,1 C 22,4 C 19,1 C 26,3 C 45 % 53 % 56 % 1029,7 hPa 0,0 l/m 4,2 km/h (1 Bft) O-NO 67 12,3 C 22,4 C 2,5 km/h (1 Bft)
09.08.2022 17:05 30,1 C 22,4 C 19,1 C 26,3 C 45 % 53 % 56 % 1029,7 hPa 0,0 l/m 4,2 km/h (1 Bft) O-NO 67 12,3 C 22,4 C 2,5 km/h (1 Bft)
09.08.2022 17:04 30,0 C 22,5 C 18,9 C 26,1 C 45 % 53 % 56 % 1029,7 hPa 0,0 l/m 4,2 km/h (1 Bft) S-SW 202 12,4 C 22,5 C 10,0 km/h (2 Bft)
09.08.2022 17:03 30,0 C 22,5 C 18,9 C 26,1 C 45 % 53 % 56 % 1029,7 hPa 0,0 l/m 4,2 km/h (1 Bft) S-SW 202 12,4 C 22,5 C 10,0 km/h (2 Bft)
09.08.2022 17:02 30,0 C 22,5 C 19,1 C 26,1 C 45 % 53 % 56 % 1029,7 hPa 0,0 l/m 3,7 km/h (1 Bft) S 180 12,4 C 22,5 C 5,4 km/h (1 Bft)
09.08.2022 17:00 29,9 C 22,6 C 19,2 C 26,1 C 45 % 53 % 55 % 1029,7 hPa 0,0 l/m 3,2 km/h (1 Bft) N-NW 337 12,5 C 22,6 C 4,2 km/h (1 Bft)
09.08.2022 16:59 29,9 C 22,6 C 19,2 C 26,1 C 45 % 53 % 55 % 1029,7 hPa 0,0 l/m 3,2 km/h (1 Bft) N-NW 337 12,5 C 22,6 C 4,2 km/h (1 Bft)
09.08.2022 16:58 29,8 C 22,6 C 19,1 C 26,0 C 45 % 53 % 55 % 1029,7 hPa 0,0 l/m 3,1 km/h (1 Bft) S 180 12,5 C 22,6 C 3,1 km/h (1 Bft)
09.08.2022 16:57 29,8 C 22,6 C 19,1 C 26,0 C 45 % 53 % 55 % 1029,7 hPa 0,0 l/m 3,1 km/h (1 Bft) S 180 12,5 C 22,6 C 3,1 km/h (1 Bft)
09.08.2022 16:56 29,8 C 22,7 C 19,1 C 26,0 C 45 % 53 % 55 % 1029,4 hPa 0,0 l/m 3,2 km/h (1 Bft) S-SO 157 12,6 C 22,7 C 8,4 km/h (2 Bft)
09.08.2022 16:55 29,8 C 22,7 C 19,1 C 26,0 C 45 % 53 % 55 % 1029,4 hPa 0,0 l/m 3,2 km/h (1 Bft) S-SO 157 12,6 C 22,7 C 8,4 km/h (2 Bft)
09.08.2022 16:54 29,7 C 22,7 C 19,2 C 26,1 C 45 % 53 % 55 % 1029,4 hPa 0,0 l/m 3,1 km/h (1 Bft) N-NW 337 12,6 C 22,7 C 5,0 km/h (1 Bft)
09.08.2022 16:53 29,7 C 22,7 C 19,2 C 26,1 C 45 % 53 % 55 % 1029,4 hPa 0,0 l/m 3,1 km/h (1 Bft) N-NW 337 12,6 C 22,7 C 5,0 km/h (1 Bft)
09.08.2022 16:52 29,6 C 22,7 C 19,1 C 26,0 C 46 % 53 % 55 % 1029,4 hPa 0,0 l/m 3,5 km/h (1 Bft) S 180 12,6 C 22,7 C 4,0 km/h (1 Bft)
09.08.2022 16:51 29,6 C 22,7 C 19,1 C 26,0 C 46 % 53 % 55 % 1029,4 hPa 0,0 l/m 3,5 km/h (1 Bft) S 180 12,6 C 22,7 C 4,0 km/h (1 Bft)
09.08.2022 16:50 29,6 C 22,6 C 19,2 C 26,0 C 46 % 53 % 55 % 1029,4 hPa 0,0 l/m 3,9 km/h (1 Bft) W-NW 292 12,5 C 22,6 C 2,9 km/h (1 Bft)
09.08.2022 16:49 29,6 C 22,6 C 19,2 C 26,0 C 46 % 53 % 55 % 1029,4 hPa 0,0 l/m 3,9 km/h (1 Bft) W-NW 292 12,5 C 22,6 C 2,9 km/h (1 Bft)
09.08.2022 16:48 29,5 C 22,6 C 19,1 C 25,9 C 46 % 53 % 55 % 1029,4 hPa 0,0 l/m 3,7 km/h (1 Bft) W-NW 292 12,5 C 22,6 C 3,6 km/h (1 Bft)
09.08.2022 16:47 29,5 C 22,6 C 19,1 C 25,9 C 46 % 53 % 55 % 1029,4 hPa 0,0 l/m 3,7 km/h (1 Bft) W-NW 292 12,5 C 22,6 C 3,6 km/h (1 Bft)
09.08.2022 16:46 29,4 C 22,6 C 19,0 C 25,9 C 45 % 52 % 55 % 1029,4 hPa 0,0 l/m 3,9 km/h (1 Bft) W-SW 247 12,2 C 22,6 C 14,2 km/h (3 Bft)
09.08.2022 16:45 29,4 C 22,6 C 19,0 C 25,9 C 45 % 52 % 55 % 1029,4 hPa 0,0 l/m 3,9 km/h (1 Bft) W-SW 247 12,2 C 22,6 C 14,2 km/h (3 Bft)
09.08.2022 16:44 29,2 C 22,7 C 19,1 C 25,8 C 45 % 52 % 55 % 1029,4 hPa 0,0 l/m 3,9 km/h (1 Bft) W 270 12,3 C 22,7 C 6,3 km/h (2 Bft)
09.08.2022 16:43 29,2 C 22,7 C 19,1 C 25,8 C 45 % 52 % 55 % 1029,4 hPa 0,0 l/m 3,9 km/h (1 Bft) W 270 12,3 C 22,7 C 6,3 km/h (2 Bft)
09.08.2022 16:42 29,3 C 22,7 C 19,2 C 25,8 C 45 % 52 % 55 % 1029,4 hPa 0,0 l/m 3,5 km/h (1 Bft) W-NW 292 12,3 C 22,7 C 11,1 km/h (2 Bft)
09.08.2022 16:41 29,3 C 22,7 C 19,2 C 25,8 C 45 % 52 % 55 % 1029,4 hPa 0,0 l/m 3,5 km/h (1 Bft) W-NW 292 12,3 C 22,7 C 11,1 km/h (2 Bft)
09.08.2022 16:40 29,2 C 22,7 C 19,0 C 25,9 C 46 % 52 % 55 % 1029,4 hPa 0,0 l/m 3,4 km/h (1 Bft) W-NW 292 12,3 C 22,7 C 7,7 km/h (2 Bft)
09.08.2022 16:39 29,2 C 22,7 C 19,0 C 25,9 C 46 % 52 % 55 % 1029,4 hPa 0,0 l/m 3,4 km/h (1 Bft) W-NW 292 12,3 C 22,7 C 7,7 km/h (2 Bft)
09.08.2022 16:38 29,2 C 22,7 C 19,3 C 25,8 C 46 % 52 % 55 % 1029,4 hPa 0,0 l/m 3,7 km/h (1 Bft) N-NW 337 12,3 C 22,7 C 2,7 km/h (1 Bft)
09.08.2022 16:37 29,2 C 22,7 C 19,3 C 25,8 C 46 % 52 % 55 % 1029,4 hPa 0,0 l/m 3,7 km/h (1 Bft) N-NW 337 12,3 C 22,7 C 2,7 km/h (1 Bft)
09.08.2022 16:36 29,2 C 22,8 C 19,1 C 25,7 C 46 % 52 % 55 % 1029,3 hPa 0,0 l/m 3,9 km/h (1 Bft) W 270 12,4 C 22,8 C 3,8 km/h (1 Bft)
09.08.2022 16:35 29,2 C 22,8 C 19,1 C 25,7 C 46 % 52 % 55 % 1029,3 hPa 0,0 l/m 3,9 km/h (1 Bft) W 270 12,4 C 22,8 C 3,8 km/h (1 Bft)
09.08.2022 16:34 29,0 C 22,8 C 19,0 C 25,7 C 46 % 52 % 55 % 1029,3 hPa 0,0 l/m 4,5 km/h (1 Bft) W-SW 247 12,4 C 22,8 C 11,5 km/h (2 Bft)
09.08.2022 16:33 29,0 C 22,8 C 19,0 C 25,7 C 46 % 52 % 55 % 1029,3 hPa 0,0 l/m 4,5 km/h (1 Bft) W-SW 247 12,4 C 22,8 C 11,5 km/h (2 Bft)
09.08.2022 16:32 29,0 C 22,8 C 19,0 C 25,6 C 46 % 52 % 55 % 1029,3 hPa 0,0 l/m 4,5 km/h (1 Bft) S-SW 202 12,4 C 22,8 C 8,2 km/h (2 Bft)
09.08.2022 16:31 29,0 C 22,8 C 19,0 C 25,6 C 46 % 52 % 55 % 1029,3 hPa 0,0 l/m 4,5 km/h (1 Bft) S-SW 202 12,4 C 22,8 C 8,2 km/h (2 Bft)
09.08.2022 16:30 28,9 C 22,8 C 19,1 C 25,6 C 46 % 52 % 55 % 1029,3 hPa 0,0 l/m 4,5 km/h (1 Bft) N-NW 337 12,4 C 22,8 C 4,2 km/h (1 Bft)
09.08.2022 16:29 28,9 C 22,8 C 19,1 C 25,6 C 46 % 52 % 55 % 1029,3 hPa 0,0 l/m 4,5 km/h (1 Bft) N-NW 337 12,4 C 22,8 C 4,2 km/h (1 Bft)
09.08.2022 16:28 28,8 C 22,8 C 19,0 C 25,6 C 45 % 52 % 55 % 1029,3 hPa 0,0 l/m 4,5 km/h (1 Bft) SW 225 12,4 C 22,8 C 5,4 km/h (1 Bft)
09.08.2022 16:27 28,8 C 22,8 C 19,0 C 25,6 C 45 % 52 % 55 % 1029,3 hPa 0,0 l/m 4,5 km/h (1 Bft) SW 225 12,4 C 22,8 C 5,4 km/h (1 Bft)
09.08.2022 16:26 28,8 C 22,9 C 19,1 C 25,6 C 45 % 51 % 55 % 1029,3 hPa 0,0 l/m 4,2 km/h (1 Bft) W-SW 247 12,2 C 22,9 C 5,2 km/h (1 Bft)
09.08.2022 16:25 28,8 C 22,9 C 19,1 C 25,6 C 45 % 51 % 55 % 1029,3 hPa 0,0 l/m 4,2 km/h (1 Bft) W-SW 247 12,2 C 22,9 C 5,2 km/h (1 Bft)
09.08.2022 16:24 28,7 C 22,9 C 19,0 C 25,6 C 46 % 52 % 55 % 1029,3 hPa 0,0 l/m 3,9 km/h (1 Bft) W-SW 247 12,5 C 22,9 C 16,1 km/h (3 Bft)
09.08.2022 16:23 28,7 C 22,9 C 19,0 C 25,6 C 46 % 52 % 55 % 1029,3 hPa 0,0 l/m 3,9 km/h (1 Bft) W-SW 247 12,5 C 22,9 C 14,2 km/h (3 Bft)
09.08.2022 16:22 28,6 C 22,9 C 18,8 C 25,5 C 46 % 52 % 54 % 1029,3 hPa 0,0 l/m 3,4 km/h (1 Bft) W-NW 292 12,5 C 22,9 C 6,3 km/h (2 Bft)
09.08.2022 16:21 28,6 C 22,9 C 18,8 C 25,5 C 46 % 52 % 54 % 1029,3 hPa 0,0 l/m 3,4 km/h (1 Bft) W-NW 292 12,5 C 22,9 C 6,3 km/h (2 Bft)
09.08.2022 16:20 28,5 C 22,9 C 19,0 C 25,6 C 46 % 52 % 55 % 1029,3 hPa 0,0 l/m 2,7 km/h (1 Bft) N-NW 337 12,5 C 22,9 C 5,4 km/h (1 Bft)
09.08.2022 16:19 28,5 C 22,9 C 19,0 C 25,6 C 46 % 52 % 55 % 1029,3 hPa 0,0 l/m 2,7 km/h (1 Bft) N-NW 337 12,5 C 22,9 C 5,4 km/h (1 Bft)
09.08.2022 16:18 28,5 C 23,0 C 19,2 C 25,5 C 46 % 51 % 54 % 1029,3 hPa 0,0 l/m 2,6 km/h (1 Bft) W 270 12,3 C 23,0 C 6,9 km/h (2 Bft)
09.08.2022 16:17 28,5 C 23,0 C 19,2 C 25,5 C 46 % 51 % 54 % 1029,3 hPa 0,0 l/m 2,6 km/h (1 Bft) W 270 12,3 C 23,0 C 6,9 km/h (2 Bft)
09.08.2022 16:16 28,4 C 22,9 C 19,0 C 25,5 C 46 % 52 % 54 % 1029,1 hPa 0,0 l/m 2,6 km/h (1 Bft) W-SW 247 12,5 C 22,9 C 4,2 km/h (1 Bft)
09.08.2022 16:15 28,4 C 22,9 C 19,0 C 25,5 C 46 % 52 % 54 % 1029,1 hPa 0,0 l/m 2,6 km/h (1 Bft) W-SW 247 12,5 C 22,9 C 4,2 km/h (1 Bft)
09.08.2022 16:14 28,2 C 23,0 C 19,3 C 25,4 C 46 % 51 % 54 % 1029,1 hPa 0,0 l/m 2,7 km/h (1 Bft) W-NW 292 12,3 C 23,0 C 13,8 km/h (3 Bft)
09.08.2022 16:13 28,2 C 23,0 C 19,3 C 25,4 C 46 % 51 % 54 % 1029,1 hPa 0,0 l/m 2,7 km/h (1 Bft) W-NW 292 12,3 C 23,0 C 5,0 km/h (1 Bft)
09.08.2022 16:12 28,3 C 22,9 C 19,1 C 25,5 C 46 % 52 % 54 % 1029,1 hPa 0,0 l/m 2,6 km/h (1 Bft) W-NW 292 12,5 C 22,9 C 4,8 km/h (1 Bft)
09.08.2022 16:11 28,3 C 22,9 C 19,1 C 25,5 C 46 % 52 % 54 % 1029,1 hPa 0,0 l/m 2,6 km/h (1 Bft) W-NW 292 12,5 C 22,9 C 4,8 km/h (1 Bft)
09.08.2022 16:10 28,2 C 22,9 C 19,1 C 25,5 C 46 % 52 % 54 % 1029,1 hPa 0,0 l/m 2,6 km/h (1 Bft) NW 315 12,5 C 22,9 C 4,0 km/h (1 Bft)
09.08.2022 16:09 28,2 C 22,9 C 19,1 C 25,5 C 46 % 52 % 54 % 1029,1 hPa 0,0 l/m 2,6 km/h (1 Bft) NW 315 12,5 C 22,9 C 4,0 km/h (1 Bft)
09.08.2022 16:08 28,2 C 23,0 C 19,1 C 25,5 C 46 % 50 % 54 % 1029,1 hPa 0,0 l/m 2,7 km/h (1 Bft) W-NW 292 12,0 C 23,0 C 5,4 km/h (1 Bft)
09.08.2022 16:07 28,2 C 23,0 C 19,1 C 25,5 C 46 % 50 % 54 % 1029,1 hPa 0,0 l/m 2,7 km/h (1 Bft) W-NW 292 12,0 C 23,0 C 5,4 km/h (1 Bft)
09.08.2022 16:06 28,1 C 23,0 C 18,6 C 25,5 C 46 % 51 % 54 % 1029,1 hPa 0,0 l/m 1,9 km/h (1 Bft) W 270 12,3 C 23,0 C 0,0 km/h (0 Bft)
09.08.2022 16:05 28,1 C 23,0 C 18,6 C 25,5 C 46 % 51 % 54 % 1029,1 hPa 0,0 l/m 1,9 km/h (1 Bft) W 270 12,3 C 23,0 C 0,0 km/h (0 Bft)
09.08.2022 16:04 28,1 C 23,0 C 18,7 C 25,3 C 46 % 50 % 55 % 1029,1 hPa 0,0 l/m 1,9 km/h (1 Bft) NW 315 12,0 C 23,0 C 8,6 km/h (2 Bft)
09.08.2022 16:03 28,1 C 23,0 C 18,7 C 25,3 C 46 % 50 % 55 % 1029,1 hPa 0,0 l/m 1,9 km/h (1 Bft) NW 315 12,0 C 23,0 C 8,6 km/h (2 Bft)
09.08.2022 16:02 28,0 C 23,0 C 18,7 C 25,3 C 46 % 50 % 55 % 1029,1 hPa 0,0 l/m 1,6 km/h (1 Bft) S 180 12,0 C 23,0 C 0,0 km/h (0 Bft)
09.08.2022 16:00 28,0 C 23,0 C 18,6 C 25,3 C 46 % 48 % 55 % 1029,1 hPa 0,0 l/m 1,9 km/h (1 Bft) NW 315 11,4 C 23,0 C 2,3 km/h (1 Bft)
09.08.2022 15:59 28,0 C 23,0 C 18,6 C 25,3 C 46 % 48 % 55 % 1029,1 hPa 0,0 l/m 1,9 km/h (1 Bft) NW 315 11,4 C 23,0 C 2,3 km/h (1 Bft)
09.08.2022 15:58 27,9 C 23,1 C 18,3 C 25,2 C 46 % 49 % 55 % 1029,1 hPa 0,0 l/m 1,6 km/h (1 Bft) W-NW 292 11,8 C 23,1 C 8,8 km/h (2 Bft)
09.08.2022 15:57 27,9 C 23,1 C 18,3 C 25,2 C 46 % 49 % 55 % 1029,1 hPa 0,0 l/m 1,6 km/h (1 Bft) W-NW 292 11,8 C 23,1 C 8,8 km/h (2 Bft)
09.08.2022 15:56 27,9 C 23,1 C 18,2 C 25,3 C 46 % 49 % 55 % 1029,4 hPa 0,0 l/m 1,6 km/h (1 Bft) W-NW 292 11,8 C 23,1 C 0,0 km/h (0 Bft)
09.08.2022 15:55 27,9 C 23,1 C 18,2 C 25,3 C 46 % 49 % 55 % 1029,4 hPa 0,0 l/m 1,6 km/h (1 Bft) W-NW 292 11,8 C 23,1 C 0,0 km/h (0 Bft)
09.08.2022 15:54 27,8 C 23,1 C 18,4 C 25,2 C 46 % 49 % 55 % 1029,4 hPa 0,0 l/m 1,9 km/h (1 Bft) NO 45 11,8 C 23,1 C 0,0 km/h (0 Bft)
09.08.2022 15:53 27,8 C 23,1 C 18,4 C 25,2 C 46 % 49 % 55 % 1029,4 hPa 0,0 l/m 1,9 km/h (1 Bft) NO 45 11,8 C 23,1 C 0,0 km/h (0 Bft)
09.08.2022 15:52 27,8 C 23,1 C 18,3 C 25,2 C 47 % 48 % 55 % 1029,4 hPa 0,0 l/m 1,9 km/h (1 Bft) W-NW 292 11,5 C 23,1 C 3,6 km/h (1 Bft)
09.08.2022 15:51 27,8 C 23,1 C 18,3 C 25,2 C 47 % 48 % 55 % 1029,4 hPa 0,0 l/m 1,9 km/h (1 Bft) W-NW 292 11,5 C 23,1 C 3,6 km/h (1 Bft)
09.08.2022 15:50 27,8 C 23,0 C 18,3 C 25,3 C 47 % 48 % 55 % 1029,4 hPa 0,0 l/m 2,3 km/h (1 Bft) W-SW 247 11,4 C 23,0 C 2,1 km/h (1 Bft)
09.08.2022 15:49 27,8 C 23,0 C 18,3 C 25,3 C 47 % 48 % 55 % 1029,4 hPa 0,0 l/m 2,3 km/h (1 Bft) W-SW 247 11,4 C 23,0 C 2,1 km/h (1 Bft)
09.08.2022 15:48 27,7 C 23,0 C 18,4 C 25,2 C 47 % 47 % 55 % 1029,4 hPa 0,0 l/m 2,3 km/h (1 Bft) NW 315 11,1 C 23,0 C 4,2 km/h (1 Bft)
09.08.2022 15:47 27,7 C 23,0 C 18,4 C 25,2 C 47 % 47 % 55 % 1029,4 hPa 0,0 l/m 2,3 km/h (1 Bft) NW 315 11,1 C 23,0 C 4,2 km/h (1 Bft)
09.08.2022 15:46 27,7 C 23,0 C 18,5 C 25,2 C 47 % 48 % 55 % 1029,4 hPa 0,0 l/m 2,4 km/h (1 Bft) N-NO 22 11,4 C 23,0 C 4,2 km/h (1 Bft)
09.08.2022 15:45 27,7 C 23,0 C 18,5 C 25,2 C 47 % 48 % 55 % 1029,4 hPa 0,0 l/m 2,4 km/h (1 Bft) N-NO 22 11,4 C 23,0 C 4,2 km/h (1 Bft)
09.08.2022 15:44 27,6 C 23,0 C 18,4 C 25,2 C 47 % 49 % 55 % 1029,4 hPa 0,0 l/m 2,4 km/h (1 Bft) NW 315 11,7 C 23,0 C 5,4 km/h (1 Bft)
09.08.2022 15:43 27,6 C 23,0 C 18,4 C 25,2 C 47 % 49 % 55 % 1029,4 hPa 0,0 l/m 2,4 km/h (1 Bft) NW 315 11,7 C 23,0 C 5,4 km/h (1 Bft)
09.08.2022 15:42 27,6 C 23,1 C 18,5 C 25,1 C 47 % 47 % 55 % 1029,4 hPa 0,0 l/m 2,3 km/h (1 Bft) NW 315 11,2 C 23,1 C 3,3 km/h (1 Bft)
09.08.2022 15:41 27,6 C 23,1 C 18,5 C 25,1 C 47 % 47 % 55 % 1029,4 hPa 0,0 l/m 2,3 km/h (1 Bft) NW 315 11,2 C 23,1 C 3,3 km/h (1 Bft)
09.08.2022 15:40 27,5 C 23,1 C 18,8 C 25,1 C 48 % 48 % 56 % 1029,4 hPa 0,0 l/m 2,3 km/h (1 Bft) W-NW 292 11,5 C 23,1 C 5,2 km/h (1 Bft)
09.08.2022 15:39 27,5 C 23,1 C 18,8 C 25,1 C 48 % 48 % 56 % 1029,4 hPa 0,0 l/m 2,3 km/h (1 Bft) W-NW 292 11,5 C 23,1 C 5,2 km/h (1 Bft)
09.08.2022 15:38 27,5 C 23,2 C 18,7 C 25,0 C 48 % 47 % 56 % 1029,4 hPa 0,0 l/m 2,3 km/h (1 Bft) NW 315 11,3 C 23,2 C 3,6 km/h (1 Bft)
09.08.2022 15:37 27,5 C 23,2 C 18,7 C 25,0 C 48 % 47 % 56 % 1029,4 hPa 0,0 l/m 2,3 km/h (1 Bft) NW 315 11,3 C 23,2 C 3,6 km/h (1 Bft)
09.08.2022 15:36 27,4 C 23,3 C 18,5 C 25,1 C 48 % 48 % 56 % 1029,6 hPa 0,0 l/m 2,3 km/h (1 Bft) W-NW 292 11,7 C 23,3 C 4,0 km/h (1 Bft)
09.08.2022 15:35 27,4 C 23,3 C 18,5 C 25,1 C 48 % 48 % 56 % 1029,6 hPa 0,0 l/m 2,3 km/h (1 Bft) W-NW 292 11,7 C 23,3 C 4,0 km/h (1 Bft)
09.08.2022 15:34 27,4 C 23,2 C 18,6 C 25,1 C 48 % 49 % 56 % 1029,6 hPa 0,0 l/m 2,4 km/h (1 Bft) NW 315 11,9 C 23,2 C 4,8 km/h (1 Bft)
09.08.2022 15:33 27,4 C 23,2 C 18,6 C 25,1 C 48 % 49 % 56 % 1029,6 hPa 0,0 l/m 2,4 km/h (1 Bft) NW 315 11,9 C 23,2 C 4,8 km/h (1 Bft)
09.08.2022 15:32 27,2 C 23,2 C 18,4 C 25,1 C 48 % 49 % 56 % 1029,6 hPa 0,0 l/m 2,4 km/h (1 Bft) W-SW 247 11,9 C 23,2 C 5,4 km/h (1 Bft)
09.08.2022 15:31 27,2 C 23,2 C 18,4 C 25,1 C 48 % 49 % 56 % 1029,6 hPa 0,0 l/m 2,4 km/h (1 Bft) W-SW 247 11,9 C 23,2 C 5,4 km/h (1 Bft)
09.08.2022 15:30 27,2 C 23,2 C 18,3 C 25,0 C 48 % 47 % 56 % 1029,6 hPa 0,0 l/m 2,6 km/h (1 Bft) N-NO 22 11,3 C 23,2 C 2,3 km/h (1 Bft)
09.08.2022 15:29 27,2 C 23,2 C 18,3 C 25,0 C 48 % 47 % 56 % 1029,6 hPa 0,0 l/m 2,6 km/h (1 Bft) N-NO 22 11,3 C 23,2 C 2,3 km/h (1 Bft)
09.08.2022 15:28 27,2 C 23,2 C 18,3 C 24,9 C 49 % 46 % 56 % 1029,6 hPa 0,0 l/m 2,4 km/h (1 Bft) NW 315 10,9 C 23,2 C 4,4 km/h (1 Bft)
09.08.2022 15:27 27,2 C 23,2 C 18,3 C 24,9 C 49 % 46 % 56 % 1029,6 hPa 0,0 l/m 2,4 km/h (1 Bft) NW 315 10,9 C 23,2 C 4,4 km/h (1 Bft)
09.08.2022 15:26 27,2 C 23,3 C 18,2 C 24,9 C 49 % 46 % 56 % 1029,6 hPa 0,0 l/m 2,6 km/h (1 Bft) NW 315 11,0 C 23,3 C 2,5 km/h (1 Bft)
09.08.2022 15:25 27,2 C 23,3 C 18,2 C 24,9 C 49 % 46 % 56 % 1029,6 hPa 0,0 l/m 2,6 km/h (1 Bft) NW 315 11,0 C 23,3 C 2,5 km/h (1 Bft)
09.08.2022 15:24 27,1 C 23,2 C 18,3 C 24,9 C 49 % 46 % 56 % 1029,6 hPa 0,0 l/m 2,9 km/h (1 Bft) NW 315 10,9 C 23,2 C 3,3 km/h (1 Bft)
09.08.2022 15:23 27,1 C 23,2 C 18,3 C 24,9 C 49 % 46 % 56 % 1029,6 hPa 0,0 l/m 2,9 km/h (1 Bft) NW 315 10,9 C 23,2 C 3,3 km/h (1 Bft)
09.08.2022 15:22 27,0 C 23,2 C 18,3 C 24,8 C 49 % 45 % 57 % 1029,6 hPa 0,0 l/m 3,1 km/h (1 Bft) N-NO 22 10,6 C 23,2 C 5,0 km/h (1 Bft)
09.08.2022 15:21 27,0 C 23,2 C 18,3 C 24,8 C 49 % 45 % 57 % 1029,6 hPa 0,0 l/m 3,1 km/h (1 Bft) N-NO 22 10,6 C 23,2 C 5,0 km/h (1 Bft)
09.08.2022 15:20 27,0 C 23,3 C 18,3 C 24,9 C 49 % 45 % 57 % 1029,6 hPa 0,0 l/m 2,9 km/h (1 Bft) O-NO 67 10,7 C 23,3 C 7,1 km/h (2 Bft)
09.08.2022 15:19 27,0 C 23,3 C 18,3 C 24,9 C 49 % 45 % 57 % 1029,6 hPa 0,0 l/m 2,9 km/h (1 Bft) O-NO 67 10,7 C 23,3 C 7,1 km/h (2 Bft)
09.08.2022 15:18 26,9 C 23,3 C 18,4 C 24,9 C 49 % 45 % 57 % 1029,6 hPa 0,0 l/m 2,9 km/h (1 Bft) N-NW 337 10,7 C 23,3 C 4,0 km/h (1 Bft)
09.08.2022 15:17 26,9 C 23,3 C 18,4 C 24,9 C 49 % 45 % 57 % 1029,6 hPa 0,0 l/m 2,9 km/h (1 Bft) N-NW 337 10,7 C 23,3 C 4,0 km/h (1 Bft)
09.08.2022 15:16 26,9 C 23,4 C 18,6 C 24,8 C 49 % 44 % 57 % 1029,5 hPa 0,0 l/m 2,6 km/h (1 Bft) S 180 10,4 C 23,4 C 7,3 km/h (2 Bft)
09.08.2022 15:15 26,9 C 23,4 C 18,6 C 24,8 C 49 % 44 % 57 % 1029,5 hPa 0,0 l/m 2,6 km/h (1 Bft) S 180 10,4 C 23,4 C 7,3 km/h (2 Bft)
09.08.2022 15:14 26,8 C 23,4 C 18,8 C 24,8 C 50 % 43 % 57 % 1029,5 hPa 0,0 l/m 2,3 km/h (1 Bft) W-NW 292 10,1 C 23,4 C 2,5 km/h (1 Bft)
09.08.2022 15:13 26,8 C 23,4 C 18,8 C 24,8 C 50 % 43 % 57 % 1029,5 hPa 0,1 l/m 2,3 km/h (1 Bft) W-NW 292 10,1 C 23,4 C 2,5 km/h (1 Bft)
09.08.2022 15:12 26,8 C 23,5 C 19,3 C 24,7 C 50 % 43 % 57 % 1029,5 hPa 0,0 l/m 2,1 km/h (1 Bft) NW 315 10,2 C 23,5 C 9,0 km/h (2 Bft)
09.08.2022 15:11 26,8 C 23,5 C 19,3 C 24,7 C 50 % 43 % 57 % 1029,5 hPa 0,0 l/m 2,1 km/h (1 Bft) NW 315 10,2 C 23,5 C 9,0 km/h (2 Bft)
09.08.2022 15:10 26,8 C 23,6 C 19,4 C 24,7 C 50 % 43 % 57 % 1029,5 hPa 0,0 l/m 1,9 km/h (1 Bft) NW 315 10,3 C 23,6 C 2,9 km/h (1 Bft)
09.08.2022 15:09 26,8 C 23,6 C 19,4 C 24,7 C 50 % 43 % 57 % 1029,5 hPa 0,0 l/m 1,9 km/h (1 Bft) NW 315 10,3 C 23,6 C 2,9 km/h (1 Bft)
09.08.2022 15:08 26,8 C 23,6 C 20,1 C 24,7 C 50 % 42 % 57 % 1029,5 hPa 0,0 l/m 1,9 km/h (1 Bft) N-NW 337 9,9 C 23,6 C 3,3 km/h (1 Bft)
09.08.2022 15:07 26,8 C 23,6 C 20,1 C 24,7 C 50 % 42 % 57 % 1029,5 hPa 0,0 l/m 1,9 km/h (1 Bft) N-NW 337 9,9 C 23,6 C 3,3 km/h (1 Bft)
09.08.2022 15:06 26,7 C 23,5 C 20,3 C 24,7 C 50 % 42 % 57 % 1029,5 hPa 0,0 l/m 2,1 km/h (1 Bft) NW 315 9,8 C 23,5 C 4,6 km/h (1 Bft)
09.08.2022 15:05 26,7 C 23,5 C 20,3 C 24,7 C 50 % 42 % 57 % 1029,5 hPa 0,0 l/m 2,1 km/h (1 Bft) NW 315 9,8 C 23,5 C 4,6 km/h (1 Bft)
09.08.2022 15:04 26,6 C 23,5 C 20,3 C 24,6 C 50 % 41 % 57 % 1029,5 hPa 0,0 l/m 2,1 km/h (1 Bft) W-SW 247 9,5 C 23,5 C 8,8 km/h (2 Bft)
09.08.2022 15:03 26,6 C 23,5 C 20,3 C 24,6 C 50 % 41 % 57 % 1029,5 hPa 0,0 l/m 2,1 km/h (1 Bft) W-SW 247 9,5 C 23,5 C 8,8 km/h (2 Bft)
09.08.2022 15:02 26,6 C 23,5 C 20,3 C 24,7 C 50 % 40 % 57 % 1029,5 hPa 0,0 l/m 2,4 km/h (1 Bft) W-NW 292 9,1 C 23,5 C 5,6 km/h (1 Bft)
09.08.2022 15:00 26,5 C 23,6 C 20,6 C 24,7 C 50 % 40 % 57 % 1029,5 hPa 0,0 l/m 2,7 km/h (1 Bft) NO 45 9,2 C 23,6 C 3,1 km/h (1 Bft)
09.08.2022 14:59 26,5 C 23,6 C 20,6 C 24,7 C 50 % 40 % 57 % 1029,5 hPa 0,0 l/m 2,7 km/h (1 Bft) NO 45 9,2 C 23,6 C 3,1 km/h (1 Bft)
09.08.2022 14:58 26,5 C 23,5 C 20,6 C 24,6 C 50 % 41 % 57 % 1029,5 hPa 0,0 l/m 2,9 km/h (1 Bft) NO 45 9,5 C 23,5 C 2,7 km/h (1 Bft)
09.08.2022 14:57 26,5 C 23,5 C 20,6 C 24,6 C 50 % 41 % 57 % 1029,5 hPa 0,0 l/m 2,9 km/h (1 Bft) NO 45 9,5 C 23,5 C 2,7 km/h (1 Bft)
09.08.2022 14:56 26,4 C 23,6 C 20,6 C 24,5 C 50 % 41 % 57 % 1029,6 hPa 0,0 l/m 3,1 km/h (1 Bft) W-NW 292 9,6 C 23,6 C 3,6 km/h (1 Bft)
09.08.2022 14:55 26,4 C 23,6 C 20,6 C 24,5 C 50 % 41 % 57 % 1029,6 hPa 0,0 l/m 3,1 km/h (1 Bft) W-NW 292 9,6 C 23,6 C 3,6 km/h (1 Bft)
09.08.2022 14:54 26,4 C 23,5 C 21,0 C 24,5 C 50 % 44 % 57 % 1029,6 hPa 0,0 l/m 3,5 km/h (1 Bft) NW 315 10,5 C 23,5 C 4,0 km/h (1 Bft)
09.08.2022 14:53 26,4 C 23,5 C 21,0 C 24,5 C 50 % 44 % 57 % 1029,6 hPa 0,0 l/m 3,5 km/h (1 Bft) NW 315 10,5 C 23,5 C 4,0 km/h (1 Bft)
09.08.2022 14:52 26,4 C 23,5 C 20,9 C 24,5 C 50 % 43 % 57 % 1029,6 hPa 0,0 l/m 3,5 km/h (1 Bft) N-NW 337 10,2 C 23,5 C 5,0 km/h (1 Bft)
09.08.2022 14:51 26,4 C 23,5 C 20,9 C 24,5 C 50 % 43 % 57 % 1029,6 hPa 0,0 l/m 3,5 km/h (1 Bft) N-NW 337 10,2 C 23,5 C 5,0 km/h (1 Bft)
09.08.2022 14:50 26,3 C 23,6 C 20,8 C 24,5 C 50 % 42 % 57 % 1029,6 hPa 0,0 l/m 2,7 km/h (1 Bft) NW 315 9,9 C 23,6 C 8,6 km/h (2 Bft)
09.08.2022 14:49 26,3 C 23,6 C 20,8 C 24,5 C 50 % 42 % 57 % 1029,6 hPa 0,0 l/m 2,7 km/h (1 Bft) NW 315 9,9 C 23,6 C 8,6 km/h (2 Bft)
09.08.2022 14:48 26,3 C 23,6 C 21,0 C 24,5 C 50 % 43 % 56 % 1029,6 hPa 0,0 l/m 2,6 km/h (1 Bft) N-NO 22 10,3 C 23,6 C 4,4 km/h (1 Bft)
09.08.2022 14:47 26,3 C 23,6 C 21,0 C 24,5 C 50 % 43 % 56 % 1029,6 hPa 0,0 l/m 2,6 km/h (1 Bft) N-NO 22 10,3 C 23,6 C 4,4 km/h (1 Bft)
09.08.2022 14:46 26,3 C 23,7 C 21,1 C 24,4 C 50 % 45 % 56 % 1029,6 hPa 0,0 l/m 2,7 km/h (1 Bft) N-NW 337 11,1 C 23,7 C 7,7 km/h (2 Bft)
09.08.2022 14:45 26,3 C 23,7 C 21,1 C 24,4 C 50 % 45 % 56 % 1029,6 hPa 0,0 l/m 2,7 km/h (1 Bft) N-NW 337 11,1 C 23,7 C 7,7 km/h (2 Bft)
09.08.2022 14:44 26,2 C 23,7 C 21,0 C 24,4 C 50 % 44 % 56 % 1029,6 hPa 0,0 l/m 2,6 km/h (1 Bft) W-NW 292 10,7 C 23,7 C 6,3 km/h (2 Bft)
09.08.2022 14:43 26,2 C 23,7 C 21,0 C 24,4 C 50 % 44 % 56 % 1029,6 hPa 0,0 l/m 2,6 km/h (1 Bft) W-NW 292 10,7 C 23,7 C 6,3 km/h (2 Bft)
09.08.2022 14:42 26,1 C 23,6 C 20,7 C 24,5 C 50 % 44 % 56 % 1029,6 hPa 0,0 l/m 2,6 km/h (1 Bft) NW 315 10,6 C 23,6 C 3,8 km/h (1 Bft)
09.08.2022 14:41 26,1 C 23,6 C 20,7 C 24,5 C 50 % 44 % 56 % 1029,6 hPa 0,0 l/m 2,6 km/h (1 Bft) NW 315 10,6 C 23,6 C 3,8 km/h (1 Bft)
09.08.2022 14:40 26,1 C 23,5 C 20,7 C 24,4 C 50 % 41 % 56 % 1029,6 hPa 0,0 l/m 2,9 km/h (1 Bft) W-NW 292 9,5 C 23,5 C 3,1 km/h (1 Bft)
09.08.2022 14:39 26,1 C 23,5 C 20,7 C 24,4 C 50 % 41 % 56 % 1029,6 hPa 0,0 l/m 2,9 km/h (1 Bft) W-NW 292 9,5 C 23,5 C 3,1 km/h (1 Bft)
09.08.2022 14:38 26,0 C 23,6 C 21,0 C 24,4 C 50 % 43 % 56 % 1029,6 hPa 0,0 l/m 2,9 km/h (1 Bft) W-NW 292 10,3 C 23,6 C 3,3 km/h (1 Bft)
09.08.2022 14:37 26,0 C 23,6 C 21,0 C 24,4 C 50 % 43 % 56 % 1029,6 hPa 0,0 l/m 2,9 km/h (1 Bft) W-NW 292 10,3 C 23,6 C 3,3 km/h (1 Bft)
09.08.2022 14:36 26,0 C 23,7 C 21,1 C 24,3 C 50 % 43 % 56 % 1029,4 hPa 0,0 l/m 2,9 km/h (1 Bft) N-NW 337 10,4 C 23,7 C 6,9 km/h (2 Bft)
09.08.2022 14:35 26,0 C 23,7 C 21,1 C 24,3 C 50 % 43 % 56 % 1029,4 hPa 0,0 l/m 2,9 km/h (1 Bft) N-NW 337 10,4 C 23,7 C 6,9 km/h (2 Bft)
09.08.2022 14:34 26,0 C 23,6 C 21,2 C 24,3 C 50 % 44 % 56 % 1029,4 hPa 0,0 l/m 2,9 km/h (1 Bft) W-NW 292 10,6 C 23,6 C 2,7 km/h (1 Bft)
09.08.2022 14:33 26,0 C 23,6 C 21,2 C 24,3 C 50 % 44 % 56 % 1029,4 hPa 0,0 l/m 2,9 km/h (1 Bft) W-NW 292 10,6 C 23,6 C 2,7 km/h (1 Bft)
09.08.2022 14:32 26,0 C 23,7 C 20,9 C 24,3 C 50 % 43 % 56 % 1029,4 hPa 0,0 l/m 2,9 km/h (1 Bft) NW 315 10,4 C 23,7 C 6,9 km/h (2 Bft)
09.08.2022 14:31 26,0 C 23,7 C 20,9 C 24,3 C 50 % 43 % 56 % 1029,4 hPa 0,0 l/m 2,9 km/h (1 Bft) NW 315 10,4 C 23,7 C 6,9 km/h (2 Bft)
09.08.2022 14:30 26,0 C 23,7 C 20,9 C 24,3 C 50 % 43 % 56 % 1029,4 hPa 0,0 l/m 2,9 km/h (1 Bft) N 360 10,4 C 23,7 C 7,9 km/h (2 Bft)
09.08.2022 14:29 26,0 C 23,7 C 20,9 C 24,3 C 50 % 43 % 56 % 1029,4 hPa 0,0 l/m 2,9 km/h (1 Bft) N 360 10,4 C 23,7 C 7,9 km/h (2 Bft)
09.08.2022 14:28 25,9 C 23,8 C 20,8 C 24,2 C 50 % 42 % 56 % 1029,4 hPa 0,0 l/m 2,6 km/h (1 Bft) N 360 10,1 C 23,8 C 3,1 km/h (1 Bft)
09.08.2022 14:27 25,9 C 23,8 C 20,8 C 24,2 C 50 % 42 % 56 % 1029,4 hPa 0,0 l/m 2,6 km/h (1 Bft) N 360 10,1 C 23,8 C 3,1 km/h (1 Bft)
09.08.2022 14:26 25,9 C 23,7 C 20,8 C 24,2 C 50 % 40 % 56 % 1029,4 hPa 0,0 l/m 2,6 km/h (1 Bft) W-NW 292 9,3 C 23,7 C 5,0 km/h (1 Bft)
09.08.2022 14:25 25,9 C 23,7 C 20,8 C 24,2 C 50 % 40 % 56 % 1029,4 hPa 0,0 l/m 2,6 km/h (1 Bft) W-NW 292 9,3 C 23,7 C 5,0 km/h (1 Bft)
09.08.2022 14:24 25,8 C 23,6 C 20,6 C 24,3 C 50 % 40 % 56 % 1029,4 hPa 0,0 l/m 2,4 km/h (1 Bft) W-NW 292 9,2 C 23,6 C 0,0 km/h (0 Bft)
09.08.2022 14:23 25,8 C 23,6 C 20,6 C 24,3 C 50 % 40 % 56 % 1029,4 hPa 0,0 l/m 2,4 km/h (1 Bft) W-NW 292 9,2 C 23,6 C 0,0 km/h (0 Bft)
09.08.2022 14:22 25,8 C 23,5 C 20,6 C 24,3 C 50 % 39 % 56 % 1029,4 hPa 0,0 l/m 2,4 km/h (1 Bft) W-NW 292 8,7 C 23,5 C 3,1 km/h (1 Bft)
09.08.2022 14:21 25,8 C 23,5 C 20,6 C 24,3 C 50 % 39 % 56 % 1029,4 hPa 0,0 l/m 2,4 km/h (1 Bft) W-NW 292 8,7 C 23,5 C 3,1 km/h (1 Bft)
09.08.2022 14:20 25,8 C 23,7 C 20,5 C 24,3 C 50 % 37 % 56 % 1029,4 hPa 0,0 l/m 2,7 km/h (1 Bft) W-NW 292 8,1 C 23,7 C 6,9 km/h (2 Bft)
09.08.2022 14:19 25,8 C 23,7 C 20,5 C 24,3 C 50 % 37 % 56 % 1029,4 hPa 0,0 l/m 2,7 km/h (1 Bft) W-NW 292 8,1 C 23,7 C 6,9 km/h (2 Bft)
09.08.2022 14:18 25,7 C 23,7 C 20,6 C 24,3 C 50 % 41 % 56 % 1029,4 hPa 0,0 l/m 2,4 km/h (1 Bft) NW 315 9,7 C 23,7 C 3,8 km/h (1 Bft)
09.08.2022 14:17 25,7 C 23,7 C 20,6 C 24,3 C 50 % 41 % 56 % 1029,4 hPa 0,0 l/m 2,4 km/h (1 Bft) NW 315 9,7 C 23,7 C 3,8 km/h (1 Bft)
09.08.2022 14:16 25,6 C 23,6 C 20,6 C 24,3 C 50 % 39 % 56 % 1029,9 hPa 0,0 l/m 2,7 km/h (1 Bft) W-NW 292 8,8 C 23,6 C 6,9 km/h (2 Bft)
09.08.2022 14:15 25,6 C 23,6 C 20,6 C 24,3 C 50 % 39 % 56 % 1029,9 hPa 0,0 l/m 2,7 km/h (1 Bft) W-NW 292 8,8 C 23,6 C 6,9 km/h (2 Bft)
09.08.2022 14:14 25,6 C 23,7 C 21,0 C 24,3 C 50 % 39 % 56 % 1029,9 hPa 0,0 l/m 2,6 km/h (1 Bft) W-NW 292 8,9 C 23,7 C 2,3 km/h (1 Bft)
09.08.2022 14:13 25,6 C 23,7 C 21,0 C 24,3 C 50 % 39 % 56 % 1029,9 hPa 0,0 l/m 2,6 km/h (1 Bft) W-NW 292 8,9 C 23,7 C 2,3 km/h (1 Bft)
09.08.2022 14:12 25,6 C 23,7 C 20,8 C 24,1 C 50 % 41 % 56 % 1029,9 hPa 0,0 l/m 2,6 km/h (1 Bft) N-NW 337 9,7 C 23,7 C 5,4 km/h (1 Bft)
09.08.2022 14:11 25,6 C 23,7 C 20,8 C 24,1 C 50 % 41 % 56 % 1029,9 hPa 0,0 l/m 2,6 km/h (1 Bft) N-NW 337 9,7 C 23,7 C 5,4 km/h (1 Bft)
09.08.2022 14:10 25,6 C 23,6 C 20,8 C 24,1 C 50 % 42 % 56 % 1029,9 hPa 0,0 l/m 2,3 km/h (1 Bft) NW 315 9,9 C 23,6 C 6,7 km/h (2 Bft)
09.08.2022 14:09 25,6 C 23,6 C 20,8 C 24,1 C 50 % 42 % 56 % 1029,9 hPa 0,0 l/m 2,3 km/h (1 Bft) NW 315 9,9 C 23,6 C 6,7 km/h (2 Bft)
09.08.2022 14:08 25,6 C 23,5 C 20,6 C 24,1 C 50 % 42 % 56 % 1029,9 hPa 0,0 l/m 2,3 km/h (1 Bft) NW 315 9,8 C 23,5 C 3,3 km/h (1 Bft)
09.08.2022 14:07 25,6 C 23,5 C 20,6 C 24,1 C 50 % 42 % 56 % 1029,9 hPa 0,0 l/m 2,3 km/h (1 Bft) NW 315 9,8 C 23,5 C 3,3 km/h (1 Bft)
09.08.2022 14:06 25,5 C 23,6 C 20,9 C 24,1 C 50 % 43 % 56 % 1029,9 hPa 0,0 l/m 2,3 km/h (1 Bft) N-NO 22 10,3 C 23,6 C 4,4 km/h (1 Bft)
09.08.2022 14:05 25,5 C 23,6 C 20,9 C 24,1 C 50 % 43 % 56 % 1029,9 hPa 0,0 l/m 2,3 km/h (1 Bft) N-NO 22 10,3 C 23,6 C 4,4 km/h (1 Bft)
09.08.2022 14:04 25,5 C 23,5 C 20,5 C 24,1 C 50 % 43 % 56 % 1029,9 hPa 0,0 l/m 2,1 km/h (1 Bft) W-NW 292 10,2 C 23,5 C 6,7 km/h (2 Bft)
09.08.2022 14:03 25,5 C 23,5 C 20,5 C 24,1 C 50 % 43 % 56 % 1029,9 hPa 0,0 l/m 2,1 km/h (1 Bft) W-NW 292 10,2 C 23,5 C 6,7 km/h (2 Bft)
09.08.2022 14:02 25,4 C 23,4 C 20,2 C 24,1 C 50 % 43 % 56 % 1029,9 hPa 0,0 l/m 1,8 km/h (1 Bft) W-NW 292 10,1 C 23,4 C 2,1 km/h (1 Bft)
09.08.2022 14:00 25,4 C 23,3 C 20,3 C 24,1 C 50 % 41 % 56 % 1029,9 hPa 0,0 l/m 1,4 km/h (1 Bft) N-NW 337 9,3 C 23,3 C 2,7 km/h (1 Bft)
09.08.2022 13:59 25,4 C 23,3 C 20,3 C 24,1 C 50 % 41 % 56 % 1029,9 hPa 0,0 l/m 1,4 km/h (1 Bft) N-NW 337 9,3 C 23,3 C 2,7 km/h (1 Bft)
09.08.2022 13:58 25,4 C 23,4 C 20,5 C 24,1 C 50 % 42 % 56 % 1029,9 hPa 0,0 l/m 1,1 km/h (1 Bft) S-SW 202 9,7 C 23,4 C 7,5 km/h (2 Bft)
09.08.2022 13:57 25,4 C 23,4 C 20,5 C 24,1 C 50 % 42 % 56 % 1029,9 hPa 0,0 l/m 1,1 km/h (1 Bft) S-SW 202 9,7 C 23,4 C 7,5 km/h (2 Bft)
09.08.2022 13:56 25,2 C 23,5 C 20,8 C 24,0 C 50 % 43 % 56 % 1029,9 hPa 0,0 l/m 0,8 km/h (0 Bft) W-NW 292 10,2 C 23,5 C 8,4 km/h (2 Bft)
09.08.2022 13:55 25,2 C 23,5 C 20,8 C 24,0 C 50 % 43 % 56 % 1029,9 hPa 0,0 l/m 0,8 km/h (0 Bft) W-NW 292 10,2 C 23,5 C 8,4 km/h (2 Bft)
09.08.2022 13:54 25,2 C 23,4 C 20,5 C 24,0 C 50 % 42 % 56 % 1029,9 hPa 0,0 l/m 0,6 km/h (0 Bft) W-SW 247 9,7 C 23,4 C 0,0 km/h (0 Bft)
09.08.2022 13:53 25,2 C 23,4 C 20,5 C 24,0 C 50 % 42 % 56 % 1029,9 hPa 0,0 l/m 0,6 km/h (0 Bft) W-SW 247 9,7 C 23,4 C 0,0 km/h (0 Bft)
09.08.2022 13:52 25,2 C 23,4 C 20,6 C 24,0 C 50 % 43 % 56 % 1029,9 hPa 0,0 l/m 0,8 km/h (0 Bft) S-SO 157 10,1 C 23,4 C 0,0 km/h (0 Bft)
09.08.2022 13:51 25,2 C 23,4 C 20,6 C 24,0 C 50 % 43 % 56 % 1029,9 hPa 0,0 l/m 0,8 km/h (0 Bft) S-SO 157 10,1 C 23,4 C 0,0 km/h (0 Bft)
09.08.2022 13:50 25,3 C 23,4 C 20,5 C 24,0 C 50 % 42 % 56 % 1029,9 hPa 0,0 l/m 0,8 km/h (0 Bft) NW 315 9,7 C 23,4 C 0,0 km/h (0 Bft)
09.08.2022 13:49 25,3 C 23,4 C 20,5 C 24,0 C 50 % 42 % 56 % 1029,9 hPa 0,0 l/m 0,8 km/h (0 Bft) NW 315 9,7 C 23,4 C 0,0 km/h (0 Bft)
09.08.2022 13:48 25,2 C 23,5 C 20,4 C 24,0 C 50 % 41 % 56 % 1029,9 hPa 0,0 l/m 1,3 km/h (1 Bft) W-NW 292 9,5 C 23,5 C 0,0 km/h (0 Bft)
09.08.2022 13:47 25,2 C 23,5 C 20,4 C 24,0 C 50 % 41 % 56 % 1029,9 hPa 0,0 l/m 1,3 km/h (1 Bft) W-NW 292 9,5 C 23,5 C 0,0 km/h (0 Bft)
09.08.2022 13:46 25,2 C 23,5 C 20,5 C 24,1 C 50 % 44 % 56 % 1029,9 hPa 0,0 l/m 1,6 km/h (1 Bft) W-NW 292 10,5 C 23,5 C 2,1 km/h (1 Bft)
09.08.2022 13:45 25,2 C 23,5 C 20,5 C 24,1 C 50 % 44 % 56 % 1029,9 hPa 0,0 l/m 1,6 km/h (1 Bft) W-NW 292 10,5 C 23,5 C 2,1 km/h (1 Bft)
09.08.2022 13:44 25,2 C 23,4 C 20,3 C 24,0 C 50 % 44 % 56 % 1029,9 hPa 0,0 l/m 1,6 km/h (1 Bft) NW 315 10,4 C 23,4 C 3,3 km/h (1 Bft)
09.08.2022 13:43 25,2 C 23,4 C 20,3 C 24,0 C 50 % 44 % 56 % 1029,9 hPa 0,0 l/m 1,6 km/h (1 Bft) NW 315 10,4 C 23,4 C 3,3 km/h (1 Bft)
09.08.2022 13:42 25,2 C 23,4 C 20,3 C 24,0 C 50 % 42 % 56 % 1029,9 hPa 0,0 l/m 1,8 km/h (1 Bft) W-SW 247 9,7 C 23,4 C 3,6 km/h (1 Bft)
09.08.2022 13:41 25,2 C 23,4 C 20,3 C 24,0 C 50 % 42 % 56 % 1029,9 hPa 0,0 l/m 1,8 km/h (1 Bft) W-SW 247 9,7 C 23,4 C 3,6 km/h (1 Bft)
09.08.2022 13:40 25,2 C 23,4 C 20,2 C 24,0 C 50 % 39 % 56 % 1029,9 hPa 0,0 l/m 2,1 km/h (1 Bft) N-NW 337 8,6 C 23,4 C 0,0 km/h (0 Bft)
09.08.2022 13:39 25,2 C 23,4 C 20,2 C 24,0 C 50 % 39 % 56 % 1029,9 hPa 0,0 l/m 2,1 km/h (1 Bft) N-NW 337 8,6 C 23,4 C 0,0 km/h (0 Bft)
09.08.2022 13:38 25,1 C 23,4 C 20,7 C 23,9 C 50 % 44 % 56 % 1029,9 hPa 0,0 l/m 2,1 km/h (1 Bft) W-SW 247 10,4 C 23,4 C 3,8 km/h (1 Bft)
09.08.2022 13:37 25,1 C 23,4 C 20,7 C 23,9 C 50 % 44 % 56 % 1029,9 hPa 0,0 l/m 2,1 km/h (1 Bft) W-SW 247 10,4 C 23,4 C 3,8 km/h (1 Bft)
09.08.2022 13:36 25,1 C 23,3 C 20,6 C 23,9 C 50 % 43 % 56 % 1030,0 hPa 0,0 l/m 2,1 km/h (1 Bft) NW 315 10,0 C 23,3 C 3,6 km/h (1 Bft)
09.08.2022 13:35 25,1 C 23,3 C 20,6 C 23,9 C 50 % 43 % 56 % 1030,0 hPa 0,0 l/m 2,1 km/h (1 Bft) NW 315 10,0 C 23,3 C 3,6 km/h (1 Bft)
09.08.2022 13:34 25,1 C 23,2 C 20,7 C 23,9 C 50 % 41 % 56 % 1030,0 hPa 0,0 l/m 1,9 km/h (1 Bft) W-NW 292 9,2 C 23,2 C 7,5 km/h (2 Bft)
09.08.2022 13:33 25,1 C 23,2 C 20,7 C 23,9 C 50 % 41 % 56 % 1030,0 hPa 0,0 l/m 1,9 km/h (1 Bft) W-NW 292 9,2 C 23,2 C 7,5 km/h (2 Bft)
09.08.2022 13:32 25,1 C 23,2 C 20,6 C 24,0 C 50 % 44 % 56 % 1030,0 hPa 0,0 l/m 2,3 km/h (1 Bft) NW 315 10,3 C 23,2 C 5,9 km/h (2 Bft)
09.08.2022 13:31 25,1 C 23,2 C 20,6 C 24,0 C 50 % 44 % 56 % 1030,0 hPa 0,0 l/m 2,3 km/h (1 Bft) NW 315 10,3 C 23,2 C 5,9 km/h (2 Bft)
09.08.2022 13:30 25,0 C 23,3 C 20,8 C 23,9 C 50 % 43 % 56 % 1030,0 hPa 0,0 l/m 2,3 km/h (1 Bft) N-NO 22 10,0 C 23,3 C 2,5 km/h (1 Bft)
09.08.2022 13:29 25,0 C 23,3 C 20,8 C 23,9 C 50 % 43 % 56 % 1030,0 hPa 0,0 l/m 2,3 km/h (1 Bft) N-NO 22 10,0 C 23,3 C 2,5 km/h (1 Bft)
09.08.2022 13:28 25,0 C 23,2 C 21,1 C 23,9 C 50 % 43 % 56 % 1030,0 hPa 0,0 l/m 2,3 km/h (1 Bft) N-NW 337 9,9 C 23,2 C 3,1 km/h (1 Bft)
09.08.2022 13:27 25,0 C 23,2 C 21,1 C 23,9 C 50 % 43 % 56 % 1030,0 hPa 0,0 l/m 2,3 km/h (1 Bft) N-NW 337 9,9 C 23,2 C 3,1 km/h (1 Bft)
09.08.2022 13:26 25,0 C 23,2 C 21,3 C 24,0 C 50 % 43 % 56 % 1030,0 hPa 0,0 l/m 2,1 km/h (1 Bft) NW 315 9,9 C 23,2 C 4,0 km/h (1 Bft)
09.08.2022 13:25 25,0 C 23,2 C 21,3 C 24,0 C 50 % 43 % 56 % 1030,0 hPa 0,0 l/m 2,1 km/h (1 Bft) NW 315 9,9 C 23,2 C 4,0 km/h (1 Bft)
09.08.2022 13:24 25,0 C 23,2 C 21,8 C 23,9 C 50 % 44 % 56 % 1030,0 hPa 0,0 l/m 2,4 km/h (1 Bft) NW 315 10,3 C 23,2 C 2,5 km/h (1 Bft)
09.08.2022 13:23 25,0 C 23,2 C 21,8 C 23,9 C 50 % 44 % 56 % 1030,0 hPa 0,0 l/m 2,4 km/h (1 Bft) NW 315 10,3 C 23,2 C 2,5 km/h (1 Bft)
09.08.2022 13:22 24,9 C 23,1 C 22,1 C 23,9 C 50 % 44 % 56 % 1030,0 hPa 0,0 l/m 2,1 km/h (1 Bft) N 360 10,2 C 23,1 C 4,4 km/h (1 Bft)
09.08.2022 13:21 24,9 C 23,1 C 22,1 C 23,9 C 50 % 44 % 56 % 1030,0 hPa 0,0 l/m 2,1 km/h (1 Bft) N 360 10,2 C 23,1 C 4,4 km/h (1 Bft)
09.08.2022 13:20 24,9 C 23,1 C 22,5 C 23,9 C 50 % 46 % 56 % 1030,0 hPa 0,0 l/m 2,1 km/h (1 Bft) N-NW 337 10,8 C 23,1 C 4,2 km/h (1 Bft)
09.08.2022 13:19 24,9 C 23,1 C 22,5 C 23,9 C 50 % 46 % 56 % 1030,0 hPa 0,0 l/m 2,1 km/h (1 Bft) N-NW 337 10,8 C 23,1 C 4,2 km/h (1 Bft)
09.08.2022 13:18 24,9 C 23,0 C 23,2 C 23,8 C 50 % 44 % 56 % 1030,0 hPa 0,0 l/m 1,9 km/h (1 Bft) NW 315 10,1 C 23,0 C 2,5 km/h (1 Bft)
09.08.2022 13:17 24,9 C 23,0 C 23,2 C 23,8 C 50 % 44 % 56 % 1030,0 hPa 0,0 l/m 1,9 km/h (1 Bft) NW 315 10,1 C 23,0 C 2,5 km/h (1 Bft)
09.08.2022 13:16 24,8 C 23,0 C 23,6 C 23,8 C 50 % 43 % 56 % 1030,1 hPa 0,0 l/m 1,9 km/h (1 Bft) W-NW 292 9,7 C 23,0 C 2,7 km/h (1 Bft)
09.08.2022 13:15 24,8 C 23,0 C 23,6 C 23,8 C 50 % 43 % 56 % 1030,1 hPa 0,0 l/m 1,9 km/h (1 Bft) W-NW 292 9,7 C 23,0 C 2,7 km/h (1 Bft)
09.08.2022 13:14 24,8 C 23,1 C 23,6 C 23,8 C 50 % 43 % 56 % 1030,1 hPa 0,0 l/m 2,3 km/h (1 Bft) W-NW 292 9,8 C 23,1 C 7,5 km/h (2 Bft)
09.08.2022 13:13 24,8 C 23,1 C 23,6 C 23,8 C 50 % 43 % 56 % 1030,1 hPa 0,0 l/m 2,3 km/h (1 Bft) W-NW 292 9,8 C 23,1 C 7,5 km/h (2 Bft)
09.08.2022 13:12 24,8 C 23,0 C 23,8 C 23,8 C 50 % 45 % 55 % 1030,1 hPa 0,0 l/m 2,1 km/h (1 Bft) N 360 10,4 C 23,0 C 0,0 km/h (0 Bft)
09.08.2022 13:11 24,8 C 23,0 C 23,8 C 23,8 C 50 % 45 % 55 % 1030,1 hPa 0,0 l/m 2,1 km/h (1 Bft) N 360 10,4 C 23,0 C 0,0 km/h (0 Bft)
09.08.2022 13:10 24,8 C 22,9 C 24,0 C 23,9 C 50 % 49 % 56 % 1030,1 hPa 0,0 l/m 2,4 km/h (1 Bft) W-NW 292 11,6 C 22,9 C 2,5 km/h (1 Bft)
09.08.2022 13:09 24,8 C 22,9 C 24,0 C 23,9 C 50 % 49 % 56 % 1030,1 hPa 0,0 l/m 2,4 km/h (1 Bft) W-NW 292 11,6 C 22,9 C 2,5 km/h (1 Bft)
09.08.2022 13:08 24,8 C 22,8 C 23,7 C 23,9 C 50 % 48 % 55 % 1030,1 hPa 0,0 l/m 2,3 km/h (1 Bft) NW 315 11,2 C 22,8 C 2,1 km/h (1 Bft)
09.08.2022 13:07 24,8 C 22,8 C 23,7 C 23,9 C 50 % 48 % 55 % 1030,1 hPa 0,0 l/m 2,3 km/h (1 Bft) NW 315 11,2 C 22,8 C 2,1 km/h (1 Bft)
09.08.2022 13:06 24,7 C 22,6 C 24,2 C 23,8 C 49 % 49 % 56 % 1030,1 hPa 0,0 l/m 2,4 km/h (1 Bft) N-NO 22 11,3 C 22,6 C 7,1 km/h (2 Bft)
09.08.2022 13:05 24,7 C 22,6 C 24,2 C 23,8 C 49 % 49 % 56 % 1030,1 hPa 0,0 l/m 2,4 km/h (1 Bft) N-NO 22 11,3 C 22,6 C 7,1 km/h (2 Bft)
09.08.2022 13:04 24,7 C 22,6 C 24,2 C 23,8 C 49 % 49 % 56 % 1030,1 hPa 0,0 l/m 2,4 km/h (1 Bft) N-NO 22 11,3 C 22,6 C 7,1 km/h (2 Bft)
09.08.2022 13:03 24,7 C 22,6 C 24,2 C 23,8 C 49 % 49 % 56 % 1030,1 hPa 0,0 l/m 2,4 km/h (1 Bft) N-NO 22 11,3 C 22,6 C 7,1 km/h (2 Bft)
09.08.2022 13:02 24,7 C 22,6 C 24,2 C 23,8 C 49 % 49 % 56 % 1030,1 hPa 0,0 l/m 2,4 km/h (1 Bft) N-NO 22 11,3 C 22,6 C 7,1 km/h (2 Bft)
09.08.2022 13:00 24,7 C 22,6 C 24,2 C 23,8 C 49 % 49 % 56 % 1030,1 hPa 0,0 l/m 2,4 km/h (1 Bft) N-NO 22 11,3 C 22,6 C 7,1 km/h (2 Bft)
09.08.2022 12:59 24,7 C 22,6 C 24,2 C 23,8 C 49 % 49 % 56 % 1030,1 hPa 0,0 l/m 2,4 km/h (1 Bft) N-NO 22 11,3 C 22,6 C 7,1 km/h (2 Bft)
09.08.2022 12:58 24,6 C 22,6 C 24,2 C 23,8 C 49 % 49 % 56 % 1030,1 hPa 0,0 l/m 2,4 km/h (1 Bft) N-NO 22 11,3 C 22,6 C 7,1 km/h (2 Bft)
09.08.2022 12:57 24,6 C 22,6 C 24,2 C 23,8 C 49 % 49 % 56 % 1030,1 hPa 0,0 l/m 2,4 km/h (1 Bft) N-NO 22 11,3 C 22,6 C 7,1 km/h (2 Bft)
09.08.2022 12:56 24,6 C 22,6 C 23,9 C 23,9 C 49 % 50 % 55 % 1029,9 hPa 0,0 l/m 2,4 km/h (1 Bft) N-NW 337 11,6 C 22,6 C 5,4 km/h (1 Bft)
09.08.2022 12:55 24,6 C 22,6 C 23,9 C 23,9 C 49 % 50 % 55 % 1029,9 hPa 0,0 l/m 2,4 km/h (1 Bft) N-NW 337 11,6 C 22,6 C 5,4 km/h (1 Bft)
09.08.2022 12:54 24,6 C 22,5 C 23,8 C 23,9 C 50 % 47 % 55 % 1029,9 hPa 0,0 l/m 2,3 km/h (1 Bft) NW 315 10,6 C 22,5 C 4,6 km/h (1 Bft)
09.08.2022 12:53 24,6 C 22,5 C 23,8 C 23,9 C 50 % 47 % 55 % 1029,9 hPa 0,0 l/m 2,3 km/h (1 Bft) NW 315 10,6 C 22,5 C 4,6 km/h (1 Bft)
09.08.2022 12:52 24,6 C 22,6 C 23,9 C 23,8 C 50 % 49 % 55 % 1029,9 hPa 0,0 l/m 2,3 km/h (1 Bft) NW 315 11,3 C 22,6 C 4,0 km/h (1 Bft)
09.08.2022 12:51 24,6 C 22,6 C 23,9 C 23,8 C 50 % 49 % 55 % 1029,9 hPa 0,0 l/m 2,3 km/h (1 Bft) NW 315 11,3 C 22,6 C 4,0 km/h (1 Bft)
09.08.2022 12:50 24,6 C 22,5 C 23,7 C 23,7 C 50 % 48 % 55 % 1029,9 hPa 0,0 l/m 2,1 km/h (1 Bft) N-NW 337 10,9 C 22,5 C 0,0 km/h (0 Bft)
09.08.2022 12:49 24,6 C 22,5 C 23,7 C 23,7 C 50 % 48 % 55 % 1029,9 hPa 0,0 l/m 2,1 km/h (1 Bft) N-NW 337 10,9 C 22,5 C 0,0 km/h (0 Bft)
09.08.2022 12:48 24,5 C 22,4 C 23,6 C 23,8 C 50 % 48 % 55 % 1029,9 hPa 0,0 l/m 2,4 km/h (1 Bft) W-NW 292 10,8 C 22,4 C 4,6 km/h (1 Bft)
09.08.2022 12:47 24,5 C 22,4 C 23,6 C 23,8 C 50 % 48 % 55 % 1029,9 hPa 0,0 l/m 2,4 km/h (1 Bft) W-NW 292 10,8 C 22,4 C 4,6 km/h (1 Bft)
09.08.2022 12:46 24,5 C 22,4 C 23,3 C 23,7 C 49 % 47 % 55 % 1029,9 hPa 0,0 l/m 2,3 km/h (1 Bft) N-NW 337 10,5 C 22,4 C 4,8 km/h (1 Bft)
09.08.2022 12:45 24,5 C 22,4 C 23,3 C 23,7 C 49 % 47 % 55 % 1029,9 hPa 0,0 l/m 2,3 km/h (1 Bft) N-NW 337 10,5 C 22,4 C 4,8 km/h (1 Bft)
09.08.2022 12:44 24,5 C 22,5 C 23,0 C 23,7 C 50 % 48 % 55 % 1029,9 hPa 0,0 l/m 2,1 km/h (1 Bft) N-NW 337 10,9 C 22,5 C 2,5 km/h (1 Bft)
09.08.2022 12:43 24,5 C 22,5 C 23,0 C 23,7 C 50 % 48 % 55 % 1029,9 hPa 0,0 l/m 2,1 km/h (1 Bft) N-NW 337 10,9 C 22,5 C 2,5 km/h (1 Bft)
09.08.2022 12:42 24,5 C 22,5 C 22,2 C 23,7 C 50 % 47 % 55 % 1029,9 hPa 0,0 l/m 2,3 km/h (1 Bft) O-SO 112 10,6 C 22,5 C 4,2 km/h (1 Bft)
09.08.2022 12:41 24,5 C 22,5 C 22,2 C 23,7 C 50 % 47 % 55 % 1029,9 hPa 0,0 l/m 2,3 km/h (1 Bft) O-SO 112 10,6 C 22,5 C 4,2 km/h (1 Bft)
09.08.2022 12:40 24,4 C 22,5 C 21,8 C 23,7 C 50 % 48 % 55 % 1029,9 hPa 0,0 l/m 2,1 km/h (1 Bft) NW 315 10,9 C 22,5 C 2,3 km/h (1 Bft)
09.08.2022 12:39 24,4 C 22,5 C 21,8 C 23,7 C 50 % 48 % 55 % 1029,9 hPa 0,0 l/m 2,1 km/h (1 Bft) NW 315 10,9 C 22,5 C 2,3 km/h (1 Bft)
09.08.2022 12:38 24,4 C 22,3 C 21,4 C 23,7 C 50 % 47 % 55 % 1029,9 hPa 0,0 l/m 2,1 km/h (1 Bft) W-SW 247 10,4 C 22,3 C 0,0 km/h (0 Bft)
09.08.2022 12:37 24,4 C 22,3 C 21,4 C 23,7 C 50 % 47 % 55 % 1029,9 hPa 0,0 l/m 2,1 km/h (1 Bft) W-SW 247 10,4 C 22,3 C 0,0 km/h (0 Bft)
09.08.2022 12:36 24,4 C 22,3 C 22,5 C 23,7 C 49 % 48 % 55 % 1030,1 hPa 0,0 l/m 2,4 km/h (1 Bft) NO 45 10,8 C 22,3 C 4,0 km/h (1 Bft)
09.08.2022 12:35 24,4 C 22,3 C 22,5 C 23,7 C 49 % 48 % 55 % 1030,1 hPa 0,0 l/m 2,4 km/h (1 Bft) NO 45 10,8 C 22,3 C 4,0 km/h (1 Bft)
09.08.2022 12:34 24,4 C 22,2 C 23,1 C 23,7 C 49 % 47 % 55 % 1030,1 hPa 0,0 l/m 2,4 km/h (1 Bft) N-NO 22 10,3 C 22,2 C 4,8 km/h (1 Bft)
09.08.2022 12:33 24,4 C 22,2 C 23,1 C 23,7 C 49 % 47 % 55 % 1030,1 hPa 0,0 l/m 2,4 km/h (1 Bft) N-NO 22 10,3 C 22,2 C 4,8 km/h (1 Bft)
09.08.2022 12:32 24,4 C 22,1 C 23,2 C 23,7 C 49 % 49 % 55 % 1030,1 hPa 0,0 l/m 2,1 km/h (1 Bft) N-NW 337 10,9 C 22,1 C 4,2 km/h (1 Bft)
09.08.2022 12:31 24,4 C 22,1 C 23,2 C 23,7 C 49 % 49 % 55 % 1030,1 hPa 0,0 l/m 2,1 km/h (1 Bft) N-NW 337 10,9 C 22,1 C 4,2 km/h (1 Bft)
09.08.2022 12:30 24,2 C 22,0 C 22,7 C 23,7 C 50 % 48 % 55 % 1030,1 hPa 0,0 l/m 1,9 km/h (1 Bft) NW 315 10,5 C 22,0 C 4,0 km/h (1 Bft)
09.08.2022 12:29 24,2 C 22,0 C 22,7 C 23,7 C 50 % 48 % 55 % 1030,1 hPa 0,0 l/m 1,9 km/h (1 Bft) NW 315 10,5 C 22,0 C 4,0 km/h (1 Bft)
09.08.2022 12:28 24,3 C 22,1 C 22,6 C 23,6 C 50 % 47 % 55 % 1030,1 hPa 0,0 l/m 1,9 km/h (1 Bft) N-NW 337 10,3 C 22,1 C 4,4 km/h (1 Bft)
09.08.2022 12:27 24,3 C 22,1 C 22,6 C 23,6 C 50 % 47 % 55 % 1030,1 hPa 0,0 l/m 1,9 km/h (1 Bft) N-NW 337 10,3 C 22,1 C 4,4 km/h (1 Bft)
09.08.2022 12:26 24,3 C 22,1 C 22,9 C 23,6 C 49 % 49 % 55 % 1030,1 hPa 0,0 l/m 1,4 km/h (1 Bft) NW 315 10,9 C 22,1 C 4,6 km/h (1 Bft)
09.08.2022 12:25 24,3 C 22,1 C 22,9 C 23,6 C 49 % 49 % 55 % 1030,1 hPa 0,0 l/m 1,4 km/h (1 Bft) NW 315 10,9 C 22,1 C 4,6 km/h (1 Bft)
09.08.2022 12:24 24,2 C 22,1 C 23,2 C 23,6 C 49 % 49 % 55 % 1030,1 hPa 0,0 l/m 1,1 km/h (1 Bft) S-SO 157 10,9 C 22,1 C 4,8 km/h (1 Bft)
09.08.2022 12:23 24,2 C 22,1 C 23,2 C 23,6 C 49 % 49 % 55 % 1030,1 hPa 0,0 l/m 1,1 km/h (1 Bft) S-SO 157 10,9 C 22,1 C 4,8 km/h (1 Bft)
09.08.2022 12:22 24,2 C 22,2 C 23,4 C 23,7 C 49 % 49 % 55 % 1030,1 hPa 0,0 l/m 1,1 km/h (1 Bft) N-NO 22 11,0 C 22,2 C 0,0 km/h (0 Bft)
09.08.2022 12:21 24,2 C 22,2 C 23,4 C 23,7 C 49 % 49 % 55 % 1030,1 hPa 0,0 l/m 1,1 km/h (1 Bft) N-NO 22 11,0 C 22,2 C 0,0 km/h (0 Bft)
09.08.2022 12:20 24,2 C 22,2 C 23,8 C 23,7 C 49 % 51 % 55 % 1030,1 hPa 0,0 l/m 1,1 km/h (1 Bft) NW 315 11,6 C 22,2 C 0,0 km/h (0 Bft)
09.08.2022 12:19 24,2 C 22,2 C 23,8 C 23,7 C 49 % 51 % 55 % 1030,1 hPa 0,0 l/m 1,1 km/h (1 Bft) NW 315 11,6 C 22,2 C 0,0 km/h (0 Bft)
09.08.2022 12:18 24,2 C 22,1 C 23,2 C 23,7 C 49 % 50 % 55 % 1030,1 hPa 0,0 l/m 1,4 km/h (1 Bft) W-NW 292 11,2 C 22,1 C 3,8 km/h (1 Bft)
09.08.2022 12:17 24,2 C 22,1 C 23,2 C 23,7 C 49 % 50 % 55 % 1030,1 hPa 0,0 l/m 1,4 km/h (1 Bft) W-NW 292 11,2 C 22,1 C 3,8 km/h (1 Bft)
09.08.2022 12:16 24,2 C 22,1 C 23,0 C 23,7 C 49 % 50 % 55 % 1030,4 hPa 0,0 l/m 1,4 km/h (1 Bft) N-NW 337 11,2 C 22,1 C 3,8 km/h (1 Bft)
09.08.2022 12:15 24,2 C 22,1 C 23,0 C 23,7 C 49 % 50 % 55 % 1030,4 hPa 0,0 l/m 1,4 km/h (1 Bft) N-NW 337 11,2 C 22,1 C 3,8 km/h (1 Bft)
09.08.2022 12:14 24,2 C 21,9 C 22,6 C 23,7 C 49 % 50 % 55 % 1030,4 hPa 0,0 l/m 1,3 km/h (1 Bft) W-NW 292 11,0 C 21,9 C 4,0 km/h (1 Bft)
09.08.2022 12:13 24,2 C 21,9 C 22,6 C 23,7 C 49 % 50 % 55 % 1030,4 hPa 0,0 l/m 1,3 km/h (1 Bft) W-NW 292 11,0 C 21,9 C 4,0 km/h (1 Bft)
09.08.2022 12:12 24,1 C 21,8 C 23,0 C 23,6 C 49 % 49 % 55 % 1030,4 hPa 0,0 l/m 1,3 km/h (1 Bft) SW 225 10,6 C 21,8 C 6,9 km/h (2 Bft)
09.08.2022 12:11 24,1 C 21,8 C 23,0 C 23,6 C 49 % 49 % 55 % 1030,4 hPa 0,0 l/m 1,3 km/h (1 Bft) SW 225 10,6 C 21,8 C 6,9 km/h (2 Bft)
09.08.2022 12:10 24,1 C 21,8 C 23,3 C 23,6 C 49 % 49 % 55 % 1030,4 hPa 0,0 l/m 1,3 km/h (1 Bft) S-SO 157 10,6 C 21,8 C 2,5 km/h (1 Bft)
09.08.2022 12:09 24,1 C 21,8 C 23,3 C 23,6 C 49 % 49 % 55 % 1030,4 hPa 0,0 l/m 1,3 km/h (1 Bft) S-SO 157 10,6 C 21,8 C 2,5 km/h (1 Bft)
09.08.2022 12:08 24,1 C 21,8 C 23,1 C 23,6 C 49 % 51 % 55 % 1030,4 hPa 0,0 l/m 0,8 km/h (0 Bft) N-NW 337 11,2 C 21,8 C 2,7 km/h (1 Bft)
09.08.2022 12:07 24,1 C 21,8 C 23,1 C 23,6 C 49 % 51 % 55 % 1030,4 hPa 0,0 l/m 0,8 km/h (0 Bft) N-NW 337 11,2 C 21,8 C 2,7 km/h (1 Bft)
09.08.2022 12:06 24,0 C 21,8 C 23,1 C 23,6 C 49 % 51 % 55 % 1030,4 hPa 0,0 l/m 0,8 km/h (0 Bft) N-NW 337 11,2 C 21,8 C 0,0 km/h (0 Bft)
09.08.2022 12:05 24,0 C 21,8 C 23,1 C 23,6 C 49 % 51 % 55 % 1030,4 hPa 0,0 l/m 0,8 km/h (0 Bft) N-NW 337 11,2 C 21,8 C 0,0 km/h (0 Bft)
09.08.2022 12:04 24,0 C 21,7 C 22,8 C 23,6 C 49 % 49 % 55 % 1030,4 hPa 0,0 l/m 1,0 km/h (0 Bft) SW 225 10,5 C 21,7 C 0,0 km/h (0 Bft)
09.08.2022 12:03 24,0 C 21,7 C 22,8 C 23,6 C 49 % 49 % 55 % 1030,4 hPa 0,0 l/m 1,0 km/h (0 Bft) SW 225 10,5 C 21,7 C 0,0 km/h (0 Bft)
09.08.2022 12:02 24,0 C 21,9 C 23,1 C 23,6 C 49 % 50 % 55 % 1030,4 hPa 0,0 l/m 1,1 km/h (1 Bft) O-NO 67 11,0 C 21,9 C 4,0 km/h (1 Bft)
09.08.2022 12:00 24,0 C 21,8 C 22,7 C 23,6 C 49 % 51 % 55 % 1030,4 hPa 0,0 l/m 1,0 km/h (0 Bft) N-NW 337 11,2 C 21,8 C 2,9 km/h (1 Bft)
09.08.2022 11:59 24,0 C 21,8 C 22,7 C 23,6 C 49 % 51 % 55 % 1030,4 hPa 0,0 l/m 1,0 km/h (0 Bft) N-NW 337 11,2 C 21,8 C 2,9 km/h (1 Bft)
09.08.2022 11:58 24,0 C 21,6 C 23,0 C 23,6 C 49 % 51 % 55 % 1030,4 hPa 0,0 l/m 1,3 km/h (1 Bft) O-NO 67 11,0 C 21,6 C 0,0 km/h (0 Bft)
09.08.2022 11:57 24,0 C 21,6 C 23,0 C 23,6 C 49 % 51 % 55 % 1030,4 hPa 0,0 l/m 1,3 km/h (1 Bft) O-NO 67 11,0 C 21,6 C 0,0 km/h (0 Bft)
09.08.2022 11:56 24,0 C 21,5 C 22,5 C 23,6 C 49 % 53 % 55 % 1030,2 hPa 0,0 l/m 1,6 km/h (1 Bft) O-NO 67 11,5 C 21,5 C 2,3 km/h (1 Bft)
09.08.2022 11:55 24,0 C 21,5 C 22,5 C 23,6 C 49 % 53 % 55 % 1030,2 hPa 0,0 l/m 1,6 km/h (1 Bft) O-NO 67 11,5 C 21,5 C 2,3 km/h (1 Bft)
09.08.2022 11:54 24,0 C 21,2 C 21,7 C 23,6 C 50 % 52 % 55 % 1030,2 hPa 0,0 l/m 1,4 km/h (1 Bft) S-SO 157 10,9 C 21,2 C 0,0 km/h (0 Bft)
09.08.2022 11:53 24,0 C 21,2 C 21,7 C 23,6 C 50 % 52 % 55 % 1030,2 hPa 0,0 l/m 1,4 km/h (1 Bft) S-SO 157 10,9 C 21,2 C 0,0 km/h (0 Bft)
09.08.2022 11:52 23,9 C 21,1 C 21,7 C 23,6 C 50 % 54 % 55 % 1030,2 hPa 0,0 l/m 1,4 km/h (1 Bft) S-SO 157 11,4 C 21,1 C 2,9 km/h (1 Bft)
09.08.2022 11:51 23,9 C 21,1 C 21,7 C 23,6 C 50 % 54 % 55 % 1030,2 hPa 0,0 l/m 1,4 km/h (1 Bft) S-SO 157 11,4 C 21,1 C 2,9 km/h (1 Bft)
09.08.2022 11:50 23,9 C 21,2 C 21,3 C 23,5 C 49 % 53 % 55 % 1030,2 hPa 0,0 l/m 1,4 km/h (1 Bft) W-NW 292 11,2 C 21,2 C 4,8 km/h (1 Bft)
09.08.2022 11:49 23,9 C 21,2 C 21,3 C 23,5 C 49 % 53 % 55 % 1030,2 hPa 0,0 l/m 1,4 km/h (1 Bft) W-NW 292 11,2 C 21,2 C 4,8 km/h (1 Bft)
09.08.2022 11:48 23,9 C 21,1 C 21,5 C 23,5 C 49 % 53 % 55 % 1030,2 hPa 0,0 l/m 1,1 km/h (1 Bft) NW 315 11,1 C 21,1 C 4,2 km/h (1 Bft)
09.08.2022 11:47 23,9 C 21,1 C 21,5 C 23,5 C 49 % 53 % 55 % 1030,2 hPa 0,0 l/m 1,1 km/h (1 Bft) NW 315 11,1 C 21,1 C 4,2 km/h (1 Bft)
09.08.2022 11:46 23,9 C 21,2 C 21,8 C 23,5 C 49 % 53 % 55 % 1030,2 hPa 0,0 l/m 1,0 km/h (0 Bft) SW 225 11,2 C 21,2 C 0,0 km/h (0 Bft)
09.08.2022 11:45 23,9 C 21,2 C 21,8 C 23,5 C 49 % 53 % 55 % 1030,2 hPa 0,0 l/m 1,0 km/h (0 Bft) SW 225 11,2 C 21,2 C 0,0 km/h (0 Bft)
09.08.2022 11:44 23,9 C 21,2 C 22,3 C 23,6 C 49 % 53 % 55 % 1030,2 hPa 0,0 l/m 1,0 km/h (0 Bft) SW 225 11,2 C 21,2 C 2,9 km/h (1 Bft)
09.08.2022 11:43 23,9 C 21,2 C 22,3 C 23,6 C 49 % 53 % 55 % 1030,2 hPa 0,0 l/m 1,0 km/h (0 Bft) SW 225 11,2 C 21,2 C 2,9 km/h (1 Bft)
09.08.2022 11:42 23,9 C 21,2 C 22,6 C 23,6 C 49 % 53 % 55 % 1030,2 hPa 0,0 l/m 1,0 km/h (0 Bft) SO 135 11,2 C 21,2 C 0,0 km/h (0 Bft)
09.08.2022 11:41 23,9 C 21,2 C 22,6 C 23,6 C 49 % 53 % 55 % 1030,2 hPa 0,0 l/m 1,0 km/h (0 Bft) SO 135 11,2 C 21,2 C 0,0 km/h (0 Bft)
09.08.2022 11:40 23,9 C 21,2 C 22,5 C 23,6 C 49 % 55 % 55 % 1030,2 hPa 0,0 l/m 0,8 km/h (0 Bft) SO 135 11,8 C 21,2 C 0,0 km/h (0 Bft)
09.08.2022 11:39 23,9 C 21,2 C 22,5 C 23,6 C 49 % 55 % 55 % 1030,2 hPa 0,0 l/m 0,8 km/h (0 Bft) SO 135 11,8 C 21,2 C 0,0 km/h (0 Bft)
09.08.2022 11:38 23,9 C 21,5 C 22,9 C 23,5 C 49 % 56 % 55 % 1030,2 hPa 0,0 l/m 1,0 km/h (0 Bft) SO 135 12,3 C 21,5 C 2,7 km/h (1 Bft)
09.08.2022 11:37 23,9 C 21,5 C 22,9 C 23,5 C 49 % 56 % 55 % 1030,2 hPa 0,0 l/m 1,0 km/h (0 Bft) SO 135 12,3 C 21,5 C 2,7 km/h (1 Bft)
09.08.2022 11:36 24,0 C 21,4 C 22,2 C 23,6 C 49 % 53 % 55 % 1030,3 hPa 0,0 l/m 0,8 km/h (0 Bft) NO 45 11,4 C 21,4 C 5,0 km/h (1 Bft)
09.08.2022 11:35 24,0 C 21,4 C 22,2 C 23,6 C 49 % 53 % 55 % 1030,3 hPa 0,0 l/m 0,8 km/h (0 Bft) NO 45 11,4 C 21,4 C 5,0 km/h (1 Bft)
09.08.2022 11:34 23,9 C 21,2 C 22,2 C 23,6 C 49 % 55 % 55 % 1030,3 hPa 0,0 l/m 1,3 km/h (1 Bft) N-NW 337 11,8 C 21,2 C 4,6 km/h (1 Bft)
09.08.2022 11:33 23,9 C 21,2 C 22,2 C 23,6 C 49 % 55 % 55 % 1030,3 hPa 0,0 l/m 1,3 km/h (1 Bft) N-NW 337 11,8 C 21,2 C 4,6 km/h (1 Bft)
09.08.2022 11:32 24,0 C 21,1 C 22,0 C 23,5 C 49 % 56 % 55 % 1030,3 hPa 0,0 l/m 1,8 km/h (1 Bft) N 360 12,0 C 21,1 C 0,0 km/h (0 Bft)
09.08.2022 11:31 24,0 C 21,1 C 22,0 C 23,5 C 49 % 56 % 55 % 1030,3 hPa 0,0 l/m 1,8 km/h (1 Bft) N 360 12,0 C 21,1 C 0,0 km/h (0 Bft)
09.08.2022 11:30 24,0 C 20,8 C 21,7 C 23,6 C 49 % 56 % 55 % 1030,3 hPa 0,0 l/m 2,1 km/h (1 Bft) NO 45 11,7 C 20,8 C 0,0 km/h (0 Bft)
09.08.2022 11:29 24,0 C 20,8 C 21,7 C 23,6 C 49 % 56 % 55 % 1030,3 hPa 0,0 l/m 2,1 km/h (1 Bft) NO 45 11,7 C 20,8 C 0,0 km/h (0 Bft)
09.08.2022 11:28 24,1 C 20,6 C 21,4 C 23,5 C 49 % 55 % 55 % 1030,3 hPa 0,0 l/m 1,9 km/h (1 Bft) NO 45 11,2 C 20,6 C 4,4 km/h (1 Bft)
09.08.2022 11:27 24,1 C 20,6 C 21,4 C 23,5 C 49 % 55 % 55 % 1030,3 hPa 0,0 l/m 1,9 km/h (1 Bft) NO 45 11,2 C 20,6 C 4,4 km/h (1 Bft)
09.08.2022 11:26 24,1 C 20,4 C 21,5 C 23,7 C 49 % 56 % 56 % 1030,3 hPa 0,0 l/m 2,1 km/h (1 Bft) N-NO 22 11,3 C 20,4 C 0,0 km/h (0 Bft)
09.08.2022 11:25 24,1 C 20,4 C 21,5 C 23,7 C 49 % 56 % 56 % 1030,3 hPa 0,0 l/m 2,1 km/h (1 Bft) N-NO 22 11,3 C 20,4 C 0,0 km/h (0 Bft)
09.08.2022 11:24 24,2 C 20,5 C 21,5 C 23,6 C 50 % 58 % 56 % 1030,3 hPa 0,0 l/m 2,7 km/h (1 Bft) S-SO 157 11,9 C 20,5 C 8,8 km/h (2 Bft)
09.08.2022 11:23 24,2 C 20,5 C 21,5 C 23,6 C 50 % 58 % 56 % 1030,3 hPa 0,0 l/m 2,7 km/h (1 Bft) S-SO 157 11,9 C 20,5 C 8,8 km/h (2 Bft)
09.08.2022 11:22 24,2 C 20,4 C 21,0 C 23,6 C 50 % 59 % 57 % 1030,3 hPa 0,0 l/m 2,6 km/h (1 Bft) S-SO 157 12,1 C 20,4 C 9,4 km/h (2 Bft)
09.08.2022 11:21 24,2 C 20,4 C 21,0 C 23,6 C 50 % 59 % 57 % 1030,3 hPa 0,0 l/m 2,6 km/h (1 Bft) S-SO 157 12,1 C 20,4 C 9,4 km/h (2 Bft)
09.08.2022 11:20 24,2 C 20,2 C 20,8 C 23,6 C 52 % 59 % 57 % 1030,3 hPa 0,0 l/m 2,3 km/h (1 Bft) SO 135 11,9 C 20,2 C 0,0 km/h (0 Bft)
09.08.2022 11:19 24,2 C 20,2 C 20,8 C 23,6 C 52 % 59 % 57 % 1030,3 hPa 0,0 l/m 2,3 km/h (1 Bft) SO 135 11,9 C 20,2 C 0,0 km/h (0 Bft)
09.08.2022 11:18 24,2 C 20,2 C 20,8 C 23,7 C 52 % 60 % 57 % 1030,3 hPa 0,0 l/m 2,7 km/h (1 Bft) S-SO 157 12,2 C 20,2 C 3,1 km/h (1 Bft)
09.08.2022 11:17 24,2 C 20,2 C 20,8 C 23,7 C 52 % 60 % 57 % 1030,3 hPa 0,0 l/m 2,7 km/h (1 Bft) S-SO 157 12,2 C 20,2 C 3,1 km/h (1 Bft)
09.08.2022 11:16 24,2 C 20,3 C 21,1 C 23,6 C 53 % 60 % 57 % 1030,4 hPa 0,0 l/m 3,1 km/h (1 Bft) S-SO 157 12,3 C 20,3 C 5,9 km/h (2 Bft)
09.08.2022 11:15 24,2 C 20,3 C 21,1 C 23,6 C 53 % 60 % 57 % 1030,4 hPa 0,0 l/m 3,1 km/h (1 Bft) S-SO 157 12,3 C 20,3 C 5,9 km/h (2 Bft)
09.08.2022 11:14 24,1 C 20,3 C 21,1 C 23,5 C 53 % 61 % 57 % 1030,4 hPa 0,0 l/m 3,1 km/h (1 Bft) SO 135 12,5 C 20,3 C 9,0 km/h (2 Bft)
09.08.2022 11:13 24,1 C 20,3 C 21,1 C 23,5 C 53 % 61 % 57 % 1030,4 hPa 0,0 l/m 3,1 km/h (1 Bft) SO 135 12,5 C 20,3 C 9,0 km/h (2 Bft)
09.08.2022 11:12 24,1 C 20,4 C 21,0 C 23,6 C 53 % 62 % 57 % 1030,4 hPa 0,0 l/m 3,2 km/h (1 Bft) SO 135 12,9 C 20,4 C 5,0 km/h (1 Bft)
09.08.2022 11:11 24,1 C 20,4 C 21,0 C 23,6 C 53 % 62 % 57 % 1030,4 hPa 0,0 l/m 3,2 km/h (1 Bft) SO 135 12,9 C 20,4 C 5,0 km/h (1 Bft)
09.08.2022 11:10 24,0 C 20,3 C 20,7 C 23,5 C 53 % 63 % 57 % 1030,4 hPa 0,0 l/m 3,2 km/h (1 Bft) S-SO 157 13,0 C 20,3 C 2,1 km/h (1 Bft)
09.08.2022 11:09 24,0 C 20,3 C 20,7 C 23,5 C 53 % 63 % 57 % 1030,4 hPa 0,0 l/m 3,2 km/h (1 Bft) S-SO 157 13,0 C 20,3 C 2,1 km/h (1 Bft)
09.08.2022 11:08 24,0 C 20,1 C 20,3 C 23,5 C 53 % 63 % 57 % 1030,4 hPa 0,0 l/m 3,7 km/h (1 Bft) S-SO 157 12,8 C 20,1 C 9,6 km/h (2 Bft)
09.08.2022 11:07 24,0 C 20,1 C 20,3 C 23,5 C 53 % 63 % 57 % 1030,4 hPa 0,0 l/m 3,7 km/h (1 Bft) S-SO 157 12,8 C 20,1 C 9,6 km/h (2 Bft)
09.08.2022 11:06 24,0 C 20,0 C 20,1 C 23,5 C 53 % 62 % 57 % 1030,4 hPa 0,0 l/m 3,4 km/h (1 Bft) S-SO 157 12,5 C 20,0 C 5,0 km/h (1 Bft)
09.08.2022 11:05 24,0 C 20,0 C 20,1 C 23,5 C 53 % 62 % 57 % 1030,4 hPa 0,0 l/m 3,4 km/h (1 Bft) S-SO 157 12,5 C 20,0 C 5,0 km/h (1 Bft)
09.08.2022 11:04 24,0 C 20,1 C 20,2 C 23,5 C 53 % 62 % 57 % 1030,4 hPa 0,0 l/m 4,0 km/h (1 Bft) O 90 12,6 C 20,1 C 5,9 km/h (2 Bft)
09.08.2022 11:03 24,0 C 20,1 C 20,2 C 23,5 C 53 % 62 % 57 % 1030,4 hPa 0,0 l/m 4,0 km/h (1 Bft) O 90 12,6 C 20,1 C 5,9 km/h (2 Bft)
09.08.2022 11:02 23,9 C 20,1 C 20,2 C 23,5 C 52 % 63 % 57 % 1030,4 hPa 0,0 l/m 3,7 km/h (1 Bft) SO 135 12,8 C 20,1 C 6,3 km/h (2 Bft)
09.08.2022 11:00 23,9 C 19,8 C 19,8 C 23,5 C 52 % 63 % 57 % 1030,4 hPa 0,0 l/m 3,1 km/h (1 Bft) O-SO 112 12,5 C 19,8 C 11,5 km/h (2 Bft)
09.08.2022 10:59 23,9 C 19,8 C 19,8 C 23,5 C 52 % 63 % 57 % 1030,4 hPa 0,0 l/m 3,1 km/h (1 Bft) O-SO 112 12,5 C 19,8 C 11,5 km/h (2 Bft)
09.08.2022 10:58 23,8 C 19,5 C 19,7 C 23,4 C 52 % 63 % 57 % 1030,4 hPa 0,0 l/m 2,7 km/h (1 Bft) SO 135 12,3 C 19,5 C 8,8 km/h (2 Bft)
09.08.2022 10:57 23,8 C 19,5 C 19,7 C 23,4 C 52 % 63 % 57 % 1030,4 hPa 0,0 l/m 2,7 km/h (1 Bft) SO 135 12,3 C 19,5 C 8,8 km/h (2 Bft)
09.08.2022 10:56 23,8 C 19,5 C 19,7 C 23,4 C 52 % 63 % 57 % 1030,6 hPa 0,0 l/m 2,7 km/h (1 Bft) O 90 12,3 C 19,5 C 2,1 km/h (1 Bft)
09.08.2022 10:55 23,8 C 19,5 C 19,7 C 23,4 C 52 % 63 % 57 % 1030,6 hPa 0,0 l/m 2,7 km/h (1 Bft) O 90 12,3 C 19,5 C 2,1 km/h (1 Bft)
09.08.2022 10:54 23,8 C 19,5 C 19,8 C 23,4 C 52 % 65 % 57 % 1030,6 hPa 0,0 l/m 2,7 km/h (1 Bft) S-SO 157 12,7 C 19,5 C 11,1 km/h (2 Bft)
09.08.2022 10:53 23,8 C 19,5 C 19,8 C 23,4 C 52 % 65 % 57 % 1030,6 hPa 0,0 l/m 2,7 km/h (1 Bft) S-SO 157 12,7 C 19,5 C 11,1 km/h (2 Bft)
09.08.2022 10:52 23,7 C 19,4 C 19,6 C 23,5 C 52 % 65 % 57 % 1030,6 hPa 0,0 l/m 2,4 km/h (1 Bft) SO 135 12,6 C 19,4 C 5,6 km/h (1 Bft)
09.08.2022 10:51 23,7 C 19,4 C 19,6 C 23,5 C 52 % 65 % 57 % 1030,6 hPa 0,0 l/m 2,4 km/h (1 Bft) SO 135 12,6 C 19,4 C 5,6 km/h (1 Bft)
09.08.2022 10:50 23,7 C 19,4 C 19,2 C 23,5 C 52 % 64 % 57 % 1030,6 hPa 0,0 l/m 2,7 km/h (1 Bft) S-SO 157 12,4 C 19,4 C 5,4 km/h (1 Bft)
09.08.2022 10:49 23,7 C 19,4 C 19,2 C 23,5 C 52 % 64 % 57 % 1030,6 hPa 0,0 l/m 2,7 km/h (1 Bft) S-SO 157 12,4 C 19,4 C 5,4 km/h (1 Bft)
09.08.2022 10:48 23,6 C 19,4 C 19,0 C 23,4 C 52 % 65 % 57 % 1030,6 hPa 0,0 l/m 3,1 km/h (1 Bft) N-NO 22 12,6 C 19,4 C 6,1 km/h (2 Bft)
09.08.2022 10:47 23,6 C 19,4 C 19,0 C 23,4 C 52 % 65 % 57 % 1030,6 hPa 0,0 l/m 3,1 km/h (1 Bft) N-NO 22 12,6 C 19,4 C 6,1 km/h (2 Bft)
09.08.2022 10:46 23,6 C 19,4 C 18,7 C 23,5 C 52 % 65 % 57 % 1030,6 hPa 0,0 l/m 3,2 km/h (1 Bft) SO 135 12,6 C 19,4 C 5,2 km/h (1 Bft)
09.08.2022 10:45 23,6 C 19,4 C 18,7 C 23,5 C 52 % 65 % 57 % 1030,6 hPa 0,0 l/m 3,2 km/h (1 Bft) SO 135 12,6 C 19,4 C 5,2 km/h (1 Bft)
09.08.2022 10:44 23,6 C 19,3 C 17,7 C 23,5 C 52 % 66 % 56 % 1030,6 hPa 0,0 l/m 3,4 km/h (1 Bft) SO 135 12,8 C 19,3 C 6,5 km/h (2 Bft)
09.08.2022 10:43 23,6 C 19,3 C 17,7 C 23,5 C 52 % 66 % 56 % 1030,6 hPa 0,0 l/m 3,4 km/h (1 Bft) SO 135 12,8 C 19,3 C 6,5 km/h (2 Bft)
09.08.2022 10:42 23,6 C 19,2 C 17,2 C 23,5 C 52 % 66 % 57 % 1030,6 hPa 0,0 l/m 3,5 km/h (1 Bft) O-SO 112 12,7 C 19,2 C 2,5 km/h (1 Bft)
09.08.2022 10:41 23,6 C 19,2 C 17,2 C 23,5 C 52 % 66 % 57 % 1030,6 hPa 0,0 l/m 3,5 km/h (1 Bft) O-SO 112 12,7 C 19,2 C 2,5 km/h (1 Bft)
09.08.2022 10:40 23,7 C 19,1 C 17,0 C 23,4 C 51 % 67 % 57 % 1030,6 hPa 0,0 l/m 3,9 km/h (1 Bft) SO 135 12,8 C 19,1 C 7,1 km/h (2 Bft)
09.08.2022 10:39 23,7 C 19,1 C 17,0 C 23,4 C 51 % 67 % 57 % 1030,6 hPa 0,0 l/m 3,9 km/h (1 Bft) SO 135 12,8 C 19,1 C 7,1 km/h (2 Bft)
09.08.2022 10:38 23,7 C 18,9 C 16,5 C 23,4 C 51 % 66 % 57 % 1030,6 hPa 0,0 l/m 4,2 km/h (1 Bft) O-SO 112 12,4 C 18,9 C 8,2 km/h (2 Bft)
09.08.2022 10:37 23,7 C 18,9 C 16,5 C 23,4 C 51 % 66 % 57 % 1030,6 hPa 0,0 l/m 4,2 km/h (1 Bft) O-SO 112 12,4 C 18,9 C 8,2 km/h (2 Bft)
09.08.2022 10:36 23,8 C 18,9 C 16,3 C 23,5 C 51 % 67 % 57 % 1030,6 hPa 0,0 l/m 4,0 km/h (1 Bft) O-SO 112 12,6 C 18,9 C 5,4 km/h (1 Bft)
09.08.2022 10:35 23,8 C 18,9 C 16,3 C 23,5 C 51 % 67 % 57 % 1030,6 hPa 0,0 l/m 4,0 km/h (1 Bft) O-SO 112 12,6 C 18,9 C 5,4 km/h (1 Bft)
09.08.2022 10:34 23,9 C 18,7 C 16,3 C 23,4 C 51 % 68 % 57 % 1030,6 hPa 0,0 l/m 4,2 km/h (1 Bft) S-SO 157 12,7 C 18,7 C 5,4 km/h (1 Bft)
09.08.2022 10:33 23,9 C 18,7 C 16,3 C 23,4 C 51 % 68 % 57 % 1030,6 hPa 0,0 l/m 4,2 km/h (1 Bft) S-SO 157 12,7 C 18,7 C 5,4 km/h (1 Bft)
09.08.2022 10:32 24,0 C 18,5 C 16,5 C 23,4 C 51 % 69 % 57 % 1030,6 hPa 0,0 l/m 4,0 km/h (1 Bft) S-SO 157 12,7 C 18,5 C 6,5 km/h (2 Bft)
09.08.2022 10:31 24,0 C 18,5 C 16,5 C 23,4 C 51 % 69 % 57 % 1030,6 hPa 0,0 l/m 4,0 km/h (1 Bft) S-SO 157 12,7 C 18,5 C 6,5 km/h (2 Bft)
09.08.2022 10:30 24,1 C 18,4 C 16,4 C 23,5 C 51 % 68 % 57 % 1030,6 hPa 0,0 l/m 4,0 km/h (1 Bft) O-NO 67 12,4 C 18,4 C 5,9 km/h (2 Bft)
09.08.2022 10:29 24,1 C 18,4 C 16,4 C 23,5 C 51 % 68 % 57 % 1030,6 hPa 0,0 l/m 4,0 km/h (1 Bft) O-NO 67 12,4 C 18,4 C 5,9 km/h (2 Bft)
09.08.2022 10:28 24,2 C 18,2 C 16,4 C 23,6 C 51 % 69 % 57 % 1030,6 hPa 0,0 l/m 4,0 km/h (1 Bft) SO 135 12,4 C 18,2 C 13,2 km/h (3 Bft)
09.08.2022 10:27 24,2 C 18,2 C 16,4 C 23,6 C 51 % 69 % 57 % 1030,6 hPa 0,0 l/m 4,0 km/h (1 Bft) SO 135 12,4 C 18,2 C 13,2 km/h (3 Bft)
09.08.2022 10:26 24,2 C 18,2 C 16,2 C 23,6 C 51 % 69 % 57 % 1030,6 hPa 0,0 l/m 4,0 km/h (1 Bft) O 90 12,4 C 18,2 C 7,7 km/h (2 Bft)
09.08.2022 10:25 24,2 C 18,2 C 16,2 C 23,6 C 51 % 69 % 57 % 1030,6 hPa 0,0 l/m 4,0 km/h (1 Bft) O 90 12,4 C 18,2 C 7,7 km/h (2 Bft)
09.08.2022 10:24 24,4 C 18,1 C 16,4 C 23,7 C 51 % 68 % 58 % 1030,6 hPa 0,0 l/m 4,0 km/h (1 Bft) O 90 12,1 C 18,1 C 9,4 km/h (2 Bft)
09.08.2022 10:23 24,4 C 18,1 C 16,4 C 23,7 C 51 % 68 % 58 % 1030,6 hPa 0,0 l/m 4,0 km/h (1 Bft) O 90 12,1 C 18,1 C 9,4 km/h (2 Bft)
09.08.2022 10:22 24,5 C 18,2 C 16,8 C 23,7 C 52 % 68 % 58 % 1030,6 hPa 0,0 l/m 4,2 km/h (1 Bft) O 90 12,2 C 18,2 C 5,2 km/h (1 Bft)
09.08.2022 10:21 24,5 C 18,2 C 16,8 C 23,7 C 52 % 68 % 58 % 1030,6 hPa 0,0 l/m 4,2 km/h (1 Bft) O 90 12,2 C 18,2 C 5,2 km/h (1 Bft)
09.08.2022 10:20 24,5 C 18,2 C 17,4 C 23,6 C 52 % 69 % 58 % 1030,6 hPa 0,0 l/m 4,2 km/h (1 Bft) O-SO 112 12,4 C 18,2 C 5,4 km/h (1 Bft)
09.08.2022 10:19 24,5 C 18,2 C 17,4 C 23,6 C 52 % 69 % 58 % 1030,6 hPa 0,0 l/m 4,2 km/h (1 Bft) O-SO 112 12,4 C 18,2 C 5,4 km/h (1 Bft)
09.08.2022 10:18 24,4 C 18,1 C 17,5 C 23,7 C 53 % 69 % 58 % 1030,6 hPa 0,0 l/m 3,9 km/h (1 Bft) S-SO 157 12,3 C 18,1 C 9,4 km/h (2 Bft)
09.08.2022 10:17 24,4 C 18,1 C 17,5 C 23,7 C 53 % 69 % 58 % 1030,6 hPa 0,0 l/m 3,9 km/h (1 Bft) S-SO 157 12,3 C 18,1 C 9,4 km/h (2 Bft)
09.08.2022 10:16 24,4 C 18,0 C 17,5 C 23,6 C 53 % 69 % 58 % 1030,7 hPa 0,0 l/m 4,0 km/h (1 Bft) SO 135 12,2 C 18,0 C 9,4 km/h (2 Bft)
09.08.2022 10:15 24,4 C 18,0 C 17,5 C 23,6 C 53 % 69 % 58 % 1030,7 hPa 0,0 l/m 4,0 km/h (1 Bft) SO 135 12,2 C 18,0 C 9,4 km/h (2 Bft)
09.08.2022 10:14 24,4 C 17,8 C 17,2 C 23,6 C 52 % 70 % 58 % 1030,7 hPa 0,0 l/m 3,9 km/h (1 Bft) O 90 12,3 C 17,8 C 6,3 km/h (2 Bft)
09.08.2022 10:13 24,4 C 17,8 C 17,2 C 23,6 C 52 % 70 % 58 % 1030,7 hPa 0,0 l/m 3,9 km/h (1 Bft) O 90 12,3 C 17,8 C 6,3 km/h (2 Bft)
09.08.2022 10:12 24,4 C 17,8 C 16,7 C 23,6 C 52 % 69 % 58 % 1030,7 hPa 0,0 l/m 3,9 km/h (1 Bft) O 90 12,0 C 17,8 C 9,0 km/h (2 Bft)
09.08.2022 10:11 24,4 C 17,8 C 16,7 C 23,6 C 52 % 69 % 58 % 1030,7 hPa 0,0 l/m 3,9 km/h (1 Bft) O 90 12,0 C 17,8 C 9,0 km/h (2 Bft)
09.08.2022 10:10 24,4 C 17,7 C 17,2 C 23,5 C 52 % 71 % 58 % 1030,7 hPa 0,0 l/m 4,2 km/h (1 Bft) S-SO 157 12,4 C 17,7 C 8,4 km/h (2 Bft)
09.08.2022 10:09 24,4 C 17,7 C 17,2 C 23,5 C 52 % 71 % 58 % 1030,7 hPa 0,0 l/m 4,2 km/h (1 Bft) S-SO 157 12,4 C 17,7 C 8,4 km/h (2 Bft)
09.08.2022 10:08 24,4 C 17,7 C 17,7 C 23,5 C 52 % 70 % 58 % 1030,7 hPa 0,0 l/m 4,0 km/h (1 Bft) SW 225 12,2 C 17,7 C 6,3 km/h (2 Bft)
09.08.2022 10:07 24,4 C 17,7 C 17,7 C 23,5 C 52 % 70 % 58 % 1030,7 hPa 0,0 l/m 4,0 km/h (1 Bft) SW 225 12,2 C 17,7 C 6,3 km/h (2 Bft)
09.08.2022 10:06 24,4 C 17,5 C 17,9 C 23,5 C 52 % 71 % 58 % 1030,7 hPa 0,0 l/m 4,2 km/h (1 Bft) S-SO 157 12,2 C 17,5 C 8,6 km/h (2 Bft)
09.08.2022 10:05 24,4 C 17,5 C 17,9 C 23,5 C 52 % 71 % 58 % 1030,7 hPa 0,0 l/m 4,2 km/h (1 Bft) S-SO 157 12,2 C 17,5 C 8,6 km/h (2 Bft)
09.08.2022 10:04 24,4 C 17,3 C 17,7 C 23,5 C 52 % 70 % 58 % 1030,7 hPa 0,0 l/m 3,7 km/h (1 Bft) O 90 11,8 C 17,3 C 6,7 km/h (2 Bft)
09.08.2022 10:03 24,4 C 17,3 C 17,7 C 23,5 C 52 % 70 % 58 % 1030,7 hPa 0,0 l/m 3,7 km/h (1 Bft) O 90 11,8 C 17,3 C 6,7 km/h (2 Bft)
09.08.2022 10:02 24,2 C 17,2 C 17,7 C 23,5 C 52 % 70 % 58 % 1030,7 hPa 0,0 l/m 3,9 km/h (1 Bft) SO 135 11,7 C 17,2 C 7,1 km/h (2 Bft)
09.08.2022 10:00 24,3 C 17,2 C 17,6 C 23,5 C 53 % 71 % 58 % 1030,7 hPa 0,0 l/m 3,7 km/h (1 Bft) O-SO 112 11,9 C 17,2 C 12,6 km/h (3 Bft)
09.08.2022 09:59 24,3 C 17,2 C 17,6 C 23,5 C 53 % 71 % 58 % 1030,7 hPa 0,0 l/m 3,7 km/h (1 Bft) O-SO 112 11,9 C 17,2 C 12,6 km/h (3 Bft)
09.08.2022 09:58 24,3 C 17,2 C 17,6 C 23,5 C 53 % 71 % 58 % 1030,7 hPa 0,0 l/m 3,1 km/h (1 Bft) W-NW 292 11,9 C 17,2 C 3,6 km/h (1 Bft)
09.08.2022 09:57 24,3 C 17,2 C 17,6 C 23,5 C 53 % 71 % 58 % 1030,7 hPa 0,0 l/m 3,1 km/h (1 Bft) W-NW 292 11,9 C 17,2 C 3,6 km/h (1 Bft)
09.08.2022 09:56 24,2 C 17,0 C 17,5 C 23,4 C 53 % 72 % 58 % 1030,7 hPa 0,0 l/m 3,2 km/h (1 Bft) SO 135 11,9 C 17,0 C 9,6 km/h (2 Bft)
09.08.2022 09:55 24,2 C 17,0 C 17,5 C 23,4 C 53 % 72 % 58 % 1030,7 hPa 0,0 l/m 3,2 km/h (1 Bft) SO 135 11,9 C 17,0 C 9,6 km/h (2 Bft)
09.08.2022 09:54 24,2 C 17,0 C 17,5 C 23,4 C 53 % 72 % 58 % 1030,7 hPa 0,0 l/m 3,2 km/h (1 Bft) S-SO 157 11,9 C 17,0 C 4,0 km/h (1 Bft)
09.08.2022 09:53 24,2 C 17,0 C 17,5 C 23,4 C 53 % 72 % 58 % 1030,7 hPa 0,0 l/m 3,2 km/h (1 Bft) S-SO 157 11,9 C 17,0 C 4,0 km/h (1 Bft)
09.08.2022 09:52 24,2 C 17,0 C 17,6 C 23,5 C 53 % 72 % 58 % 1030,7 hPa 0,0 l/m 3,4 km/h (1 Bft) O-SO 112 11,9 C 17,0 C 4,2 km/h (1 Bft)
09.08.2022 09:51 24,2 C 17,0 C 17,6 C 23,5 C 53 % 72 % 58 % 1030,7 hPa 0,0 l/m 3,4 km/h (1 Bft) O-SO 112 11,9 C 17,0 C 4,2 km/h (1 Bft)
09.08.2022 09:50 24,2 C 16,9 C 17,3 C 23,5 C 53 % 73 % 58 % 1030,7 hPa 0,0 l/m 3,7 km/h (1 Bft) SO 135 12,0 C 16,9 C 7,9 km/h (2 Bft)
09.08.2022 09:49 24,2 C 16,9 C 17,3 C 23,5 C 53 % 73 % 58 % 1030,7 hPa 0,0 l/m 3,7 km/h (1 Bft) SO 135 12,0 C 16,9 C 7,9 km/h (2 Bft)
09.08.2022 09:48 24,2 C 16,8 C 17,0 C 23,5 C 53 % 73 % 58 % 1030,7 hPa 0,0 l/m 3,9 km/h (1 Bft) O 90 11,9 C 16,8 C 3,1 km/h (1 Bft)
09.08.2022 09:47 24,2 C 16,8 C 17,0 C 23,5 C 53 % 73 % 58 % 1030,7 hPa 0,0 l/m 3,9 km/h (1 Bft) O 90 11,9 C 16,8 C 3,1 km/h (1 Bft)
09.08.2022 09:46 24,1 C 16,7 C 16,7 C 23,5 C 53 % 73 % 58 % 1030,7 hPa 0,0 l/m 3,9 km/h (1 Bft) N-NW 337 11,8 C 16,7 C 9,0 km/h (2 Bft)
09.08.2022 09:45 24,1 C 16,7 C 16,7 C 23,5 C 53 % 73 % 58 % 1030,7 hPa 0,0 l/m 3,9 km/h (1 Bft) N-NW 337 11,8 C 16,7 C 9,0 km/h (2 Bft)
09.08.2022 09:44 24,1 C 16,7 C 16,1 C 23,4 C 53 % 72 % 58 % 1030,7 hPa 0,0 l/m 3,9 km/h (1 Bft) W-SW 247 11,6 C 16,7 C 3,8 km/h (1 Bft)
09.08.2022 09:43 24,1 C 16,7 C 16,1 C 23,4 C 53 % 72 % 58 % 1030,7 hPa 0,0 l/m 3,9 km/h (1 Bft) W-SW 247 11,6 C 16,7 C 3,8 km/h (1 Bft)
09.08.2022 09:42 24,1 C 16,8 C 16,1 C 23,5 C 53 % 72 % 58 % 1030,7 hPa 0,0 l/m 3,7 km/h (1 Bft) O-NO 67 11,7 C 16,8 C 5,0 km/h (1 Bft)
09.08.2022 09:41 24,1 C 16,8 C 16,1 C 23,5 C 53 % 72 % 58 % 1030,7 hPa 0,0 l/m 3,7 km/h (1 Bft) O-NO 67 11,7 C 16,8 C 5,0 km/h (1 Bft)
09.08.2022 09:40 24,1 C 16,8 C 16,0 C 23,5 C 53 % 73 % 58 % 1030,7 hPa 0,0 l/m 4,0 km/h (1 Bft) SO 135 11,9 C 16,8 C 5,6 km/h (1 Bft)
09.08.2022 09:39 24,1 C 16,8 C 16,0 C 23,5 C 53 % 73 % 58 % 1030,7 hPa 0,0 l/m 4,0 km/h (1 Bft) SO 135 11,9 C 16,8 C 5,6 km/h (1 Bft)
09.08.2022 09:38 24,0 C 16,7 C 15,8 C 23,4 C 53 % 74 % 58 % 1030,7 hPa 0,0 l/m 4,0 km/h (1 Bft) SO 135 12,0 C 16,7 C 7,1 km/h (2 Bft)
09.08.2022 09:37 24,0 C 16,7 C 15,8 C 23,4 C 53 % 74 % 58 % 1030,7 hPa 0,0 l/m 4,0 km/h (1 Bft) SO 135 12,0 C 16,7 C 7,1 km/h (2 Bft)
09.08.2022 09:36 24,0 C 16,5 C 15,8 C 23,5 C 53 % 74 % 58 % 1030,7 hPa 0,0 l/m 4,3 km/h (1 Bft) SW 225 11,8 C 16,5 C 6,7 km/h (2 Bft)
09.08.2022 09:35 24,0 C 16,5 C 15,8 C 23,5 C 53 % 74 % 58 % 1030,7 hPa 0,0 l/m 4,3 km/h (1 Bft) SW 225 11,8 C 16,5 C 6,7 km/h (2 Bft)
09.08.2022 09:34 24,0 C 16,4 C 15,7 C 23,5 C 53 % 74 % 58 % 1030,7 hPa 0,0 l/m 4,3 km/h (1 Bft) O-SO 112 11,8 C 16,4 C 13,6 km/h (3 Bft)
09.08.2022 09:33 24,0 C 16,4 C 15,7 C 23,5 C 53 % 74 % 58 % 1030,7 hPa 0,0 l/m 4,3 km/h (1 Bft) O-SO 112 11,8 C 16,4 C 3,6 km/h (1 Bft)
09.08.2022 09:32 24,0 C 16,3 C 15,4 C 23,5 C 53 % 75 % 58 % 1030,7 hPa 0,0 l/m 4,7 km/h (1 Bft) O-NO 67 11,9 C 16,3 C 5,9 km/h (2 Bft)
09.08.2022 09:31 24,0 C 16,3 C 15,4 C 23,5 C 53 % 75 % 58 % 1030,7 hPa 0,0 l/m 4,7 km/h (1 Bft) O-NO 67 11,9 C 16,3 C 5,9 km/h (2 Bft)
09.08.2022 09:30 23,9 C 16,2 C 14,8 C 23,4 C 52 % 74 % 58 % 1030,7 hPa 0,0 l/m 4,8 km/h (1 Bft) O 90 11,6 C 16,2 C 10,3 km/h (2 Bft)
09.08.2022 09:29 23,9 C 16,2 C 14,8 C 23,4 C 52 % 74 % 58 % 1030,7 hPa 0,0 l/m 4,8 km/h (1 Bft) O 90 11,6 C 16,2 C 10,3 km/h (2 Bft)
09.08.2022 09:28 23,9 C 16,1 C 14,6 C 23,4 C 53 % 75 % 58 % 1030,7 hPa 0,0 l/m 4,3 km/h (1 Bft) S-SO 157 11,7 C 16,1 C 8,6 km/h (2 Bft)
09.08.2022 09:27 23,9 C 16,1 C 14,6 C 23,4 C 53 % 75 % 58 % 1030,7 hPa 0,0 l/m 4,3 km/h (1 Bft) S-SO 157 11,7 C 16,1 C 8,6 km/h (2 Bft)
09.08.2022 09:26 23,9 C 16,1 C 13,7 C 23,4 C 53 % 75 % 58 % 1030,7 hPa 0,0 l/m 3,9 km/h (1 Bft) O-SO 112 11,7 C 16,1 C 10,0 km/h (2 Bft)
09.08.2022 09:25 23,9 C 16,1 C 13,7 C 23,4 C 53 % 75 % 58 % 1030,7 hPa 0,0 l/m 3,9 km/h (1 Bft) O-SO 112 11,7 C 16,1 C 10,0 km/h (2 Bft)
09.08.2022 09:24 23,8 C 16,0 C 13,2 C 23,4 C 53 % 76 % 58 % 1030,7 hPa 0,0 l/m 3,5 km/h (1 Bft) S-SO 157 11,8 C 16,0 C 11,3 km/h (2 Bft)
09.08.2022 09:23 23,8 C 16,0 C 13,2 C 23,4 C 53 % 76 % 58 % 1030,7 hPa 0,0 l/m 3,5 km/h (1 Bft) S-SO 157 11,8 C 16,0 C 2,9 km/h (1 Bft)
09.08.2022 09:22 23,8 C 15,9 C 13,0 C 23,4 C 53 % 77 % 58 % 1030,7 hPa 0,0 l/m 3,5 km/h (1 Bft) O 90 11,9 C 15,9 C 10,9 km/h (2 Bft)
09.08.2022 09:21 23,8 C 15,9 C 13,0 C 23,4 C 53 % 77 % 58 % 1030,7 hPa 0,0 l/m 3,5 km/h (1 Bft) O 90 11,9 C 15,9 C 10,9 km/h (2 Bft)
09.08.2022 09:20 23,7 C 15,8 C 13,0 C 23,4 C 53 % 77 % 58 % 1030,7 hPa 0,0 l/m 3,1 km/h (1 Bft) S 180 11,8 C 15,8 C 10,7 km/h (2 Bft)
09.08.2022 09:19 23,7 C 15,8 C 13,0 C 23,4 C 53 % 77 % 58 % 1030,7 hPa 0,0 l/m 3,1 km/h (1 Bft) S 180 11,8 C 15,8 C 10,7 km/h (2 Bft)
09.08.2022 09:18 23,7 C 15,8 C 12,6 C 23,3 C 53 % 77 % 58 % 1030,7 hPa 0,0 l/m 3,4 km/h (1 Bft) NO 45 11,8 C 15,8 C 3,6 km/h (1 Bft)
09.08.2022 09:17 23,7 C 15,8 C 12,6 C 23,3 C 53 % 77 % 58 % 1030,7 hPa 0,0 l/m 3,4 km/h (1 Bft) NO 45 11,8 C 15,8 C 3,6 km/h (1 Bft)
09.08.2022 09:16 23,7 C 15,6 C 12,7 C 23,3 C 53 % 77 % 58 % 1030,7 hPa 0,0 l/m 3,4 km/h (1 Bft) O-NO 67 11,6 C 15,6 C 6,7 km/h (2 Bft)
09.08.2022 09:15 23,7 C 15,6 C 12,7 C 23,3 C 53 % 77 % 58 % 1030,7 hPa 0,0 l/m 3,4 km/h (1 Bft) O-NO 67 11,6 C 15,6 C 6,7 km/h (2 Bft)
09.08.2022 09:14 23,6 C 15,4 C 12,6 C 23,3 C 53 % 78 % 58 % 1030,7 hPa 0,0 l/m 3,7 km/h (1 Bft) O 90 11,6 C 15,4 C 5,0 km/h (1 Bft)
09.08.2022 09:13 23,6 C 15,4 C 12,6 C 23,3 C 53 % 78 % 58 % 1030,7 hPa 0,0 l/m 3,7 km/h (1 Bft) O 90 11,6 C 15,4 C 5,0 km/h (1 Bft)
09.08.2022 09:12 23,6 C 15,4 C 12,6 C 23,3 C 53 % 78 % 58 % 1030,7 hPa 0,0 l/m 4,0 km/h (1 Bft) SO 135 11,6 C 15,4 C 5,2 km/h (1 Bft)
09.08.2022 09:11 23,6 C 15,4 C 12,6 C 23,3 C 53 % 78 % 58 % 1030,7 hPa 0,0 l/m 4,0 km/h (1 Bft) SO 135 11,6 C 15,4 C 5,2 km/h (1 Bft)
09.08.2022 09:10 23,5 C 15,3 C 12,6 C 23,3 C 53 % 78 % 58 % 1030,7 hPa 0,0 l/m 4,0 km/h (1 Bft) SO 135 11,5 C 15,3 C 6,5 km/h (2 Bft)
09.08.2022 09:09 23,5 C 15,3 C 12,6 C 23,3 C 53 % 78 % 58 % 1030,7 hPa 0,0 l/m 4,0 km/h (1 Bft) SO 135 11,5 C 15,3 C 6,5 km/h (2 Bft)
09.08.2022 09:08 23,4 C 15,2 C 12,5 C 23,3 C 53 % 79 % 58 % 1030,7 hPa 0,0 l/m 3,9 km/h (1 Bft) SO 135 11,6 C 15,2 C 9,2 km/h (2 Bft)
09.08.2022 09:07 23,4 C 15,2 C 12,5 C 23,3 C 53 % 79 % 58 % 1030,7 hPa 0,0 l/m 3,9 km/h (1 Bft) SO 135 11,6 C 15,2 C 9,2 km/h (2 Bft)
09.08.2022 09:06 23,4 C 15,2 C 12,5 C 23,3 C 53 % 79 % 58 % 1030,7 hPa 0,0 l/m 3,5 km/h (1 Bft) S-SO 157 11,6 C 15,2 C 6,7 km/h (2 Bft)
09.08.2022 09:05 23,4 C 15,2 C 12,5 C 23,3 C 53 % 79 % 58 % 1030,7 hPa 0,0 l/m 3,5 km/h (1 Bft) S-SO 157 11,6 C 15,2 C 6,7 km/h (2 Bft)
09.08.2022 09:04 23,4 C 15,0 C 12,5 C 23,2 C 53 % 79 % 58 % 1030,7 hPa 0,0 l/m 3,5 km/h (1 Bft) O 90 11,4 C 15,0 C 8,4 km/h (2 Bft)
09.08.2022 09:03 23,4 C 15,0 C 12,5 C 23,2 C 53 % 79 % 58 % 1030,7 hPa 0,0 l/m 3,5 km/h (1 Bft) O 90 11,4 C 15,0 C 8,4 km/h (2 Bft)
09.08.2022 09:02 23,2 C 14,8 C 12,4 C 23,3 C 52 % 80 % 58 % 1030,7 hPa 0,0 l/m 3,2 km/h (1 Bft) O 90 11,4 C 14,8 C 6,5 km/h (2 Bft)
09.08.2022 09:00 23,2 C 14,8 C 12,3 C 23,2 C 52 % 80 % 58 % 1030,7 hPa 0,0 l/m 3,2 km/h (1 Bft) NO 45 11,4 C 14,8 C 7,3 km/h (2 Bft)
09.08.2022 08:59 23,2 C 14,8 C 12,3 C 23,2 C 52 % 80 % 58 % 1030,7 hPa 0,0 l/m 3,2 km/h (1 Bft) NO 45 11,4 C 14,8 C 7,3 km/h (2 Bft)
09.08.2022 08:58 23,4 C 14,7 C 12,3 C 23,2 C 52 % 80 % 58 % 1030,7 hPa 0,0 l/m 3,2 km/h (1 Bft) SO 135 11,3 C 14,7 C 8,8 km/h (2 Bft)
09.08.2022 08:57 23,4 C 14,7 C 12,3 C 23,2 C 52 % 80 % 58 % 1030,7 hPa 0,0 l/m 3,2 km/h (1 Bft) SO 135 11,3 C 14,7 C 8,8 km/h (2 Bft)
09.08.2022 08:56 23,4 C 14,7 C 12,4 C 23,3 C 52 % 80 % 58 % 1030,4 hPa 0,0 l/m 3,4 km/h (1 Bft) O-NO 67 11,3 C 14,7 C 4,0 km/h (1 Bft)
09.08.2022 08:55 23,4 C 14,7 C 12,4 C 23,3 C 52 % 80 % 58 % 1030,4 hPa 0,0 l/m 3,4 km/h (1 Bft) O-NO 67 11,3 C 14,7 C 4,0 km/h (1 Bft)
09.08.2022 08:54 23,5 C 14,6 C 12,4 C 23,3 C 51 % 81 % 58 % 1030,4 hPa 0,0 l/m 3,2 km/h (1 Bft) NO 45 11,4 C 14,6 C 10,0 km/h (2 Bft)
09.08.2022 08:53 23,5 C 14,6 C 12,4 C 23,3 C 51 % 81 % 58 % 1030,4 hPa 0,0 l/m 3,2 km/h (1 Bft) NO 45 11,4 C 14,6 C 8,2 km/h (2 Bft)
09.08.2022 08:52 23,6 C 14,5 C 12,3 C 23,3 C 51 % 81 % 58 % 1030,4 hPa 0,0 l/m 3,1 km/h (1 Bft) O 90 11,3 C 14,5 C 8,2 km/h (2 Bft)
09.08.2022 08:51 23,6 C 14,5 C 12,3 C 23,3 C 51 % 81 % 58 % 1030,4 hPa 0,0 l/m 3,1 km/h (1 Bft) O 90 11,3 C 14,5 C 8,2 km/h (2 Bft)
09.08.2022 08:50 23,6 C 14,4 C 12,2 C 23,3 C 51 % 81 % 58 % 1030,4 hPa 0,0 l/m 2,9 km/h (1 Bft) O-SO 112 11,2 C 14,4 C 5,0 km/h (1 Bft)
09.08.2022 08:49 23,6 C 14,4 C 12,2 C 23,3 C 51 % 81 % 58 % 1030,4 hPa 0,0 l/m 2,9 km/h (1 Bft) O-SO 112 11,2 C 14,4 C 5,0 km/h (1 Bft)
09.08.2022 08:48 23,7 C 14,4 C 12,2 C 23,3 C 51 % 82 % 58 % 1030,4 hPa 0,0 l/m 2,4 km/h (1 Bft) NO 45 11,4 C 14,4 C 10,0 km/h (2 Bft)
09.08.2022 08:47 23,7 C 14,4 C 12,2 C 23,3 C 51 % 82 % 58 % 1030,4 hPa 0,0 l/m 2,4 km/h (1 Bft) NO 45 11,4 C 14,4 C 10,0 km/h (2 Bft)
09.08.2022 08:46 23,8 C 14,2 C 12,2 C 23,4 C 51 % 82 % 59 % 1030,4 hPa 0,0 l/m 1,6 km/h (1 Bft) SO 135 11,2 C 14,2 C 6,9 km/h (2 Bft)
09.08.2022 08:45 23,8 C 14,2 C 12,2 C 23,4 C 51 % 82 % 59 % 1030,4 hPa 0,0 l/m 1,6 km/h (1 Bft) SO 135 11,2 C 14,2 C 6,9 km/h (2 Bft)
09.08.2022 08:44 23,9 C 14,1 C 12,1 C 23,4 C 51 % 83 % 59 % 1030,4 hPa 0,0 l/m 1,1 km/h (1 Bft) O-NO 67 11,3 C 14,1 C 3,6 km/h (1 Bft)
09.08.2022 08:43 23,9 C 14,1 C 12,1 C 23,4 C 51 % 83 % 59 % 1030,4 hPa 0,0 l/m 1,1 km/h (1 Bft) O-NO 67 11,3 C 14,1 C 3,6 km/h (1 Bft)
09.08.2022 08:42 24,0 C 14,1 C 12,2 C 23,4 C 51 % 83 % 59 % 1030,4 hPa 0,0 l/m 1,3 km/h (1 Bft) O-NO 67 11,3 C 14,1 C 3,8 km/h (1 Bft)
09.08.2022 08:41 24,0 C 14,1 C 12,2 C 23,4 C 51 % 83 % 59 % 1030,4 hPa 0,0 l/m 1,3 km/h (1 Bft) O-NO 67 11,3 C 14,1 C 3,8 km/h (1 Bft)
09.08.2022 08:40 24,0 C 14,1 C 12,1 C 23,4 C 51 % 84 % 59 % 1030,4 hPa 0,0 l/m 1,1 km/h (1 Bft) S-SO 157 11,4 C 14,1 C 3,1 km/h (1 Bft)
09.08.2022 08:39 24,0 C 14,1 C 12,1 C 23,4 C 51 % 84 % 59 % 1030,4 hPa 0,0 l/m 1,1 km/h (1 Bft) S-SO 157 11,4 C 14,1 C 3,1 km/h (1 Bft)
09.08.2022 08:38 24,1 C 13,9 C 12,0 C 23,5 C 51 % 84 % 59 % 1030,4 hPa 0,0 l/m 1,1 km/h (1 Bft) NO 45 11,2 C 13,9 C 0,0 km/h (0 Bft)
09.08.2022 08:37 24,1 C 13,9 C 12,0 C 23,5 C 51 % 84 % 59 % 1030,4 hPa 0,0 l/m 1,1 km/h (1 Bft) NO 45 11,2 C 13,9 C 0,0 km/h (0 Bft)
09.08.2022 08:36 24,2 C 13,6 C 11,9 C 23,5 C 51 % 85 % 59 % 1030,2 hPa 0,0 l/m 1,6 km/h (1 Bft) S-SO 157 11,1 C 13,6 C 0,0 km/h (0 Bft)
09.08.2022 08:35 24,2 C 13,6 C 11,9 C 23,5 C 51 % 85 % 59 % 1030,2 hPa 0,0 l/m 1,6 km/h (1 Bft) S-SO 157 11,1 C 13,6 C 0,0 km/h (0 Bft)
09.08.2022 08:34 24,2 C 13,5 C 11,9 C 23,5 C 51 % 85 % 60 % 1030,2 hPa 0,0 l/m 1,8 km/h (1 Bft) SO 135 11,0 C 13,5 C 9,0 km/h (2 Bft)
09.08.2022 08:33 24,2 C 13,5 C 11,9 C 23,5 C 51 % 85 % 60 % 1030,2 hPa 0,0 l/m 1,8 km/h (1 Bft) SO 135 11,0 C 13,5 C 2,3 km/h (1 Bft)
09.08.2022 08:32 24,4 C 13,4 C 11,9 C 23,5 C 50 % 86 % 60 % 1030,2 hPa 0,0 l/m 1,6 km/h (1 Bft) O 90 11,1 C 13,4 C 2,1 km/h (1 Bft)
09.08.2022 08:31 24,4 C 13,4 C 11,9 C 23,5 C 50 % 86 % 60 % 1030,2 hPa 0,0 l/m 1,6 km/h (1 Bft) O 90 11,1 C 13,4 C 2,1 km/h (1 Bft)
09.08.2022 08:30 24,6 C 13,3 C 11,9 C 23,4 C 50 % 86 % 60 % 1030,2 hPa 0,0 l/m 1,4 km/h (1 Bft) O 90 11,0 C 13,3 C 3,3 km/h (1 Bft)
09.08.2022 08:29 24,6 C 13,3 C 11,9 C 23,4 C 50 % 86 % 60 % 1030,2 hPa 0,0 l/m 1,4 km/h (1 Bft) O 90 11,0 C 13,3 C 3,3 km/h (1 Bft)
09.08.2022 08:28 24,7 C 13,2 C 11,9 C 23,4 C 50 % 86 % 61 % 1030,2 hPa 0,0 l/m 1,3 km/h (1 Bft) SO 135 10,9 C 13,2 C 2,3 km/h (1 Bft)
09.08.2022 08:27 24,7 C 13,2 C 11,9 C 23,4 C 50 % 86 % 61 % 1030,2 hPa 0,0 l/m 1,3 km/h (1 Bft) SO 135 10,9 C 13,2 C 2,3 km/h (1 Bft)
09.08.2022 08:26 24,8 C 13,1 C 11,7 C 23,5 C 51 % 87 % 61 % 1030,2 hPa 0,0 l/m 1,0 km/h (0 Bft) S 180 11,0 C 13,1 C 4,6 km/h (1 Bft)
09.08.2022 08:25 24,8 C 13,1 C 11,7 C 23,5 C 51 % 87 % 61 % 1030,2 hPa 0,0 l/m 1,0 km/h (0 Bft) S 180 11,0 C 13,1 C 4,6 km/h (1 Bft)
09.08.2022 08:24 24,9 C 13,1 C 11,6 C 23,4 C 51 % 87 % 61 % 1030,2 hPa 0,0 l/m 0,8 km/h (0 Bft) SO 135 11,0 C 13,1 C 4,6 km/h (1 Bft)
09.08.2022 08:23 24,9 C 13,1 C 11,6 C 23,4 C 51 % 87 % 61 % 1030,2 hPa 0,0 l/m 0,8 km/h (0 Bft) SO 135 11,0 C 13,1 C 4,6 km/h (1 Bft)
09.08.2022 08:22 25,0 C 13,0 C 11,5 C 23,5 C 51 % 87 % 61 % 1030,2 hPa 0,0 l/m 0,5 km/h (0 Bft) SO 135 10,9 C 13,0 C 4,8 km/h (1 Bft)
09.08.2022 08:21 25,0 C 13,0 C 11,5 C 23,5 C 51 % 87 % 61 % 1030,2 hPa 0,0 l/m 0,5 km/h (0 Bft) SO 135 10,9 C 13,0 C 4,8 km/h (1 Bft)
09.08.2022 08:20 25,1 C 12,8 C 11,5 C 23,5 C 51 % 88 % 62 % 1030,2 hPa 0,0 l/m 0,2 km/h (0 Bft) SO 135 10,9 C 12,8 C 0,0 km/h (0 Bft)
09.08.2022 08:19 25,1 C 12,8 C 11,5 C 23,5 C 51 % 88 % 62 % 1030,2 hPa 0,0 l/m 0,2 km/h (0 Bft) SO 135 10,9 C 12,8 C 0,0 km/h (0 Bft)
09.08.2022 08:18 25,2 C 12,5 C 11,5 C 23,5 C 51 % 88 % 62 % 1030,2 hPa 0,0 l/m 0,2 km/h (0 Bft) O-NO 67 10,6 C 12,5 C 0,0 km/h (0 Bft)
09.08.2022 08:17 25,2 C 12,5 C 11,5 C 23,5 C 51 % 88 % 62 % 1030,2 hPa 0,0 l/m 0,2 km/h (0 Bft) O-NO 67 10,6 C 12,5 C 0,0 km/h (0 Bft)
09.08.2022 08:16 25,3 C 12,2 C 11,5 C 23,3 C 52 % 88 % 62 % 1030,2 hPa 0,0 l/m 0,0 km/h (0 Bft) SO 135 10,3 C 12,2 C 0,0 km/h (0 Bft)
09.08.2022 08:15 25,3 C 12,2 C 11,5 C 23,3 C 52 % 88 % 62 % 1030,2 hPa 0,0 l/m 0,0 km/h (0 Bft) SO 135 10,3 C 12,2 C 0,0 km/h (0 Bft)
09.08.2022 08:14 25,2 C 12,0 C 11,2 C 23,3 C 53 % 88 % 63 % 1030,2 hPa 0,0 l/m 0,0 km/h (0 Bft) O-NO 67 10,1 C 12,0 C 0,0 km/h (0 Bft)
09.08.2022 08:13 25,2 C 12,0 C 11,2 C 23,3 C 53 % 88 % 63 % 1030,2 hPa 0,0 l/m 0,0 km/h (0 Bft) O-NO 67 10,1 C 12,0 C 0,0 km/h (0 Bft)
09.08.2022 08:12 25,2 C 11,8 C 11,1 C 23,3 C 54 % 88 % 62 % 1030,2 hPa 0,0 l/m 0,0 km/h (0 Bft) NO 45 9,9 C 11,8 C 0,0 km/h (0 Bft)
09.08.2022 08:11 25,2 C 11,8 C 11,1 C 23,3 C 54 % 88 % 62 % 1030,2 hPa 0,0 l/m 0,0 km/h (0 Bft) NO 45 9,9 C 11,8 C 0,0 km/h (0 Bft)
09.08.2022 08:10 25,2 C 11,7 C 10,9 C 23,3 C 53 % 88 % 62 % 1030,2 hPa 0,0 l/m 0,0 km/h (0 Bft) N-NW 337 9,8 C 11,7 C 0,0 km/h (0 Bft)
09.08.2022 08:09 25,2 C 11,7 C 10,9 C 23,3 C 53 % 88 % 62 % 1030,2 hPa 0,0 l/m 0,0 km/h (0 Bft) N-NW 337 9,8 C 11,7 C 0,0 km/h (0 Bft)
09.08.2022 08:08 25,2 C 11,5 C 10,8 C 23,3 C 53 % 88 % 62 % 1030,2 hPa 0,0 l/m 0,0 km/h (0 Bft) N-NO 22 9,6 C 11,5 C 0,0 km/h (0 Bft)
09.08.2022 08:07 25,2 C 11,5 C 10,8 C 23,3 C 53 % 88 % 62 % 1030,2 hPa 0,0 l/m 0,0 km/h (0 Bft) N-NO 22 9,6 C 11,5 C 0,0 km/h (0 Bft)
09.08.2022 08:06 25,2 C 11,3 C 10,7 C 23,3 C 53 % 88 % 62 % 1030,2 hPa 0,0 l/m 0,0 km/h (0 Bft) N 360 9,4 C 11,3 C 0,0 km/h (0 Bft)
09.08.2022 08:05 25,2 C 11,3 C 10,7 C 23,3 C 53 % 88 % 62 % 1030,2 hPa 0,0 l/m 0,0 km/h (0 Bft) N 360 9,4 C 11,3 C 0,0 km/h (0 Bft)
09.08.2022 08:04 25,3 C 11,1 C 10,7 C 23,3 C 53 % 88 % 62 % 1030,2 hPa 0,0 l/m 0,0 km/h (0 Bft) N-NO 22 9,2 C 11,1 C 0,0 km/h (0 Bft)
09.08.2022 08:03 25,3 C 11,1 C 10,7 C 23,3 C 53 % 88 % 62 % 1030,2 hPa 0,0 l/m 0,0 km/h (0 Bft) N-NO 22 9,2 C 11,1 C 0,0 km/h (0 Bft)
09.08.2022 08:02 25,3 C 11,0 C 10,7 C 23,2 C 53 % 88 % 62 % 1030,2 hPa 0,0 l/m 0,0 km/h (0 Bft) N-NO 22 9,1 C 11,0 C 0,0 km/h (0 Bft)
09.08.2022 08:00 25,3 C 10,9 C 10,6 C 23,3 C 53 % 88 % 62 % 1030,2 hPa 0,0 l/m 0,0 km/h (0 Bft) N-NO 22 9,0 C 10,9 C 0,0 km/h (0 Bft)
09.08.2022 07:59 25,3 C 10,9 C 10,6 C 23,3 C 53 % 88 % 62 % 1030,2 hPa 0,0 l/m 0,0 km/h (0 Bft) N-NO 22 9,0 C 10,9 C 0,0 km/h (0 Bft)
09.08.2022 07:58 25,3 C 10,7 C 10,5 C 23,2 C 53 % 88 % 62 % 1030,2 hPa 0,0 l/m 0,0 km/h (0 Bft) N-NO 22 8,8 C 10,7 C 0,0 km/h (0 Bft)
09.08.2022 07:57 25,3 C 10,7 C 10,5 C 23,2 C 53 % 88 % 62 % 1030,2 hPa 0,0 l/m 0,0 km/h (0 Bft) N-NO 22 8,8 C 10,7 C 0,0 km/h (0 Bft)
09.08.2022 07:56 25,3 C 10,6 C 10,5 C 23,3 C 53 % 88 % 62 % 1030,2 hPa 0,0 l/m 0,0 km/h (0 Bft) N-NO 22 8,7 C 10,6 C 0,0 km/h (0 Bft)
09.08.2022 07:55 25,3 C 10,6 C 10,5 C 23,3 C 53 % 88 % 62 % 1030,2 hPa 0,0 l/m 0,0 km/h (0 Bft) N-NO 22 8,7 C 10,6 C 0,0 km/h (0 Bft)
09.08.2022 07:54 25,3 C 10,5 C 10,2 C 23,3 C 53 % 88 % 62 % 1030,2 hPa 0,0 l/m 0,0 km/h (0 Bft) N-NO 22 8,6 C 10,5 C 0,0 km/h (0 Bft)
09.08.2022 07:53 25,3 C 10,5 C 10,2 C 23,3 C 53 % 88 % 62 % 1030,2 hPa 0,0 l/m 0,0 km/h (0 Bft) N-NO 22 8,6 C 10,5 C 0,0 km/h (0 Bft)
09.08.2022 07:52 25,3 C 10,4 C 10,1 C 23,2 C 53 % 88 % 62 % 1030,2 hPa 0,0 l/m 0,0 km/h (0 Bft) O-NO 67 8,5 C 10,4 C 0,0 km/h (0 Bft)
09.08.2022 07:51 25,3 C 10,4 C 10,1 C 23,2 C 53 % 88 % 62 % 1030,2 hPa 0,0 l/m 0,0 km/h (0 Bft) O-NO 67 8,5 C 10,4 C 0,0 km/h (0 Bft)
09.08.2022 07:50 25,3 C 10,3 C 10,2 C 23,2 C 53 % 88 % 62 % 1030,2 hPa 0,0 l/m 0,0 km/h (0 Bft) O-NO 67 8,4 C 10,3 C 0,0 km/h (0 Bft)
09.08.2022 07:49 25,3 C 10,3 C 10,2 C 23,2 C 53 % 88 % 62 % 1030,2 hPa 0,0 l/m 0,0 km/h (0 Bft) O-NO 67 8,4 C 10,3 C 0,0 km/h (0 Bft)
09.08.2022 07:48 25,3 C 10,2 C 9,8 C 23,3 C 53 % 88 % 62 % 1030,2 hPa 0,0 l/m 0,0 km/h (0 Bft) NO 45 8,3 C 10,2 C 0,0 km/h (0 Bft)
09.08.2022 07:47 25,3 C 10,2 C 9,8 C 23,3 C 53 % 88 % 62 % 1030,2 hPa 0,0 l/m 0,0 km/h (0 Bft) NO 45 8,3 C 10,2 C 0,0 km/h (0 Bft)
09.08.2022 07:46 25,2 C 10,1 C 9,7 C 23,2 C 54 % 88 % 62 % 1030,2 hPa 0,0 l/m 0,0 km/h (0 Bft) O-NO 67 8,2 C 10,1 C 0,0 km/h (0 Bft)
09.08.2022 07:45 25,2 C 10,1 C 9,7 C 23,2 C 54 % 88 % 62 % 1030,2 hPa 0,0 l/m 0,0 km/h (0 Bft) O-NO 67 8,2 C 10,1 C 0,0 km/h (0 Bft)
09.08.2022 07:44 25,3 C 10,0 C 9,6 C 23,2 C 54 % 88 % 62 % 1030,2 hPa 0,0 l/m 0,0 km/h (0 Bft) O-NO 67 8,1 C 10,0 C 0,0 km/h (0 Bft)
09.08.2022 07:43 25,3 C 10,0 C 9,6 C 23,2 C 54 % 88 % 62 % 1030,2 hPa 0,0 l/m 0,0 km/h (0 Bft) O-NO 67 8,1 C 10,0 C 0,0 km/h (0 Bft)
09.08.2022 07:42 25,3 C 9,9 C 9,6 C 23,2 C 54 % 88 % 62 % 1030,2 hPa 0,0 l/m 0,0 km/h (0 Bft) O-NO 67 8,0 C 9,9 C 0,0 km/h (0 Bft)
09.08.2022 07:41 25,3 C 9,9 C 9,6 C 23,2 C 54 % 88 % 62 % 1030,2 hPa 0,0 l/m 0,0 km/h (0 Bft) O-NO 67 8,0 C 9,9 C 0,0 km/h (0 Bft)
09.08.2022 07:40 25,3 C 9,8 C 9,5 C 23,2 C 54 % 88 % 62 % 1030,2 hPa 0,0 l/m 0,0 km/h (0 Bft) NO 45 7,9 C 9,8 C 0,0 km/h (0 Bft)
09.08.2022 07:39 25,3 C 9,8 C 9,5 C 23,2 C 54 % 88 % 62 % 1030,2 hPa 0,0 l/m 0,0 km/h (0 Bft) NO 45 7,9 C 9,8 C 0,0 km/h (0 Bft)
09.08.2022 07:38 25,3 C 9,8 C 9,4 C 23,2 C 54 % 88 % 62 % 1030,2 hPa 0,0 l/m 0,0 km/h (0 Bft) O-NO 67 7,9 C 9,8 C 0,0 km/h (0 Bft)
09.08.2022 07:37 25,3 C 9,8 C 9,4 C 23,2 C 54 % 88 % 62 % 1030,2 hPa 0,0 l/m 0,0 km/h (0 Bft) O-NO 67 7,9 C 9,8 C 0,0 km/h (0 Bft)
09.08.2022 07:36 25,3 C 9,7 C 9,3 C 23,2 C 54 % 88 % 62 % 1030,2 hPa 0,0 l/m 0,0 km/h (0 Bft) O-NO 67 7,8 C 9,7 C 0,0 km/h (0 Bft)
09.08.2022 07:35 25,3 C 9,7 C 9,3 C 23,2 C 54 % 88 % 62 % 1030,2 hPa 0,0 l/m 0,0 km/h (0 Bft) O-NO 67 7,8 C 9,7 C 0,0 km/h (0 Bft)
09.08.2022 07:34 25,3 C 9,6 C 9,2 C 23,3 C 54 % 88 % 62 % 1030,2 hPa 0,0 l/m 0,0 km/h (0 Bft) O-NO 67 7,7 C 9,6 C 0,0 km/h (0 Bft)
09.08.2022 07:33 25,3 C 9,6 C 9,2 C 23,3 C 54 % 88 % 62 % 1030,2 hPa 0,0 l/m 0,0 km/h (0 Bft) O-NO 67 7,7 C 9,6 C 0,0 km/h (0 Bft)
09.08.2022 07:32 25,3 C 9,6 C 9,2 C 23,2 C 54 % 88 % 62 % 1030,2 hPa 0,0 l/m 0,0 km/h (0 Bft) O-NO 67 7,7 C 9,6 C 0,0 km/h (0 Bft)
09.08.2022 07:31 25,3 C 9,6 C 9,2 C 23,2 C 54 % 88 % 62 % 1030,2 hPa 0,0 l/m 0,0 km/h (0 Bft) O-NO 67 7,7 C 9,6 C 0,0 km/h (0 Bft)
09.08.2022 07:30 25,2 C 9,5 C 9,1 C 23,2 C 54 % 88 % 62 % 1030,2 hPa 0,0 l/m 0,0 km/h (0 Bft) N-NO 22 7,6 C 9,5 C 0,0 km/h (0 Bft)
09.08.2022 07:29 25,2 C 9,5 C 9,1 C 23,2 C 54 % 88 % 62 % 1030,2 hPa 0,0 l/m 0,0 km/h (0 Bft) N-NO 22 7,6 C 9,5 C 0,0 km/h (0 Bft)
09.08.2022 07:28 25,2 C 9,4 C 9,2 C 23,3 C 54 % 88 % 62 % 1030,2 hPa 0,0 l/m 0,0 km/h (0 Bft) O 90 7,5 C 9,4 C 0,0 km/h (0 Bft)
09.08.2022 07:27 25,2 C 9,4 C 9,2 C 23,3 C 54 % 88 % 62 % 1030,2 hPa 0,0 l/m 0,0 km/h (0 Bft) O 90 7,5 C 9,4 C 0,0 km/h (0 Bft)
09.08.2022 07:26 25,3 C 9,4 C 9,1 C 23,3 C 54 % 88 % 62 % 1030,2 hPa 0,0 l/m 0,0 km/h (0 Bft) O 90 7,5 C 9,4 C 0,0 km/h (0 Bft)
09.08.2022 07:25 25,3 C 9,4 C 9,1 C 23,3 C 54 % 88 % 62 % 1030,2 hPa 0,0 l/m 0,0 km/h (0 Bft) O 90 7,5 C 9,4 C 0,0 km/h (0 Bft)
09.08.2022 07:24 25,3 C 9,3 C 8,9 C 23,2 C 54 % 88 % 62 % 1030,2 hPa 0,0 l/m 0,0 km/h (0 Bft) O 90 7,4 C 9,3 C 0,0 km/h (0 Bft)
09.08.2022 07:23 25,3 C 9,3 C 8,9 C 23,2 C 54 % 88 % 62 % 1030,2 hPa 0,0 l/m 0,0 km/h (0 Bft) O 90 7,4 C 9,3 C 0,0 km/h (0 Bft)
09.08.2022 07:22 25,3 C 9,3 C 8,8 C 23,3 C 54 % 88 % 62 % 1030,2 hPa 0,0 l/m 0,0 km/h (0 Bft) O 90 7,4 C 9,3 C 0,0 km/h (0 Bft)
09.08.2022 07:21 25,3 C 9,3 C 8,8 C 23,3 C 54 % 88 % 62 % 1030,2 hPa 0,0 l/m 0,0 km/h (0 Bft) O 90 7,4 C 9,3 C 0,0 km/h (0 Bft)
09.08.2022 07:20 25,2 C 9,2 C 9,0 C 23,2 C 54 % 88 % 62 % 1030,2 hPa 0,0 l/m 0,0 km/h (0 Bft) O 90 7,3 C 9,2 C 0,0 km/h (0 Bft)
09.08.2022 07:19 25,2 C 9,2 C 9,0 C 23,2 C 54 % 88 % 62 % 1030,2 hPa 0,0 l/m 0,0 km/h (0 Bft) O 90 7,3 C 9,2 C 0,0 km/h (0 Bft)
09.08.2022 07:18 25,2 C 9,2 C 8,7 C 23,2 C 54 % 88 % 62 % 1030,2 hPa 0,0 l/m 0,0 km/h (0 Bft) O 90 7,3 C 9,2 C 0,0 km/h (0 Bft)
09.08.2022 07:17 25,2 C 9,2 C 8,7 C 23,2 C 54 % 88 % 62 % 1030,2 hPa 0,0 l/m 0,0 km/h (0 Bft) O 90 7,3 C 9,2 C 0,0 km/h (0 Bft)
09.08.2022 07:16 25,2 C 9,1 C 8,7 C 23,2 C 54 % 88 % 62 % 1030,0 hPa 0,0 l/m 0,0 km/h (0 Bft) O 90 7,2 C 9,1 C 0,0 km/h (0 Bft)
09.08.2022 07:15 25,2 C 9,1 C 8,7 C 23,2 C 54 % 88 % 62 % 1030,0 hPa 0,0 l/m 0,0 km/h (0 Bft) O 90 7,2 C 9,1 C 0,0 km/h (0 Bft)
09.08.2022 07:14 25,2 C 9,1 C 8,7 C 23,2 C 54 % 88 % 62 % 1030,0 hPa 0,0 l/m 0,0 km/h (0 Bft) O 90 7,2 C 9,1 C 0,0 km/h (0 Bft)
09.08.2022 07:13 25,2 C 9,1 C 8,7 C 23,2 C 54 % 88 % 62 % 1030,0 hPa 0,0 l/m 0,0 km/h (0 Bft) O 90 7,2 C 9,1 C 0,0 km/h (0 Bft)
09.08.2022 07:12 25,2 C 9,1 C 8,9 C 23,2 C 54 % 88 % 62 % 1030,0 hPa 0,0 l/m 0,0 km/h (0 Bft) O 90 7,2 C 9,1 C 0,0 km/h (0 Bft)
09.08.2022 07:11 25,2 C 9,1 C 8,9 C 23,2 C 54 % 88 % 62 % 1030,0 hPa 0,0 l/m 0,0 km/h (0 Bft) O 90 7,2 C 9,1 C 0,0 km/h (0 Bft)
09.08.2022 07:10 25,2 C 9,1 C 9,1 C 23,2 C 54 % 88 % 62 % 1030,0 hPa 0,0 l/m 0,0 km/h (0 Bft) SO 135 7,2 C 9,1 C 0,0 km/h (0 Bft)
09.08.2022 07:09 25,2 C 9,1 C 9,1 C 23,2 C 54 % 88 % 62 % 1030,0 hPa 0,0 l/m 0,0 km/h (0 Bft) SO 135 7,2 C 9,1 C 0,0 km/h (0 Bft)
09.08.2022 07:08 25,2 C 9,0 C 9,2 C 23,1 C 54 % 88 % 62 % 1030,0 hPa 0,0 l/m 0,0 km/h (0 Bft) N-NO 22 7,1 C 9,0 C 0,0 km/h (0 Bft)
09.08.2022 07:07 25,2 C 9,0 C 9,2 C 23,1 C 54 % 88 % 62 % 1030,0 hPa 0,0 l/m 0,0 km/h (0 Bft) N-NO 22 7,1 C 9,0 C 0,0 km/h (0 Bft)
09.08.2022 07:06 25,2 C 8,9 C 8,5 C 23,1 C 54 % 88 % 62 % 1030,0 hPa 0,0 l/m 0,0 km/h (0 Bft) N-NO 22 7,0 C 8,9 C 0,0 km/h (0 Bft)
09.08.2022 07:05 25,2 C 8,9 C 8,5 C 23,1 C 54 % 88 % 62 % 1030,0 hPa 0,0 l/m 0,0 km/h (0 Bft) N-NO 22 7,0 C 8,9 C 0,0 km/h (0 Bft)
09.08.2022 07:04 25,2 C 8,9 C 8,5 C 23,1 C 54 % 88 % 62 % 1030,0 hPa 0,0 l/m 0,0 km/h (0 Bft) N-NO 22 7,0 C 8,9 C 0,0 km/h (0 Bft)
09.08.2022 07:03 25,2 C 8,9 C 8,5 C 23,1 C 54 % 88 % 62 % 1030,0 hPa 0,0 l/m 0,0 km/h (0 Bft) N-NO 22 7,0 C 8,9 C 0,0 km/h (0 Bft)
09.08.2022 07:01 25,2 C 8,9 C 8,5 C 23,1 C 54 % 88 % 62 % 1030,0 hPa 0,0 l/m 0,0 km/h (0 Bft) N-NO 22 7,0 C 8,9 C 0,0 km/h (0 Bft)
09.08.2022 07:00 25,2 C 8,9 C 8,5 C 23,1 C 54 % 88 % 62 % 1030,0 hPa 0,0 l/m 0,0 km/h (0 Bft) N-NO 22 7,0 C 8,9 C 0,0 km/h (0 Bft)
09.08.2022 06:59 25,2 C 8,9 C 8,5 C 23,1 C 54 % 88 % 62 % 1030,0 hPa 0,0 l/m 0,0 km/h (0 Bft) N-NO 22 7,0 C 8,9 C 0,0 km/h (0 Bft)
09.08.2022 06:58 25,2 C 8,9 C 8,5 C 23,1 C 54 % 88 % 62 % 1030,0 hPa 0,0 l/m 0,0 km/h (0 Bft) N-NO 22 7,0 C 8,9 C 0,0 km/h (0 Bft)
09.08.2022 06:57 25,2 C 8,9 C 8,5 C 23,1 C 54 % 88 % 62 % 1030,0 hPa 0,0 l/m 0,0 km/h (0 Bft) N-NO 22 7,0 C 8,9 C 0,0 km/h (0 Bft)
09.08.2022 06:56 25,2 C 8,9 C 8,4 C 23,1 C 54 % 88 % 62 % 1030,1 hPa 0,0 l/m 0,0 km/h (0 Bft) NO 45 7,0 C 8,9 C 0,0 km/h (0 Bft)
09.08.2022 06:55 25,2 C 8,9 C 8,4 C 23,1 C 54 % 88 % 62 % 1030,1 hPa 0,0 l/m 0,0 km/h (0 Bft) NO 45 7,0 C 8,9 C 0,0 km/h (0 Bft)
09.08.2022 06:54 25,2 C 8,9 C 8,4 C 23,2 C 54 % 88 % 62 % 1030,1 hPa 0,0 l/m 0,0 km/h (0 Bft) NO 45 7,0 C 8,9 C 0,0 km/h (0 Bft)
09.08.2022 06:53 25,2 C 8,9 C 8,4 C 23,2 C 54 % 88 % 62 % 1030,1 hPa 0,0 l/m 0,0 km/h (0 Bft) NO 45 7,0 C 8,9 C 0,0 km/h (0 Bft)
09.08.2022 06:52 25,2 C 8,9 C 8,5 C 23,1 C 54 % 88 % 62 % 1030,1 hPa 0,0 l/m 0,0 km/h (0 Bft) N-NO 22 7,0 C 8,9 C 0,0 km/h (0 Bft)
09.08.2022 06:51 25,2 C 8,9 C 8,5 C 23,1 C 54 % 88 % 62 % 1030,1 hPa 0,0 l/m 0,0 km/h (0 Bft) N-NO 22 7,0 C 8,9 C 0,0 km/h (0 Bft)
09.08.2022 06:50 25,2 C 8,8 C 8,6 C 23,1 C 54 % 88 % 62 % 1030,1 hPa 0,0 l/m 0,0 km/h (0 Bft) N-NO 22 6,9 C 8,8 C 0,0 km/h (0 Bft)
09.08.2022 06:49 25,2 C 8,8 C 8,6 C 23,1 C 54 % 88 % 62 % 1030,1 hPa 0,0 l/m 0,0 km/h (0 Bft) N-NO 22 6,9 C 8,8 C 0,0 km/h (0 Bft)
09.08.2022 06:48 25,2 C 8,8 C 8,2 C 23,2 C 54 % 88 % 62 % 1030,1 hPa 0,0 l/m 0,0 km/h (0 Bft) NO 45 6,9 C 8,8 C 0,0 km/h (0 Bft)
09.08.2022 06:47 25,2 C 8,8 C 8,2 C 23,2 C 54 % 88 % 62 % 1030,1 hPa 0,0 l/m 0,0 km/h (0 Bft) NO 45 6,9 C 8,8 C 0,0 km/h (0 Bft)
09.08.2022 06:46 25,2 C 8,6 C 8,1 C 23,2 C 54 % 88 % 62 % 1030,1 hPa 0,0 l/m 0,0 km/h (0 Bft) NO 45 6,7 C 8,6 C 0,0 km/h (0 Bft)
09.08.2022 06:45 25,2 C 8,6 C 8,1 C 23,2 C 54 % 88 % 62 % 1030,1 hPa 0,0 l/m 0,0 km/h (0 Bft) NO 45 6,7 C 8,6 C 0,0 km/h (0 Bft)
09.08.2022 06:44 25,2 C 8,6 C 8,1 C 23,2 C 54 % 88 % 62 % 1030,1 hPa 0,0 l/m 0,0 km/h (0 Bft) O 90 6,7 C 8,6 C 0,0 km/h (0 Bft)
09.08.2022 06:43 25,2 C 8,6 C 8,1 C 23,2 C 54 % 88 % 62 % 1030,1 hPa 0,0 l/m 0,0 km/h (0 Bft) O 90 6,7 C 8,6 C 0,0 km/h (0 Bft)
09.08.2022 06:42 25,2 C 8,6 C 8,2 C 23,2 C 54 % 88 % 62 % 1030,1 hPa 0,0 l/m 0,0 km/h (0 Bft) O 90 6,7 C 8,6 C 0,0 km/h (0 Bft)
09.08.2022 06:41 25,2 C 8,6 C 8,2 C 23,2 C 54 % 88 % 62 % 1030,1 hPa 0,0 l/m 0,0 km/h (0 Bft) O 90 6,7 C 8,6 C 0,0 km/h (0 Bft)
09.08.2022 06:40 25,2 C 8,6 C 8,1 C 23,2 C 54 % 88 % 62 % 1030,1 hPa 0,0 l/m 0,0 km/h (0 Bft) O 90 6,7 C 8,6 C 0,0 km/h (0 Bft)
09.08.2022 06:39 25,2 C 8,6 C 8,1 C 23,2 C 54 % 88 % 62 % 1030,1 hPa 0,0 l/m 0,0 km/h (0 Bft) O 90 6,7 C 8,6 C 0,0 km/h (0 Bft)
09.08.2022 06:38 25,2 C 8,6 C 8,2 C 23,1 C 54 % 88 % 62 % 1030,1 hPa 0,0 l/m 0,0 km/h (0 Bft) O 90 6,7 C 8,6 C 0,0 km/h (0 Bft)
09.08.2022 06:37 25,2 C 8,6 C 8,2 C 23,1 C 54 % 88 % 62 % 1030,1 hPa 0,0 l/m 0,0 km/h (0 Bft) O 90 6,7 C 8,6 C 0,0 km/h (0 Bft)
09.08.2022 06:36 25,3 C 8,6 C 8,4 C 23,2 C 54 % 88 % 62 % 1030,1 hPa 0,0 l/m 0,0 km/h (0 Bft) O 90 6,7 C 8,6 C 0,0 km/h (0 Bft)
09.08.2022 06:35 25,3 C 8,6 C 8,4 C 23,2 C 54 % 88 % 62 % 1030,1 hPa 0,0 l/m 0,0 km/h (0 Bft) O 90 6,7 C 8,6 C 0,0 km/h (0 Bft)
09.08.2022 06:34 25,2 C 8,6 C 8,4 C 23,2 C 54 % 88 % 62 % 1030,1 hPa 0,0 l/m 0,0 km/h (0 Bft) O-SO 112 6,7 C 8,6 C 0,0 km/h (0 Bft)
09.08.2022 06:33 25,2 C 8,6 C 8,4 C 23,2 C 54 % 88 % 62 % 1030,1 hPa 0,0 l/m 0,0 km/h (0 Bft) O-SO 112 6,7 C 8,6 C 0,0 km/h (0 Bft)
09.08.2022 06:32 25,2 C 8,6 C 8,5 C 23,2 C 54 % 88 % 62 % 1030,1 hPa 0,0 l/m 0,0 km/h (0 Bft) O-SO 112 6,7 C 8,6 C 0,0 km/h (0 Bft)
09.08.2022 06:31 25,2 C 8,6 C 8,5 C 23,2 C 54 % 88 % 62 % 1030,1 hPa 0,0 l/m 0,0 km/h (0 Bft) O-SO 112 6,7 C 8,6 C 0,0 km/h (0 Bft)
09.08.2022 06:30 25,2 C 8,6 C 8,6 C 23,2 C 54 % 88 % 62 % 1030,1 hPa 0,0 l/m 0,0 km/h (0 Bft) O 90 6,7 C 8,6 C 0,0 km/h (0 Bft)
09.08.2022 06:29 25,2 C 8,6 C 8,6 C 23,2 C 54 % 88 % 62 % 1030,1 hPa 0,0 l/m 0,0 km/h (0 Bft) O 90 6,7 C 8,6 C 0,0 km/h (0 Bft)
09.08.2022 06:28 25,2 C 8,6 C 8,7 C 23,2 C 54 % 88 % 62 % 1030,1 hPa 0,0 l/m 0,0 km/h (0 Bft) O-NO 67 6,7 C 8,6 C 0,0 km/h (0 Bft)
09.08.2022 06:27 25,2 C 8,6 C 8,7 C 23,2 C 54 % 88 % 62 % 1030,1 hPa 0,0 l/m 0,0 km/h (0 Bft) O-NO 67 6,7 C 8,6 C 0,0 km/h (0 Bft)
09.08.2022 06:26 25,2 C 8,6 C 8,5 C 23,3 C 54 % 88 % 62 % 1030,1 hPa 0,0 l/m 0,0 km/h (0 Bft) O 90 6,7 C 8,6 C 0,0 km/h (0 Bft)
09.08.2022 06:25 25,2 C 8,6 C 8,5 C 23,3 C 54 % 88 % 62 % 1030,1 hPa 0,0 l/m 0,0 km/h (0 Bft) O 90 6,7 C 8,6 C 0,0 km/h (0 Bft)
09.08.2022 06:24 25,2 C 8,6 C 8,3 C 23,2 C 54 % 88 % 62 % 1030,1 hPa 0,0 l/m 0,0 km/h (0 Bft) O 90 6,7 C 8,6 C 0,0 km/h (0 Bft)
09.08.2022 06:23 25,2 C 8,6 C 8,3 C 23,2 C 54 % 88 % 62 % 1030,1 hPa 0,0 l/m 0,0 km/h (0 Bft) O 90 6,7 C 8,6 C 0,0 km/h (0 Bft)
09.08.2022 06:22 25,3 C 8,5 C 8,1 C 23,3 C 54 % 88 % 62 % 1030,1 hPa 0,0 l/m 0,0 km/h (0 Bft) O-NO 67 6,6 C 8,5 C 0,0 km/h (0 Bft)
09.08.2022 06:21 25,3 C 8,5 C 8,1 C 23,3 C 54 % 88 % 62 % 1030,1 hPa 0,0 l/m 0,0 km/h (0 Bft) O-NO 67 6,6 C 8,5 C 0,0 km/h (0 Bft)
09.08.2022 06:20 25,2 C 8,5 C 8,0 C 23,3 C 54 % 88 % 62 % 1030,1 hPa 0,0 l/m 0,0 km/h (0 Bft) O-NO 67 6,6 C 8,5 C 0,0 km/h (0 Bft)
09.08.2022 06:19 25,2 C 8,5 C 8,0 C 23,3 C 54 % 88 % 62 % 1030,1 hPa 0,0 l/m 0,0 km/h (0 Bft) O-NO 67 6,6 C 8,5 C 0,0 km/h (0 Bft)
09.08.2022 06:18 25,2 C 8,5 C 7,5 C 23,2 C 54 % 88 % 62 % 1030,1 hPa 0,0 l/m 0,0 km/h (0 Bft) O-NO 67 6,6 C 8,5 C 0,0 km/h (0 Bft)
09.08.2022 06:17 25,2 C 8,5 C 7,5 C 23,2 C 54 % 88 % 62 % 1030,1 hPa 0,0 l/m 0,0 km/h (0 Bft) O-NO 67 6,6 C 8,5 C 0,0 km/h (0 Bft)
09.08.2022 06:16 25,2 C 8,5 C 7,5 C 23,3 C 54 % 88 % 62 % 1030,1 hPa 0,0 l/m 0,0 km/h (0 Bft) O-NO 67 6,6 C 8,5 C 0,0 km/h (0 Bft)
09.08.2022 06:15 25,2 C 8,5 C 7,5 C 23,3 C 54 % 88 % 62 % 1030,1 hPa 0,0 l/m 0,0 km/h (0 Bft) O-NO 67 6,6 C 8,5 C 0,0 km/h (0 Bft)
09.08.2022 06:14 25,2 C 8,5 C 7,5 C 23,3 C 54 % 88 % 62 % 1030,1 hPa 0,0 l/m 0,0 km/h (0 Bft) O-NO 67 6,6 C 8,5 C 0,0 km/h (0 Bft)
09.08.2022 06:13 25,2 C 8,5 C 7,5 C 23,3 C 54 % 88 % 62 % 1030,1 hPa 0,0 l/m 0,0 km/h (0 Bft) O-NO 67 6,6 C 8,5 C 0,0 km/h (0 Bft)
09.08.2022 06:12 25,3 C 8,5 C 7,4 C 23,2 C 54 % 88 % 62 % 1030,1 hPa 0,0 l/m 0,0 km/h (0 Bft) O-NO 67 6,6 C 8,5 C 0,0 km/h (0 Bft)
09.08.2022 06:11 25,3 C 8,5 C 7,4 C 23,2 C 54 % 88 % 62 % 1030,1 hPa 0,0 l/m 0,0 km/h (0 Bft) O-NO 67 6,6 C 8,5 C 0,0 km/h (0 Bft)
09.08.2022 06:10 25,2 C 8,5 C 7,4 C 23,3 C 54 % 88 % 62 % 1030,1 hPa 0,0 l/m 0,0 km/h (0 Bft) O-NO 67 6,6 C 8,5 C 0,0 km/h (0 Bft)
09.08.2022 06:09 25,2 C 8,5 C 7,4 C 23,3 C 54 % 88 % 62 % 1030,1 hPa 0,0 l/m 0,0 km/h (0 Bft) O-NO 67 6,6 C 8,5 C 0,0 km/h (0 Bft)
09.08.2022 06:08 25,2 C 8,5 C 7,6 C 23,3 C 54 % 88 % 62 % 1030,1 hPa 0,0 l/m 0,0 km/h (0 Bft) O-NO 67 6,6 C 8,5 C 0,0 km/h (0 Bft)
09.08.2022 06:07 25,2 C 8,5 C 7,6 C 23,3 C 54 % 88 % 62 % 1030,1 hPa 0,0 l/m 0,0 km/h (0 Bft) O-NO 67 6,6 C 8,5 C 0,0 km/h (0 Bft)
09.08.2022 06:06 25,2 C 8,5 C 7,5 C 23,3 C 54 % 88 % 62 % 1030,1 hPa 0,0 l/m 0,0 km/h (0 Bft) O-NO 67 6,6 C 8,5 C 0,0 km/h (0 Bft)
09.08.2022 06:05 25,2 C 8,5 C 7,5 C 23,3 C 54 % 88 % 62 % 1030,1 hPa 0,0 l/m 0,0 km/h (0 Bft) O-NO 67 6,6 C 8,5 C 0,0 km/h (0 Bft)
09.08.2022 06:04 25,2 C 8,5 C 7,2 C 23,3 C 54 % 88 % 62 % 1030,1 hPa 0,0 l/m 0,0 km/h (0 Bft) O-NO 67 6,6 C 8,5 C 0,0 km/h (0 Bft)
09.08.2022 06:03 25,2 C 8,5 C 7,2 C 23,3 C 54 % 88 % 62 % 1030,1 hPa 0,0 l/m 0,0 km/h (0 Bft) O-NO 67 6,6 C 8,5 C 0,0 km/h (0 Bft)
09.08.2022 06:01 25,2 C 8,5 C 7,1 C 23,2 C 54 % 88 % 62 % 1030,1 hPa 0,0 l/m 0,0 km/h (0 Bft) O-NO 67 6,6 C 8,5 C 0,0 km/h (0 Bft)
09.08.2022 06:00 25,2 C 8,6 C 7,2 C 23,3 C 54 % 88 % 62 % 1030,1 hPa 0,0 l/m 0,0 km/h (0 Bft) O-NO 67 6,7 C 8,6 C 0,0 km/h (0 Bft)
09.08.2022 05:59 25,2 C 8,6 C 7,2 C 23,3 C 54 % 88 % 62 % 1030,1 hPa 0,0 l/m 0,0 km/h (0 Bft) O-NO 67 6,7 C 8,6 C 0,0 km/h (0 Bft)
09.08.2022 05:58 25,2 C 8,6 C 7,1 C 23,2 C 54 % 88 % 62 % 1030,1 hPa 0,0 l/m 0,0 km/h (0 Bft) NO 45 6,7 C 8,6 C 0,0 km/h (0 Bft)
09.08.2022 05:57 25,2 C 8,6 C 7,1 C 23,2 C 54 % 88 % 62 % 1030,1 hPa 0,0 l/m 0,0 km/h (0 Bft) NO 45 6,7 C 8,6 C 0,0 km/h (0 Bft)
09.08.2022 05:56 25,2 C 8,6 C 7,2 C 23,2 C 54 % 88 % 62 % 1029,8 hPa 0,0 l/m 0,0 km/h (0 Bft) NO 45 6,7 C 8,6 C 0,0 km/h (0 Bft)
09.08.2022 05:55 25,2 C 8,6 C 7,2 C 23,2 C 54 % 88 % 62 % 1029,8 hPa 0,0 l/m 0,0 km/h (0 Bft) NO 45 6,7 C 8,6 C 0,0 km/h (0 Bft)
09.08.2022 05:54 25,2 C 8,8 C 7,2 C 23,2 C 54 % 88 % 62 % 1029,8 hPa 0,0 l/m 0,0 km/h (0 Bft) NO 45 6,9 C 8,8 C 0,0 km/h (0 Bft)
09.08.2022 05:53 25,2 C 8,8 C 7,2 C 23,2 C 54 % 88 % 62 % 1029,8 hPa 0,0 l/m 0,0 km/h (0 Bft) NO 45 6,9 C 8,8 C 0,0 km/h (0 Bft)
09.08.2022 05:52 25,2 C 8,8 C 7,2 C 23,2 C 54 % 88 % 62 % 1029,8 hPa 0,0 l/m 0,0 km/h (0 Bft) NO 45 6,9 C 8,8 C 0,0 km/h (0 Bft)
09.08.2022 05:51 25,2 C 8,8 C 7,2 C 23,2 C 54 % 88 % 62 % 1029,8 hPa 0,0 l/m 0,0 km/h (0 Bft) NO 45 6,9 C 8,8 C 0,0 km/h (0 Bft)
09.08.2022 05:50 25,2 C 8,9 C 7,4 C 23,2 C 54 % 88 % 62 % 1029,8 hPa 0,0 l/m 0,0 km/h (0 Bft) NO 45 7,0 C 8,9 C 0,0 km/h (0 Bft)
09.08.2022 05:49 25,2 C 8,9 C 7,4 C 23,2 C 54 % 88 % 62 % 1029,8 hPa 0,0 l/m 0,0 km/h (0 Bft) NO 45 7,0 C 8,9 C 0,0 km/h (0 Bft)
09.08.2022 05:48 25,2 C 8,9 C 7,4 C 23,2 C 54 % 88 % 62 % 1029,8 hPa 0,0 l/m 0,0 km/h (0 Bft) N-NO 22 7,0 C 8,9 C 0,0 km/h (0 Bft)
09.08.2022 05:47 25,2 C 8,9 C 7,4 C 23,2 C 54 % 88 % 62 % 1029,8 hPa 0,0 l/m 0,0 km/h (0 Bft) N-NO 22 7,0 C 8,9 C 0,0 km/h (0 Bft)
09.08.2022 05:46 25,2 C 8,9 C 7,7 C 23,2 C 54 % 88 % 62 % 1029,8 hPa 0,0 l/m 0,0 km/h (0 Bft) NO 45 7,0 C 8,9 C 0,0 km/h (0 Bft)
09.08.2022 05:45 25,2 C 8,9 C 7,7 C 23,2 C 54 % 88 % 62 % 1029,8 hPa 0,0 l/m 0,0 km/h (0 Bft) NO 45 7,0 C 8,9 C 0,0 km/h (0 Bft)
09.08.2022 05:44 25,2 C 8,8 C 7,7 C 23,2 C 54 % 88 % 62 % 1029,8 hPa 0,0 l/m 0,0 km/h (0 Bft) NO 45 6,9 C 8,8 C 0,0 km/h (0 Bft)
09.08.2022 05:43 25,2 C 8,8 C 7,7 C 23,2 C 54 % 88 % 62 % 1029,8 hPa 0,0 l/m 0,0 km/h (0 Bft) NO 45 6,9 C 8,8 C 0,0 km/h (0 Bft)
09.08.2022 05:42 25,3 C 8,8 C 8,1 C 23,2 C 54 % 88 % 62 % 1029,8 hPa 0,0 l/m 0,0 km/h (0 Bft) NO 45 6,9 C 8,8 C 0,0 km/h (0 Bft)
09.08.2022 05:41 25,3 C 8,8 C 8,1 C 23,2 C 54 % 88 % 62 % 1029,8 hPa 0,0 l/m 0,0 km/h (0 Bft) NO 45 6,9 C 8,8 C 0,0 km/h (0 Bft)
09.08.2022 05:40 25,2 C 8,8 C 8,1 C 23,2 C 54 % 88 % 62 % 1029,8 hPa 0,0 l/m 0,0 km/h (0 Bft) N-NO 22 6,9 C 8,8 C 0,0 km/h (0 Bft)
09.08.2022 05:39 25,2 C 8,8 C 8,1 C 23,2 C 54 % 88 % 62 % 1029,8 hPa 0,0 l/m 0,0 km/h (0 Bft) N-NO 22 6,9 C 8,8 C 0,0 km/h (0 Bft)
09.08.2022 05:38 25,3 C 8,8 C 7,7 C 23,2 C 54 % 88 % 62 % 1029,8 hPa 0,0 l/m 0,0 km/h (0 Bft) N-NO 22 6,9 C 8,8 C 0,0 km/h (0 Bft)
09.08.2022 05:37 25,3 C 8,8 C 7,7 C 23,2 C 54 % 88 % 62 % 1029,8 hPa 0,0 l/m 0,0 km/h (0 Bft) N-NO 22 6,9 C 8,8 C 0,0 km/h (0 Bft)
09.08.2022 05:36 25,2 C 8,6 C 7,2 C 23,2 C 54 % 88 % 62 % 1029,9 hPa 0,0 l/m 0,0 km/h (0 Bft) NO 45 6,7 C 8,6 C 0,0 km/h (0 Bft)
09.08.2022 05:35 25,2 C 8,6 C 7,2 C 23,2 C 54 % 88 % 62 % 1029,9 hPa 0,0 l/m 0,0 km/h (0 Bft) NO 45 6,7 C 8,6 C 0,0 km/h (0 Bft)
09.08.2022 05:34 25,3 C 8,6 C 7,1 C 23,3 C 54 % 88 % 62 % 1029,9 hPa 0,0 l/m 0,0 km/h (0 Bft) NO 45 6,7 C 8,6 C 0,0 km/h (0 Bft)
09.08.2022 05:33 25,3 C 8,6 C 7,1 C 23,3 C 54 % 88 % 62 % 1029,9 hPa 0,0 l/m 0,0 km/h (0 Bft) NO 45 6,7 C 8,6 C 0,0 km/h (0 Bft)
09.08.2022 05:32 25,3 C 8,6 C 7,0 C 23,3 C 54 % 88 % 62 % 1029,9 hPa 0,0 l/m 0,0 km/h (0 Bft) NO 45 6,7 C 8,6 C 0,0 km/h (0 Bft)
09.08.2022 05:31 25,3 C 8,6 C 7,0 C 23,3 C 54 % 88 % 62 % 1029,9 hPa 0,0 l/m 0,0 km/h (0 Bft) NO 45 6,7 C 8,6 C 0,0 km/h (0 Bft)
09.08.2022 05:30 25,3 C 8,6 C 7,1 C 23,2 C 54 % 88 % 62 % 1029,9 hPa 0,0 l/m 0,0 km/h (0 Bft) O-NO 67 6,7 C 8,6 C 0,0 km/h (0 Bft)
09.08.2022 05:29 25,3 C 8,6 C 7,1 C 23,2 C 54 % 88 % 62 % 1029,9 hPa 0,0 l/m 0,0 km/h (0 Bft) O-NO 67 6,7 C 8,6 C 0,0 km/h (0 Bft)
09.08.2022 05:28 25,3 C 8,6 C 7,2 C 23,3 C 54 % 88 % 62 % 1029,9 hPa 0,0 l/m 0,0 km/h (0 Bft) O-NO 67 6,7 C 8,6 C 0,0 km/h (0 Bft)
09.08.2022 05:27 25,3 C 8,6 C 7,2 C 23,3 C 54 % 88 % 62 % 1029,9 hPa 0,0 l/m 0,0 km/h (0 Bft) O-NO 67 6,7 C 8,6 C 0,0 km/h (0 Bft)
09.08.2022 05:26 25,3 C 8,8 C 7,3 C 23,3 C 54 % 88 % 62 % 1029,9 hPa 0,0 l/m 0,0 km/h (0 Bft) O 90 6,9 C 8,8 C 0,0 km/h (0 Bft)
09.08.2022 05:25 25,3 C 8,8 C 7,3 C 23,3 C 54 % 88 % 62 % 1029,9 hPa 0,0 l/m 0,0 km/h (0 Bft) O 90 6,9 C 8,8 C 0,0 km/h (0 Bft)
09.08.2022 05:24 25,3 C 8,8 C 7,5 C 23,3 C 54 % 88 % 62 % 1029,9 hPa 0,0 l/m 0,0 km/h (0 Bft) O 90 6,9 C 8,8 C 0,0 km/h (0 Bft)
09.08.2022 05:23 25,3 C 8,8 C 7,5 C 23,3 C 54 % 88 % 62 % 1029,9 hPa 0,0 l/m 0,0 km/h (0 Bft) O 90 6,9 C 8,8 C 0,0 km/h (0 Bft)
09.08.2022 05:22 25,3 C 8,8 C 7,3 C 23,3 C 54 % 88 % 62 % 1029,9 hPa 0,0 l/m 0,0 km/h (0 Bft) O-SO 112 6,9 C 8,8 C 0,0 km/h (0 Bft)
09.08.2022 05:21 25,3 C 8,8 C 7,3 C 23,3 C 54 % 88 % 62 % 1029,9 hPa 0,0 l/m 0,0 km/h (0 Bft) O-SO 112 6,9 C 8,8 C 0,0 km/h (0 Bft)
09.08.2022 05:20 25,3 C 8,8 C 7,4 C 23,3 C 54 % 88 % 62 % 1029,9 hPa 0,0 l/m 0,0 km/h (0 Bft) O 90 6,9 C 8,8 C 0,0 km/h (0 Bft)
09.08.2022 05:19 25,3 C 8,8 C 7,4 C 23,3 C 54 % 88 % 62 % 1029,9 hPa 0,0 l/m 0,0 km/h (0 Bft) O 90 6,9 C 8,8 C 0,0 km/h (0 Bft)
09.08.2022 05:18 25,3 C 8,9 C 7,5 C 23,3 C 54 % 88 % 62 % 1029,9 hPa 0,0 l/m 0,0 km/h (0 Bft) O-SO 112 7,0 C 8,9 C 0,0 km/h (0 Bft)
09.08.2022 05:17 25,3 C 8,9 C 7,5 C 23,3 C 54 % 88 % 62 % 1029,9 hPa 0,0 l/m 0,0 km/h (0 Bft) O-SO 112 7,0 C 8,9 C 0,0 km/h (0 Bft)
09.08.2022 05:16 25,3 C 8,9 C 7,5 C 23,3 C 54 % 88 % 62 % 1030,0 hPa 0,0 l/m 0,0 km/h (0 Bft) O 90 7,0 C 8,9 C 0,0 km/h (0 Bft)
09.08.2022 05:15 25,3 C 8,9 C 7,5 C 23,3 C 54 % 88 % 62 % 1030,0 hPa 0,0 l/m 0,0 km/h (0 Bft) O 90 7,0 C 8,9 C 0,0 km/h (0 Bft)
09.08.2022 05:14 25,2 C 8,9 C 7,6 C 23,3 C 54 % 88 % 62 % 1030,0 hPa 0,0 l/m 0,0 km/h (0 Bft) O 90 7,0 C 8,9 C 0,0 km/h (0 Bft)
09.08.2022 05:13 25,2 C 8,9 C 7,6 C 23,3 C 54 % 88 % 62 % 1030,0 hPa 0,0 l/m 0,0 km/h (0 Bft) O 90 7,0 C 8,9 C 0,0 km/h (0 Bft)
09.08.2022 05:12 25,2 C 8,9 C 7,7 C 23,3 C 54 % 88 % 62 % 1030,0 hPa 0,0 l/m 0,0 km/h (0 Bft) O 90 7,0 C 8,9 C 0,0 km/h (0 Bft)
09.08.2022 05:11 25,2 C 8,9 C 7,7 C 23,3 C 54 % 88 % 62 % 1030,0 hPa 0,0 l/m 0,0 km/h (0 Bft) O 90 7,0 C 8,9 C 0,0 km/h (0 Bft)
09.08.2022 05:10 25,2 C 8,9 C 7,5 C 23,3 C 54 % 88 % 62 % 1030,0 hPa 0,0 l/m 0,0 km/h (0 Bft) O-NO 67 7,0 C 8,9 C 0,0 km/h (0 Bft)
09.08.2022 05:09 25,2 C 8,9 C 7,5 C 23,3 C 54 % 88 % 62 % 1030,0 hPa 0,0 l/m 0,0 km/h (0 Bft) O-NO 67 7,0 C 8,9 C 0,0 km/h (0 Bft)
09.08.2022 05:08 25,2 C 8,9 C 7,5 C 23,3 C 54 % 88 % 62 % 1030,0 hPa 0,0 l/m 0,0 km/h (0 Bft) NO 45 7,0 C 8,9 C 0,0 km/h (0 Bft)
09.08.2022 05:07 25,2 C 8,9 C 7,5 C 23,3 C 54 % 88 % 62 % 1030,0 hPa 0,0 l/m 0,0 km/h (0 Bft) NO 45 7,0 C 8,9 C 0,0 km/h (0 Bft)
09.08.2022 05:06 25,2 C 8,9 C 7,6 C 23,3 C 54 % 88 % 62 % 1030,0 hPa 0,0 l/m 0,0 km/h (0 Bft) O-NO 67 7,0 C 8,9 C 0,0 km/h (0 Bft)
09.08.2022 05:05 25,2 C 8,9 C 7,6 C 23,3 C 54 % 88 % 62 % 1030,0 hPa 0,0 l/m 0,0 km/h (0 Bft) O-NO 67 7,0 C 8,9 C 0,0 km/h (0 Bft)
09.08.2022 05:04 25,2 C 8,9 C 7,5 C 23,3 C 54 % 88 % 62 % 1030,0 hPa 0,0 l/m 0,0 km/h (0 Bft) O 90 7,0 C 8,9 C 0,0 km/h (0 Bft)
09.08.2022 05:03 25,2 C 8,9 C 7,5 C 23,3 C 54 % 88 % 62 % 1030,0 hPa 0,0 l/m 0,0 km/h (0 Bft) O 90 7,0 C 8,9 C 0,0 km/h (0 Bft)
09.08.2022 05:01 25,2 C 8,9 C 7,5 C 23,3 C 54 % 88 % 62 % 1030,0 hPa 0,0 l/m 0,0 km/h (0 Bft) O 90 7,0 C 8,9 C 0,0 km/h (0 Bft)
09.08.2022 05:00 25,2 C 8,9 C 7,5 C 23,3 C 54 % 88 % 62 % 1030,0 hPa 0,0 l/m 0,0 km/h (0 Bft) O 90 7,0 C 8,9 C 0,0 km/h (0 Bft)
09.08.2022 04:59 25,2 C 8,9 C 7,5 C 23,3 C 54 % 88 % 62 % 1030,0 hPa 0,0 l/m 0,0 km/h (0 Bft) O 90 7,0 C 8,9 C 0,0 km/h (0 Bft)
09.08.2022 04:58 25,2 C 9,0 C 7,4 C 23,3 C 54 % 88 % 62 % 1030,0 hPa 0,0 l/m 0,0 km/h (0 Bft) O-SO 112 7,1 C 9,0 C 0,0 km/h (0 Bft)
09.08.2022 04:57 25,2 C 9,0 C 7,4 C 23,3 C 54 % 88 % 62 % 1030,0 hPa 0,0 l/m 0,0 km/h (0 Bft) O-SO 112 7,1 C 9,0 C 0,0 km/h (0 Bft)
09.08.2022 04:56 25,2 C 9,0 C 7,5 C 23,3 C 54 % 88 % 62 % 1029,9 hPa 0,0 l/m 0,0 km/h (0 Bft) O-NO 67 7,1 C 9,0 C 0,0 km/h (0 Bft)
09.08.2022 04:55 25,2 C 9,0 C 7,5 C 23,3 C 54 % 88 % 62 % 1029,9 hPa 0,0 l/m 0,0 km/h (0 Bft) O-NO 67 7,1 C 9,0 C 0,0 km/h (0 Bft)
09.08.2022 04:54 25,2 C 9,0 C 7,6 C 23,3 C 54 % 88 % 62 % 1029,9 hPa 0,0 l/m 0,0 km/h (0 Bft) O-NO 67 7,1 C 9,0 C 0,0 km/h (0 Bft)
09.08.2022 04:53 25,2 C 9,0 C 7,6 C 23,3 C 54 % 88 % 62 % 1029,9 hPa 0,0 l/m 0,0 km/h (0 Bft) O-NO 67 7,1 C 9,0 C 0,0 km/h (0 Bft)
09.08.2022 04:52 25,2 C 9,0 C 7,7 C 23,4 C 54 % 88 % 62 % 1029,9 hPa 0,0 l/m 0,0 km/h (0 Bft) NO 45 7,1 C 9,0 C 0,0 km/h (0 Bft)
09.08.2022 04:51 25,2 C 9,0 C 7,7 C 23,4 C 54 % 88 % 62 % 1029,9 hPa 0,0 l/m 0,0 km/h (0 Bft) NO 45 7,1 C 9,0 C 0,0 km/h (0 Bft)
09.08.2022 04:50 25,2 C 9,0 C 7,6 C 23,3 C 54 % 88 % 62 % 1029,9 hPa 0,0 l/m 0,0 km/h (0 Bft) O-NO 67 7,1 C 9,0 C 0,0 km/h (0 Bft)
09.08.2022 04:49 25,2 C 9,0 C 7,6 C 23,3 C 54 % 88 % 62 % 1029,9 hPa 0,0 l/m 0,0 km/h (0 Bft) O-NO 67 7,1 C 9,0 C 0,0 km/h (0 Bft)
09.08.2022 04:48 25,2 C 9,1 C 7,7 C 23,5 C 54 % 88 % 62 % 1029,9 hPa 0,0 l/m 0,0 km/h (0 Bft) O-NO 67 7,2 C 9,1 C 0,0 km/h (0 Bft)
09.08.2022 04:47 25,2 C 9,1 C 7,7 C 23,5 C 54 % 88 % 62 % 1029,9 hPa 0,0 l/m 0,0 km/h (0 Bft) O-NO 67 7,2 C 9,1 C 0,0 km/h (0 Bft)
09.08.2022 04:46 25,2 C 9,1 C 7,9 C 23,4 C 54 % 88 % 62 % 1029,9 hPa 0,0 l/m 0,0 km/h (0 Bft) O-NO 67 7,2 C 9,1 C 0,0 km/h (0 Bft)
09.08.2022 04:45 25,2 C 9,1 C 7,9 C 23,4 C 54 % 88 % 62 % 1029,9 hPa 0,0 l/m 0,0 km/h (0 Bft) O-NO 67 7,2 C 9,1 C 0,0 km/h (0 Bft)
09.08.2022 04:44 25,4 C 9,1 C 7,9 C 23,4 C 54 % 88 % 62 % 1029,9 hPa 0,0 l/m 0,0 km/h (0 Bft) O-NO 67 7,2 C 9,1 C 0,0 km/h (0 Bft)
09.08.2022 04:43 25,4 C 9,1 C 7,9 C 23,4 C 54 % 88 % 62 % 1029,9 hPa 0,0 l/m 0,0 km/h (0 Bft) O-NO 67 7,2 C 9,1 C 0,0 km/h (0 Bft)
09.08.2022 04:42 25,2 C 9,1 C 8,0 C 23,5 C 54 % 88 % 62 % 1029,9 hPa 0,0 l/m 0,0 km/h (0 Bft) O-NO 67 7,2 C 9,1 C 0,0 km/h (0 Bft)
09.08.2022 04:41 25,2 C 9,1 C 8,0 C 23,5 C 54 % 88 % 62 % 1029,9 hPa 0,0 l/m 0,0 km/h (0 Bft) O-NO 67 7,2 C 9,1 C 0,0 km/h (0 Bft)
09.08.2022 04:40 25,2 C 9,1 C 8,0 C 23,5 C 54 % 88 % 62 % 1029,9 hPa 0,0 l/m 0,0 km/h (0 Bft) O-NO 67 7,2 C 9,1 C 0,0 km/h (0 Bft)
09.08.2022 04:39 25,2 C 9,1 C 8,0 C 23,5 C 54 % 88 % 62 % 1029,9 hPa 0,0 l/m 0,0 km/h (0 Bft) O-NO 67 7,2 C 9,1 C 0,0 km/h (0 Bft)
09.08.2022 04:38 25,2 C 9,1 C 7,9 C 23,5 C 54 % 88 % 62 % 1029,9 hPa 0,0 l/m 0,0 km/h (0 Bft) O-NO 67 7,2 C 9,1 C 0,0 km/h (0 Bft)
09.08.2022 04:37 25,2 C 9,1 C 7,9 C 23,5 C 54 % 88 % 62 % 1029,9 hPa 0,0 l/m 0,0 km/h (0 Bft) O-NO 67 7,2 C 9,1 C 0,0 km/h (0 Bft)
09.08.2022 04:36 25,2 C 9,1 C 7,7 C 23,5 C 54 % 88 % 62 % 1030,0 hPa 0,0 l/m 0,0 km/h (0 Bft) O-NO 67 7,2 C 9,1 C 0,0 km/h (0 Bft)
09.08.2022 04:35 25,2 C 9,1 C 7,7 C 23,5 C 54 % 88 % 62 % 1030,0 hPa 0,0 l/m 0,0 km/h (0 Bft) O-NO 67 7,2 C 9,1 C 0,0 km/h (0 Bft)
09.08.2022 04:34 25,4 C 9,1 C 7,6 C 23,5 C 54 % 88 % 61 % 1030,0 hPa 0,0 l/m 0,0 km/h (0 Bft) O 90 7,2 C 9,1 C 0,0 km/h (0 Bft)
09.08.2022 04:33 25,4 C 9,1 C 7,6 C 23,5 C 54 % 88 % 61 % 1030,0 hPa 0,0 l/m 0,0 km/h (0 Bft) O 90 7,2 C 9,1 C 0,0 km/h (0 Bft)
09.08.2022 04:32 25,2 C 9,1 C 7,7 C 23,5 C 54 % 88 % 61 % 1030,0 hPa 0,0 l/m 0,0 km/h (0 Bft) O 90 7,2 C 9,1 C 0,0 km/h (0 Bft)
09.08.2022 04:31 25,2 C 9,1 C 7,7 C 23,5 C 54 % 88 % 61 % 1030,0 hPa 0,0 l/m 0,0 km/h (0 Bft) O 90 7,2 C 9,1 C 0,0 km/h (0 Bft)
09.08.2022 04:30 25,4 C 9,1 C 7,7 C 23,5 C 54 % 88 % 62 % 1030,0 hPa 0,0 l/m 0,0 km/h (0 Bft) O 90 7,2 C 9,1 C 0,0 km/h (0 Bft)
09.08.2022 04:29 25,4 C 9,1 C 7,7 C 23,5 C 54 % 88 % 62 % 1030,0 hPa 0,0 l/m 0,0 km/h (0 Bft) O 90 7,2 C 9,1 C 0,0 km/h (0 Bft)
09.08.2022 04:28 25,4 C 9,1 C 7,7 C 23,5 C 54 % 88 % 61 % 1030,0 hPa 0,0 l/m 0,0 km/h (0 Bft) O-NO 67 7,2 C 9,1 C 0,0 km/h (0 Bft)
09.08.2022 04:27 25,4 C 9,1 C 7,7 C 23,5 C 54 % 88 % 61 % 1030,0 hPa 0,0 l/m 0,0 km/h (0 Bft) O-NO 67 7,2 C 9,1 C 0,0 km/h (0 Bft)
09.08.2022 04:26 25,4 C 9,2 C 7,7 C 23,5 C 54 % 88 % 61 % 1030,0 hPa 0,0 l/m 0,0 km/h (0 Bft) NO 45 7,3 C 9,2 C 0,0 km/h (0 Bft)
09.08.2022 04:25 25,4 C 9,2 C 7,7 C 23,5 C 54 % 88 % 61 % 1030,0 hPa 0,0 l/m 0,0 km/h (0 Bft) NO 45 7,3 C 9,2 C 0,0 km/h (0 Bft)
09.08.2022 04:24 25,4 C 9,2 C 7,7 C 23,4 C 54 % 88 % 61 % 1030,0 hPa 0,0 l/m 0,0 km/h (0 Bft) NO 45 7,3 C 9,2 C 0,0 km/h (0 Bft)
09.08.2022 04:23 25,4 C 9,2 C 7,7 C 23,4 C 54 % 88 % 61 % 1030,0 hPa 0,0 l/m 0,0 km/h (0 Bft) NO 45 7,3 C 9,2 C 0,0 km/h (0 Bft)
09.08.2022 04:22 25,4 C 9,2 C 7,9 C 23,4 C 54 % 88 % 61 % 1030,0 hPa 0,0 l/m 0,0 km/h (0 Bft) O-NO 67 7,3 C 9,2 C 0,0 km/h (0 Bft)
09.08.2022 04:21 25,4 C 9,2 C 7,9 C 23,4 C 54 % 88 % 61 % 1030,0 hPa 0,0 l/m 0,0 km/h (0 Bft) O-NO 67 7,3 C 9,2 C 0,0 km/h (0 Bft)
09.08.2022 04:20 25,4 C 9,2 C 8,0 C 23,4 C 54 % 88 % 61 % 1030,0 hPa 0,0 l/m 0,0 km/h (0 Bft) O-NO 67 7,3 C 9,2 C 0,0 km/h (0 Bft)
09.08.2022 04:19 25,4 C 9,2 C 8,0 C 23,4 C 54 % 88 % 61 % 1030,0 hPa 0,0 l/m 0,0 km/h (0 Bft) O-NO 67 7,3 C 9,2 C 0,0 km/h (0 Bft)
09.08.2022 04:18 25,4 C 9,2 C 8,0 C 23,4 C 54 % 88 % 61 % 1030,0 hPa 0,0 l/m 0,0 km/h (0 Bft) O-NO 67 7,3 C 9,2 C 0,0 km/h (0 Bft)
09.08.2022 04:17 25,4 C 9,2 C 8,0 C 23,4 C 54 % 88 % 61 % 1030,0 hPa 0,0 l/m 0,0 km/h (0 Bft) O-NO 67 7,3 C 9,2 C 0,0 km/h (0 Bft)
09.08.2022 04:16 25,4 C 9,2 C 7,9 C 23,4 C 54 % 88 % 61 % 1030,1 hPa 0,0 l/m 0,0 km/h (0 Bft) O-NO 67 7,3 C 9,2 C 0,0 km/h (0 Bft)
09.08.2022 04:15 25,4 C 9,2 C 7,9 C 23,4 C 54 % 88 % 61 % 1030,1 hPa 0,0 l/m 0,0 km/h (0 Bft) O-NO 67 7,3 C 9,2 C 0,0 km/h (0 Bft)
09.08.2022 04:14 25,4 C 9,2 C 7,6 C 23,4 C 54 % 88 % 61 % 1030,1 hPa 0,0 l/m 0,0 km/h (0 Bft) O-NO 67 7,3 C 9,2 C 0,0 km/h (0 Bft)
09.08.2022 04:13 25,4 C 9,2 C 7,6 C 23,4 C 54 % 88 % 61 % 1030,1 hPa 0,0 l/m 0,0 km/h (0 Bft) O-NO 67 7,3 C 9,2 C 0,0 km/h (0 Bft)
09.08.2022 04:12 25,4 C 9,2 C 7,9 C 23,4 C 54 % 88 % 61 % 1030,1 hPa 0,0 l/m 0,0 km/h (0 Bft) O 90 7,3 C 9,2 C 0,0 km/h (0 Bft)
09.08.2022 04:11 25,4 C 9,2 C 7,9 C 23,4 C 54 % 88 % 61 % 1030,1 hPa 0,0 l/m 0,0 km/h (0 Bft) O 90 7,3 C 9,2 C 0,0 km/h (0 Bft)
09.08.2022 04:10 25,4 C 9,3 C 8,0 C 23,5 C 54 % 88 % 61 % 1030,1 hPa 0,0 l/m 0,0 km/h (0 Bft) O-NO 67 7,4 C 9,3 C 0,0 km/h (0 Bft)
09.08.2022 04:09 25,4 C 9,3 C 8,0 C 23,5 C 54 % 88 % 61 % 1030,1 hPa 0,0 l/m 0,0 km/h (0 Bft) O-NO 67 7,4 C 9,3 C 0,0 km/h (0 Bft)
09.08.2022 04:08 25,4 C 9,3 C 7,7 C 23,5 C 54 % 88 % 61 % 1030,1 hPa 0,0 l/m 0,0 km/h (0 Bft) O-NO 67 7,4 C 9,3 C 0,0 km/h (0 Bft)
09.08.2022 04:07 25,4 C 9,3 C 7,7 C 23,5 C 54 % 88 % 61 % 1030,1 hPa 0,0 l/m 0,0 km/h (0 Bft) O-NO 67 7,4 C 9,3 C 0,0 km/h (0 Bft)
09.08.2022 04:06 25,4 C 9,3 C 8,4 C 23,5 C 54 % 87 % 61 % 1030,1 hPa 0,0 l/m 0,0 km/h (0 Bft) O-NO 67 7,2 C 9,3 C 0,0 km/h (0 Bft)
09.08.2022 04:05 25,4 C 9,3 C 8,4 C 23,5 C 54 % 87 % 61 % 1030,1 hPa 0,0 l/m 0,0 km/h (0 Bft) O-NO 67 7,2 C 9,3 C 0,0 km/h (0 Bft)
09.08.2022 04:04 25,4 C 9,3 C 8,4 C 23,5 C 54 % 87 % 61 % 1030,1 hPa 0,0 l/m 0,0 km/h (0 Bft) O-NO 67 7,2 C 9,3 C 0,0 km/h (0 Bft)
09.08.2022 04:03 25,4 C 9,3 C 8,4 C 23,5 C 54 % 87 % 61 % 1030,1 hPa 0,0 l/m 0,0 km/h (0 Bft) O-NO 67 7,2 C 9,3 C 0,0 km/h (0 Bft)
09.08.2022 04:01 25,4 C 9,3 C 8,4 C 23,5 C 54 % 87 % 61 % 1030,1 hPa 0,0 l/m 0,0 km/h (0 Bft) O-NO 67 7,2 C 9,3 C 0,0 km/h (0 Bft)
09.08.2022 04:00 25,4 C 9,3 C 8,4 C 23,5 C 54 % 87 % 61 % 1030,1 hPa 0,0 l/m 0,0 km/h (0 Bft) O-NO 67 7,2 C 9,3 C 0,0 km/h (0 Bft)
09.08.2022 03:59 25,4 C 9,3 C 8,4 C 23,5 C 54 % 87 % 61 % 1030,1 hPa 0,0 l/m 0,0 km/h (0 Bft) O-NO 67 7,2 C 9,3 C 0,0 km/h (0 Bft)
09.08.2022 03:58 25,4 C 9,3 C 8,4 C 23,5 C 54 % 87 % 61 % 1030,1 hPa 0,0 l/m 0,0 km/h (0 Bft) O-NO 67 7,2 C 9,3 C 0,0 km/h (0 Bft)
09.08.2022 03:57 25,4 C 9,3 C 8,4 C 23,5 C 54 % 87 % 61 % 1030,1 hPa 0,0 l/m 0,0 km/h (0 Bft) O-NO 67 7,2 C 9,3 C 0,0 km/h (0 Bft)
09.08.2022 03:56 25,4 C 9,3 C 8,3 C 23,5 C 54 % 87 % 61 % 1030,0 hPa 0,0 l/m 0,0 km/h (0 Bft) O-NO 67 7,2 C 9,3 C 0,0 km/h (0 Bft)
09.08.2022 03:55 25,4 C 9,3 C 8,3 C 23,5 C 54 % 87 % 61 % 1030,0 hPa 0,0 l/m 0,0 km/h (0 Bft) O-NO 67 7,2 C 9,3 C 0,0 km/h (0 Bft)
09.08.2022 03:54 25,4 C 9,3 C 8,2 C 23,5 C 54 % 87 % 61 % 1030,0 hPa 0,0 l/m 0,0 km/h (0 Bft) O 90 7,2 C 9,3 C 0,0 km/h (0 Bft)
09.08.2022 03:53 25,4 C 9,3 C 8,2 C 23,5 C 54 % 87 % 61 % 1030,0 hPa 0,0 l/m 0,0 km/h (0 Bft) O 90 7,2 C 9,3 C 0,0 km/h (0 Bft)
09.08.2022 03:52 25,4 C 9,3 C 8,0 C 23,5 C 54 % 87 % 61 % 1030,0 hPa 0,0 l/m 0,0 km/h (0 Bft) O 90 7,2 C 9,3 C 0,0 km/h (0 Bft)
09.08.2022 03:51 25,4 C 9,3 C 8,0 C 23,5 C 54 % 87 % 61 % 1030,0 hPa 0,0 l/m 0,0 km/h (0 Bft) O 90 7,2 C 9,3 C 0,0 km/h (0 Bft)
09.08.2022 03:50 25,5 C 9,3 C 7,7 C 23,5 C 54 % 87 % 61 % 1030,0 hPa 0,0 l/m 0,0 km/h (0 Bft) O 90 7,2 C 9,3 C 0,0 km/h (0 Bft)
09.08.2022 03:49 25,5 C 9,3 C 7,7 C 23,5 C 54 % 87 % 61 % 1030,0 hPa 0,0 l/m 0,0 km/h (0 Bft) O 90 7,2 C 9,3 C 0,0 km/h (0 Bft)
09.08.2022 03:48 25,5 C 9,3 C 7,9 C 23,5 C 54 % 87 % 61 % 1030,0 hPa 0,0 l/m 0,0 km/h (0 Bft) O-NO 67 7,2 C 9,3 C 0,0 km/h (0 Bft)
09.08.2022 03:47 25,5 C 9,3 C 7,9 C 23,5 C 54 % 87 % 61 % 1030,0 hPa 0,0 l/m 0,0 km/h (0 Bft) O-NO 67 7,2 C 9,3 C 0,0 km/h (0 Bft)
09.08.2022 03:46 25,5 C 9,4 C 8,1 C 23,5 C 54 % 87 % 61 % 1030,0 hPa 0,0 l/m 0,0 km/h (0 Bft) O-NO 67 7,3 C 9,4 C 0,0 km/h (0 Bft)
09.08.2022 03:45 25,5 C 9,4 C 8,1 C 23,5 C 54 % 87 % 61 % 1030,0 hPa 0,0 l/m 0,0 km/h (0 Bft) O-NO 67 7,3 C 9,4 C 0,0 km/h (0 Bft)
09.08.2022 03:44 25,5 C 9,4 C 8,4 C 23,5 C 54 % 87 % 61 % 1030,0 hPa 0,0 l/m 0,0 km/h (0 Bft) O-NO 67 7,3 C 9,4 C 0,0 km/h (0 Bft)
09.08.2022 03:43 25,5 C 9,4 C 8,4 C 23,5 C 54 % 87 % 61 % 1030,0 hPa 0,0 l/m 0,0 km/h (0 Bft) O-NO 67 7,3 C 9,4 C 0,0 km/h (0 Bft)
09.08.2022 03:42 25,5 C 9,4 C 8,2 C 23,6 C 54 % 87 % 61 % 1030,0 hPa 0,0 l/m 0,0 km/h (0 Bft) O-NO 67 7,3 C 9,4 C 0,0 km/h (0 Bft)
09.08.2022 03:41 25,5 C 9,4 C 8,2 C 23,6 C 54 % 87 % 61 % 1030,0 hPa 0,0 l/m 0,0 km/h (0 Bft) O-NO 67 7,3 C 9,4 C 0,0 km/h (0 Bft)
09.08.2022 03:40 25,5 C 9,5 C 8,2 C 23,6 C 54 % 87 % 61 % 1030,0 hPa 0,0 l/m 0,0 km/h (0 Bft) O 90 7,4 C 9,5 C 0,0 km/h (0 Bft)
09.08.2022 03:39 25,5 C 9,5 C 8,2 C 23,6 C 54 % 87 % 61 % 1030,0 hPa 0,0 l/m 0,0 km/h (0 Bft) O 90 7,4 C 9,5 C 0,0 km/h (0 Bft)
09.08.2022 03:38 25,5 C 9,5 C 8,1 C 23,6 C 54 % 87 % 61 % 1030,0 hPa 0,0 l/m 0,0 km/h (0 Bft) O-NO 67 7,4 C 9,5 C 0,0 km/h (0 Bft)
09.08.2022 03:37 25,5 C 9,5 C 8,1 C 23,6 C 54 % 87 % 61 % 1030,0 hPa 0,0 l/m 0,0 km/h (0 Bft) O-NO 67 7,4 C 9,5 C 0,0 km/h (0 Bft)
09.08.2022 03:36 25,5 C 9,6 C 8,3 C 23,6 C 54 % 87 % 61 % 1030,1 hPa 0,0 l/m 0,0 km/h (0 Bft) O 90 7,5 C 9,6 C 0,0 km/h (0 Bft)
09.08.2022 03:35 25,5 C 9,6 C 8,3 C 23,6 C 54 % 87 % 61 % 1030,1 hPa 0,0 l/m 0,0 km/h (0 Bft) O 90 7,5 C 9,6 C 0,0 km/h (0 Bft)
09.08.2022 03:34 25,5 C 9,6 C 8,6 C 23,6 C 54 % 87 % 61 % 1030,1 hPa 0,0 l/m 0,0 km/h (0 Bft) O 90 7,5 C 9,6 C 0,0 km/h (0 Bft)
09.08.2022 03:33 25,5 C 9,6 C 8,6 C 23,6 C 54 % 87 % 61 % 1030,1 hPa 0,0 l/m 0,0 km/h (0 Bft) O 90 7,5 C 9,6 C 0,0 km/h (0 Bft)
09.08.2022 03:32 25,5 C 9,6 C 8,6 C 23,6 C 54 % 87 % 61 % 1030,1 hPa 0,0 l/m 0,0 km/h (0 Bft) O-NO 67 7,5 C 9,6 C 0,0 km/h (0 Bft)
09.08.2022 03:31 25,5 C 9,6 C 8,6 C 23,6 C 54 % 87 % 61 % 1030,1 hPa 0,0 l/m 0,0 km/h (0 Bft) O-NO 67 7,5 C 9,6 C 0,0 km/h (0 Bft)
09.08.2022 03:30 25,5 C 9,7 C 8,6 C 23,6 C 54 % 87 % 61 % 1030,1 hPa 0,0 l/m 0,0 km/h (0 Bft) O-NO 67 7,6 C 9,7 C 0,0 km/h (0 Bft)
09.08.2022 03:29 25,5 C 9,7 C 8,6 C 23,6 C 54 % 87 % 61 % 1030,1 hPa 0,0 l/m 0,0 km/h (0 Bft) O-NO 67 7,6 C 9,7 C 0,0 km/h (0 Bft)
09.08.2022 03:28 25,5 C 9,7 C 8,7 C 23,7 C 54 % 87 % 61 % 1030,1 hPa 0,0 l/m 0,0 km/h (0 Bft) O-NO 67 7,6 C 9,7 C 0,0 km/h (0 Bft)
09.08.2022 03:27 25,5 C 9,7 C 8,7 C 23,7 C 54 % 87 % 61 % 1030,1 hPa 0,0 l/m 0,0 km/h (0 Bft) O-NO 67 7,6 C 9,7 C 0,0 km/h (0 Bft)
09.08.2022 03:26 25,5 C 9,7 C 8,8 C 23,7 C 54 % 87 % 61 % 1030,1 hPa 0,0 l/m 0,0 km/h (0 Bft) O-NO 67 7,6 C 9,7 C 0,0 km/h (0 Bft)
09.08.2022 03:25 25,5 C 9,7 C 8,8 C 23,7 C 54 % 87 % 61 % 1030,1 hPa 0,0 l/m 0,0 km/h (0 Bft) O-NO 67 7,6 C 9,7 C 0,0 km/h (0 Bft)
09.08.2022 03:24 25,5 C 9,7 C 8,9 C 23,7 C 54 % 87 % 61 % 1030,1 hPa 0,0 l/m 0,0 km/h (0 Bft) O 90 7,6 C 9,7 C 0,0 km/h (0 Bft)
09.08.2022 03:23 25,5 C 9,7 C 8,9 C 23,7 C 54 % 87 % 61 % 1030,1 hPa 0,0 l/m 0,0 km/h (0 Bft) O 90 7,6 C 9,7 C 0,0 km/h (0 Bft)
09.08.2022 03:22 25,5 C 9,6 C 8,8 C 23,7 C 54 % 87 % 61 % 1030,1 hPa 0,0 l/m 0,0 km/h (0 Bft) O-SO 112 7,5 C 9,6 C 0,0 km/h (0 Bft)
09.08.2022 03:21 25,5 C 9,6 C 8,8 C 23,7 C 54 % 87 % 61 % 1030,1 hPa 0,0 l/m 0,0 km/h (0 Bft) O-SO 112 7,5 C 9,6 C 0,0 km/h (0 Bft)
09.08.2022 03:20 25,5 C 9,6 C 8,7 C 23,7 C 54 % 87 % 61 % 1030,1 hPa 0,0 l/m 0,0 km/h (0 Bft) O 90 7,5 C 9,6 C 0,0 km/h (0 Bft)
09.08.2022 03:19 25,5 C 9,6 C 8,7 C 23,7 C 54 % 87 % 61 % 1030,1 hPa 0,0 l/m 0,0 km/h (0 Bft) O 90 7,5 C 9,6 C 0,0 km/h (0 Bft)
09.08.2022 03:18 25,5 C 9,6 C 8,5 C 23,7 C 54 % 87 % 61 % 1030,1 hPa 0,0 l/m 0,0 km/h (0 Bft) O-NO 67 7,5 C 9,6 C 0,0 km/h (0 Bft)
09.08.2022 03:17 25,5 C 9,6 C 8,5 C 23,7 C 54 % 87 % 61 % 1030,1 hPa 0,0 l/m 0,0 km/h (0 Bft) O-NO 67 7,5 C 9,6 C 0,0 km/h (0 Bft)
09.08.2022 03:16 25,6 C 9,6 C 8,1 C 23,6 C 54 % 87 % 61 % 1030,3 hPa 0,0 l/m 0,0 km/h (0 Bft) O-NO 67 7,5 C 9,6 C 0,0 km/h (0 Bft)
09.08.2022 03:15 25,6 C 9,6 C 8,1 C 23,6 C 54 % 87 % 61 % 1030,3 hPa 0,0 l/m 0,0 km/h (0 Bft) O-NO 67 7,5 C 9,6 C 0,0 km/h (0 Bft)
09.08.2022 03:14 25,5 C 9,6 C 8,1 C 23,6 C 54 % 87 % 61 % 1030,3 hPa 0,0 l/m 0,0 km/h (0 Bft) O-NO 67 7,5 C 9,6 C 0,0 km/h (0 Bft)
09.08.2022 03:13 25,5 C 9,6 C 8,1 C 23,6 C 54 % 87 % 61 % 1030,3 hPa 0,0 l/m 0,0 km/h (0 Bft) O-NO 67 7,5 C 9,6 C 0,0 km/h (0 Bft)
09.08.2022 03:12 25,5 C 9,6 C 8,1 C 23,6 C 54 % 87 % 61 % 1030,3 hPa 0,0 l/m 0,0 km/h (0 Bft) O-SO 112 7,5 C 9,6 C 0,0 km/h (0 Bft)
09.08.2022 03:11 25,5 C 9,6 C 8,1 C 23,6 C 54 % 87 % 61 % 1030,3 hPa 0,0 l/m 0,0 km/h (0 Bft) O-SO 112 7,5 C 9,6 C 0,0 km/h (0 Bft)
09.08.2022 03:10 25,6 C 9,7 C 8,1 C 23,6 C 54 % 87 % 61 % 1030,3 hPa 0,0 l/m 0,0 km/h (0 Bft) O-SO 112 7,6 C 9,7 C 0,0 km/h (0 Bft)
09.08.2022 03:09 25,6 C 9,7 C 8,1 C 23,6 C 54 % 87 % 61 % 1030,3 hPa 0,0 l/m 0,0 km/h (0 Bft) O-SO 112 7,6 C 9,7 C 0,0 km/h (0 Bft)
09.08.2022 03:08 25,6 C 9,7 C 8,3 C 23,6 C 54 % 87 % 61 % 1030,3 hPa 0,0 l/m 0,0 km/h (0 Bft) O 90 7,6 C 9,7 C 0,0 km/h (0 Bft)
09.08.2022 03:07 25,6 C 9,7 C 8,3 C 23,6 C 54 % 87 % 61 % 1030,3 hPa 0,0 l/m 0,0 km/h (0 Bft) O 90 7,6 C 9,7 C 0,0 km/h (0 Bft)
09.08.2022 03:06 25,6 C 9,7 C 8,2 C 23,6 C 54 % 87 % 61 % 1030,3 hPa 0,0 l/m 0,0 km/h (0 Bft) O 90 7,6 C 9,7 C 0,0 km/h (0 Bft)
09.08.2022 03:05 25,6 C 9,7 C 8,2 C 23,6 C 54 % 87 % 61 % 1030,3 hPa 0,0 l/m 0,0 km/h (0 Bft) O 90 7,6 C 9,7 C 0,0 km/h (0 Bft)
09.08.2022 03:04 25,6 C 9,7 C 8,5 C 23,6 C 54 % 87 % 61 % 1030,3 hPa 0,0 l/m 0,0 km/h (0 Bft) O 90 7,6 C 9,7 C 0,0 km/h (0 Bft)
09.08.2022 03:03 25,6 C 9,7 C 8,5 C 23,6 C 54 % 87 % 61 % 1030,3 hPa 0,0 l/m 0,0 km/h (0 Bft) O 90 7,6 C 9,7 C 0,0 km/h (0 Bft)
09.08.2022 03:01 25,6 C 9,8 C 8,8 C 23,7 C 54 % 87 % 61 % 1030,3 hPa 0,0 l/m 0,0 km/h (0 Bft) O 90 7,7 C 9,8 C 0,0 km/h (0 Bft)
09.08.2022 03:00 25,6 C 9,8 C 9,0 C 23,7 C 54 % 87 % 61 % 1030,3 hPa 0,0 l/m 0,0 km/h (0 Bft) O 90 7,7 C 9,8 C 0,0 km/h (0 Bft)
09.08.2022 02:59 25,6 C 9,8 C 9,0 C 23,7 C 54 % 87 % 61 % 1030,3 hPa 0,0 l/m 0,0 km/h (0 Bft) O 90 7,7 C 9,8 C 0,0 km/h (0 Bft)
09.08.2022 02:58 25,6 C 9,9 C 9,1 C 23,7 C 54 % 87 % 61 % 1030,3 hPa 0,0 l/m 0,0 km/h (0 Bft) O-SO 112 7,8 C 9,9 C 0,0 km/h (0 Bft)
09.08.2022 02:57 25,6 C 9,9 C 9,1 C 23,7 C 54 % 87 % 61 % 1030,3 hPa 0,0 l/m 0,0 km/h (0 Bft) O-SO 112 7,8 C 9,9 C 0,0 km/h (0 Bft)
09.08.2022 02:56 25,6 C 9,9 C 9,1 C 23,7 C 54 % 87 % 61 % 1030,4 hPa 0,0 l/m 0,0 km/h (0 Bft) O 90 7,8 C 9,9 C 0,0 km/h (0 Bft)
09.08.2022 02:55 25,6 C 9,9 C 9,1 C 23,7 C 54 % 87 % 61 % 1030,4 hPa 0,0 l/m 0,0 km/h (0 Bft) O 90 7,8 C 9,9 C 0,0 km/h (0 Bft)
09.08.2022 02:54 25,6 C 10,0 C 9,1 C 23,7 C 54 % 87 % 61 % 1030,4 hPa 0,0 l/m 0,0 km/h (0 Bft) O 90 7,9 C 10,0 C 0,0 km/h (0 Bft)
09.08.2022 02:53 25,6 C 10,0 C 9,1 C 23,7 C 54 % 87 % 61 % 1030,4 hPa 0,0 l/m 0,0 km/h (0 Bft) O 90 7,9 C 10,0 C 0,0 km/h (0 Bft)
09.08.2022 02:52 25,6 C 10,0 C 9,2 C 23,7 C 54 % 87 % 61 % 1030,4 hPa 0,0 l/m 0,0 km/h (0 Bft) SO 135 7,9 C 10,0 C 0,0 km/h (0 Bft)
09.08.2022 02:51 25,6 C 10,0 C 9,2 C 23,7 C 54 % 87 % 61 % 1030,4 hPa 0,0 l/m 0,0 km/h (0 Bft) SO 135 7,9 C 10,0 C 0,0 km/h (0 Bft)
09.08.2022 02:50 25,6 C 10,0 C 9,3 C 23,7 C 54 % 87 % 61 % 1030,4 hPa 0,0 l/m 0,0 km/h (0 Bft) O 90 7,9 C 10,0 C 0,0 km/h (0 Bft)
09.08.2022 02:49 25,6 C 10,0 C 9,3 C 23,7 C 54 % 87 % 61 % 1030,4 hPa 0,0 l/m 0,0 km/h (0 Bft) O 90 7,9 C 10,0 C 0,0 km/h (0 Bft)
09.08.2022 02:48 25,6 C 10,0 C 9,1 C 23,7 C 54 % 87 % 61 % 1030,4 hPa 0,0 l/m 0,0 km/h (0 Bft) SO 135 7,9 C 10,0 C 0,0 km/h (0 Bft)
09.08.2022 02:47 25,6 C 10,0 C 9,1 C 23,7 C 54 % 87 % 61 % 1030,4 hPa 0,0 l/m 0,0 km/h (0 Bft) SO 135 7,9 C 10,0 C 0,0 km/h (0 Bft)
09.08.2022 02:46 25,6 C 10,0 C 8,9 C 23,7 C 54 % 87 % 61 % 1030,4 hPa 0,0 l/m 0,0 km/h (0 Bft) SO 135 7,9 C 10,0 C 0,0 km/h (0 Bft)
09.08.2022 02:45 25,6 C 10,0 C 8,9 C 23,7 C 54 % 87 % 61 % 1030,4 hPa 0,0 l/m 0,0 km/h (0 Bft) SO 135 7,9 C 10,0 C 0,0 km/h (0 Bft)
09.08.2022 02:44 25,6 C 10,1 C 8,8 C 23,7 C 54 % 87 % 61 % 1030,4 hPa 0,0 l/m 0,0 km/h (0 Bft) O-NO 67 8,0 C 10,1 C 0,0 km/h (0 Bft)
09.08.2022 02:43 25,6 C 10,1 C 8,8 C 23,7 C 54 % 87 % 61 % 1030,4 hPa 0,0 l/m 0,0 km/h (0 Bft) O-NO 67 8,0 C 10,1 C 0,0 km/h (0 Bft)
09.08.2022 02:42 25,6 C 10,1 C 8,9 C 23,7 C 54 % 87 % 61 % 1030,4 hPa 0,0 l/m 0,0 km/h (0 Bft) O-NO 67 8,0 C 10,1 C 0,0 km/h (0 Bft)
09.08.2022 02:41 25,6 C 10,1 C 8,9 C 23,7 C 54 % 87 % 61 % 1030,4 hPa 0,0 l/m 0,0 km/h (0 Bft) O-NO 67 8,0 C 10,1 C 0,0 km/h (0 Bft)
09.08.2022 02:40 25,6 C 10,1 C 8,7 C 23,7 C 54 % 87 % 61 % 1030,4 hPa 0,0 l/m 0,0 km/h (0 Bft) NO 45 8,0 C 10,1 C 0,0 km/h (0 Bft)
09.08.2022 02:39 25,6 C 10,1 C 8,7 C 23,7 C 54 % 87 % 61 % 1030,4 hPa 0,0 l/m 0,0 km/h (0 Bft) NO 45 8,0 C 10,1 C 0,0 km/h (0 Bft)
09.08.2022 02:38 25,6 C 10,1 C 8,7 C 23,8 C 54 % 87 % 61 % 1030,4 hPa 0,0 l/m 0,0 km/h (0 Bft) NO 45 8,0 C 10,1 C 0,0 km/h (0 Bft)
09.08.2022 02:37 25,6 C 10,1 C 8,7 C 23,8 C 54 % 87 % 61 % 1030,4 hPa 0,0 l/m 0,0 km/h (0 Bft) NO 45 8,0 C 10,1 C 0,0 km/h (0 Bft)
09.08.2022 02:36 25,6 C 10,1 C 8,8 C 23,7 C 54 % 87 % 61 % 1030,6 hPa 0,0 l/m 0,0 km/h (0 Bft) N-NO 22 8,0 C 10,1 C 0,0 km/h (0 Bft)
09.08.2022 02:35 25,6 C 10,1 C 8,8 C 23,7 C 54 % 87 % 61 % 1030,6 hPa 0,0 l/m 0,0 km/h (0 Bft) N-NO 22 8,0 C 10,1 C 0,0 km/h (0 Bft)
09.08.2022 02:34 25,6 C 10,0 C 8,5 C 23,8 C 54 % 87 % 61 % 1030,6 hPa 0,0 l/m 0,0 km/h (0 Bft) NO 45 7,9 C 10,0 C 0,0 km/h (0 Bft)
09.08.2022 02:33 25,6 C 10,0 C 8,5 C 23,8 C 54 % 87 % 61 % 1030,6 hPa 0,0 l/m 0,0 km/h (0 Bft) NO 45 7,9 C 10,0 C 0,0 km/h (0 Bft)
09.08.2022 02:32 25,6 C 10,0 C 8,5 C 23,8 C 54 % 87 % 61 % 1030,6 hPa 0,0 l/m 0,0 km/h (0 Bft) N 360 7,9 C 10,0 C 0,0 km/h (0 Bft)
09.08.2022 02:31 25,6 C 10,0 C 8,5 C 23,8 C 54 % 87 % 61 % 1030,6 hPa 0,0 l/m 0,0 km/h (0 Bft) N 360 7,9 C 10,0 C 0,0 km/h (0 Bft)
09.08.2022 02:30 25,6 C 10,0 C 8,5 C 23,8 C 54 % 87 % 61 % 1030,6 hPa 0,0 l/m 0,0 km/h (0 Bft) N 360 7,9 C 10,0 C 0,0 km/h (0 Bft)
09.08.2022 02:29 25,6 C 10,0 C 8,5 C 23,8 C 54 % 87 % 61 % 1030,6 hPa 0,0 l/m 0,0 km/h (0 Bft) N 360 7,9 C 10,0 C 0,0 km/h (0 Bft)
09.08.2022 02:28 25,7 C 10,0 C 8,3 C 23,9 C 54 % 87 % 61 % 1030,6 hPa 0,0 l/m 0,0 km/h (0 Bft) N-NO 22 7,9 C 10,0 C 0,0 km/h (0 Bft)
09.08.2022 02:27 25,7 C 10,0 C 8,3 C 23,9 C 54 % 87 % 61 % 1030,6 hPa 0,0 l/m 0,0 km/h (0 Bft) N-NO 22 7,9 C 10,0 C 0,0 km/h (0 Bft)
09.08.2022 02:26 25,6 C 10,0 C 8,2 C 23,9 C 54 % 87 % 61 % 1030,6 hPa 0,0 l/m 0,0 km/h (0 Bft) O 90 7,9 C 10,0 C 0,0 km/h (0 Bft)
09.08.2022 02:25 25,6 C 10,0 C 8,2 C 23,9 C 54 % 87 % 61 % 1030,6 hPa 0,0 l/m 0,0 km/h (0 Bft) O 90 7,9 C 10,0 C 0,0 km/h (0 Bft)
09.08.2022 02:24 25,6 C 10,0 C 8,5 C 23,9 C 54 % 87 % 61 % 1030,6 hPa 0,0 l/m 0,0 km/h (0 Bft) O-NO 67 7,9 C 10,0 C 0,0 km/h (0 Bft)
09.08.2022 02:23 25,6 C 10,0 C 8,5 C 23,9 C 54 % 87 % 61 % 1030,6 hPa 0,0 l/m 0,0 km/h (0 Bft) O-NO 67 7,9 C 10,0 C 0,0 km/h (0 Bft)
09.08.2022 02:22 25,7 C 10,1 C 8,8 C 23,9 C 54 % 87 % 61 % 1030,6 hPa 0,0 l/m 0,0 km/h (0 Bft) O 90 8,0 C 10,1 C 0,0 km/h (0 Bft)
09.08.2022 02:21 25,7 C 10,1 C 8,8 C 23,9 C 54 % 87 % 61 % 1030,6 hPa 0,0 l/m 0,0 km/h (0 Bft) O 90 8,0 C 10,1 C 0,0 km/h (0 Bft)
09.08.2022 02:20 25,6 C 10,1 C 9,0 C 23,9 C 54 % 87 % 61 % 1030,6 hPa 0,0 l/m 0,0 km/h (0 Bft) O 90 8,0 C 10,1 C 0,0 km/h (0 Bft)
09.08.2022 02:19 25,6 C 10,1 C 9,0 C 23,9 C 54 % 87 % 61 % 1030,6 hPa 0,0 l/m 0,0 km/h (0 Bft) O 90 8,0 C 10,1 C 0,0 km/h (0 Bft)
09.08.2022 02:18 25,7 C 10,1 C 8,7 C 23,9 C 54 % 87 % 61 % 1030,6 hPa 0,0 l/m 0,0 km/h (0 Bft) O-SO 112 8,0 C 10,1 C 0,0 km/h (0 Bft)
09.08.2022 02:17 25,7 C 10,1 C 8,7 C 23,9 C 54 % 87 % 61 % 1030,6 hPa 0,0 l/m 0,0 km/h (0 Bft) O-SO 112 8,0 C 10,1 C 0,0 km/h (0 Bft)
09.08.2022 02:16 25,7 C 10,2 C 8,6 C 23,8 C 54 % 87 % 61 % 1030,6 hPa 0,0 l/m 0,0 km/h (0 Bft) O 90 8,1 C 10,2 C 0,0 km/h (0 Bft)
09.08.2022 02:15 25,7 C 10,2 C 8,6 C 23,8 C 54 % 87 % 61 % 1030,6 hPa 0,0 l/m 0,0 km/h (0 Bft) O 90 8,1 C 10,2 C 0,0 km/h (0 Bft)
09.08.2022 02:14 25,7 C 10,2 C 8,6 C 23,8 C 54 % 87 % 61 % 1030,6 hPa 0,0 l/m 0,0 km/h (0 Bft) O 90 8,1 C 10,2 C 0,0 km/h (0 Bft)
09.08.2022 02:13 25,7 C 10,2 C 8,6 C 23,8 C 54 % 87 % 61 % 1030,6 hPa 0,0 l/m 0,0 km/h (0 Bft) O 90 8,1 C 10,2 C 0,0 km/h (0 Bft)
09.08.2022 02:12 25,7 C 10,3 C 8,5 C 23,8 C 54 % 87 % 61 % 1030,6 hPa 0,0 l/m 0,0 km/h (0 Bft) O 90 8,2 C 10,3 C 0,0 km/h (0 Bft)
09.08.2022 02:11 25,7 C 10,3 C 8,5 C 23,8 C 54 % 87 % 61 % 1030,6 hPa 0,0 l/m 0,0 km/h (0 Bft) O 90 8,2 C 10,3 C 0,0 km/h (0 Bft)
09.08.2022 02:10 25,7 C 10,3 C 8,5 C 23,8 C 54 % 87 % 61 % 1030,6 hPa 0,0 l/m 0,0 km/h (0 Bft) NO 45 8,2 C 10,3 C 0,0 km/h (0 Bft)
09.08.2022 02:09 25,7 C 10,3 C 8,5 C 23,8 C 54 % 87 % 61 % 1030,6 hPa 0,0 l/m 0,0 km/h (0 Bft) NO 45 8,2 C 10,3 C 0,0 km/h (0 Bft)
09.08.2022 02:08 25,7 C 10,3 C 8,6 C 23,9 C 54 % 87 % 61 % 1030,6 hPa 0,0 l/m 0,0 km/h (0 Bft) NO 45 8,2 C 10,3 C 0,0 km/h (0 Bft)
09.08.2022 02:07 25,7 C 10,3 C 8,6 C 23,9 C 54 % 87 % 61 % 1030,6 hPa 0,0 l/m 0,0 km/h (0 Bft) NO 45 8,2 C 10,3 C 0,0 km/h (0 Bft)
09.08.2022 02:06 25,7 C 10,3 C 8,7 C 23,9 C 54 % 87 % 61 % 1030,6 hPa 0,0 l/m 0,0 km/h (0 Bft) NO 45 8,2 C 10,3 C 0,0 km/h (0 Bft)
09.08.2022 02:05 25,7 C 10,3 C 8,7 C 23,9 C 54 % 87 % 61 % 1030,6 hPa 0,0 l/m 0,0 km/h (0 Bft) NO 45 8,2 C 10,3 C 0,0 km/h (0 Bft)
09.08.2022 02:04 25,7 C 10,3 C 8,5 C 23,9 C 54 % 87 % 61 % 1030,6 hPa 0,0 l/m 0,0 km/h (0 Bft) O-NO 67 8,2 C 10,3 C 0,0 km/h (0 Bft)
09.08.2022 02:03 25,7 C 10,3 C 8,5 C 23,9 C 54 % 87 % 61 % 1030,6 hPa 0,0 l/m 0,0 km/h (0 Bft) O-NO 67 8,2 C 10,3 C 0,0 km/h (0 Bft)
09.08.2022 02:01 25,7 C 10,3 C 8,5 C 23,9 C 54 % 87 % 61 % 1030,6 hPa 0,0 l/m 0,0 km/h (0 Bft) O-NO 67 8,2 C 10,3 C 0,0 km/h (0 Bft)
09.08.2022 02:00 25,7 C 10,3 C 8,6 C 23,9 C 54 % 87 % 61 % 1030,6 hPa 0,0 l/m 0,0 km/h (0 Bft) O-NO 67 8,2 C 10,3 C 0,0 km/h (0 Bft)
09.08.2022 01:59 25,7 C 10,3 C 8,6 C 23,9 C 54 % 87 % 61 % 1030,6 hPa 0,0 l/m 0,0 km/h (0 Bft) O-NO 67 8,2 C 10,3 C 0,0 km/h (0 Bft)
09.08.2022 01:58 25,7 C 10,3 C 8,7 C 23,9 C 54 % 87 % 61 % 1030,6 hPa 0,0 l/m 0,0 km/h (0 Bft) O-NO 67 8,2 C 10,3 C 0,0 km/h (0 Bft)
09.08.2022 01:57 25,7 C 10,3 C 8,7 C 23,9 C 54 % 87 % 61 % 1030,6 hPa 0,0 l/m 0,0 km/h (0 Bft) O-NO 67 8,2 C 10,3 C 0,0 km/h (0 Bft)
09.08.2022 01:56 25,7 C 10,4 C 8,7 C 23,9 C 54 % 87 % 61 % 1030,3 hPa 0,0 l/m 0,0 km/h (0 Bft) O 90 8,3 C 10,4 C 0,0 km/h (0 Bft)
09.08.2022 01:55 25,7 C 10,4 C 8,7 C 23,9 C 54 % 87 % 61 % 1030,3 hPa 0,0 l/m 0,0 km/h (0 Bft) O 90 8,3 C 10,4 C 0,0 km/h (0 Bft)
09.08.2022 01:54 25,7 C 10,4 C 8,9 C 23,9 C 54 % 87 % 61 % 1030,3 hPa 0,0 l/m 0,0 km/h (0 Bft) O 90 8,3 C 10,4 C 0,0 km/h (0 Bft)
09.08.2022 01:53 25,7 C 10,4 C 8,9 C 23,9 C 54 % 87 % 61 % 1030,3 hPa 0,0 l/m 0,0 km/h (0 Bft) O 90 8,3 C 10,4 C 0,0 km/h (0 Bft)
09.08.2022 01:52 25,7 C 10,4 C 9,1 C 24,0 C 54 % 87 % 61 % 1030,3 hPa 0,0 l/m 0,0 km/h (0 Bft) O 90 8,3 C 10,4 C 0,0 km/h (0 Bft)
09.08.2022 01:51 25,7 C 10,4 C 9,1 C 24,0 C 54 % 87 % 61 % 1030,3 hPa 0,0 l/m 0,0 km/h (0 Bft) O 90 8,3 C 10,4 C 0,0 km/h (0 Bft)
09.08.2022 01:50 25,8 C 10,5 C 9,4 C 24,0 C 54 % 87 % 61 % 1030,3 hPa 0,0 l/m 0,0 km/h (0 Bft) O 90 8,4 C 10,5 C 0,0 km/h (0 Bft)
09.08.2022 01:49 25,8 C 10,5 C 9,4 C 24,0 C 54 % 87 % 61 % 1030,3 hPa 0,0 l/m 0,0 km/h (0 Bft) O 90 8,4 C 10,5 C 0,0 km/h (0 Bft)
09.08.2022 01:48 25,7 C 10,5 C 9,4 C 24,0 C 54 % 87 % 61 % 1030,3 hPa 0,0 l/m 0,0 km/h (0 Bft) O 90 8,4 C 10,5 C 0,0 km/h (0 Bft)
09.08.2022 01:47 25,7 C 10,5 C 9,4 C 24,0 C 54 % 87 % 61 % 1030,3 hPa 0,0 l/m 0,0 km/h (0 Bft) O 90 8,4 C 10,5 C 0,0 km/h (0 Bft)
09.08.2022 01:46 25,8 C 10,5 C 9,2 C 24,0 C 54 % 87 % 61 % 1030,3 hPa 0,0 l/m 0,0 km/h (0 Bft) O 90 8,4 C 10,5 C 0,0 km/h (0 Bft)
09.08.2022 01:45 25,8 C 10,5 C 9,2 C 24,0 C 54 % 87 % 61 % 1030,3 hPa 0,0 l/m 0,0 km/h (0 Bft) O 90 8,4 C 10,5 C 0,0 km/h (0 Bft)
09.08.2022 01:44 25,8 C 10,4 C 8,9 C 24,0 C 54 % 87 % 61 % 1030,3 hPa 0,0 l/m 0,0 km/h (0 Bft) O 90 8,3 C 10,4 C 0,0 km/h (0 Bft)
09.08.2022 01:43 25,8 C 10,4 C 8,9 C 24,0 C 54 % 87 % 61 % 1030,3 hPa 0,0 l/m 0,0 km/h (0 Bft) O 90 8,3 C 10,4 C 0,0 km/h (0 Bft)
09.08.2022 01:42 25,8 C 10,5 C 8,6 C 24,0 C 54 % 87 % 61 % 1030,3 hPa 0,0 l/m 0,0 km/h (0 Bft) O 90 8,4 C 10,5 C 0,0 km/h (0 Bft)
09.08.2022 01:41 25,8 C 10,5 C 8,6 C 24,0 C 54 % 87 % 61 % 1030,3 hPa 0,0 l/m 0,0 km/h (0 Bft) O 90 8,4 C 10,5 C 0,0 km/h (0 Bft)
09.08.2022 01:40 25,8 C 10,5 C 8,6 C 24,0 C 54 % 87 % 61 % 1030,3 hPa 0,0 l/m 0,0 km/h (0 Bft) O 90 8,4 C 10,5 C 0,0 km/h (0 Bft)
09.08.2022 01:39 25,8 C 10,5 C 8,6 C 24,0 C 54 % 87 % 61 % 1030,3 hPa 0,0 l/m 0,0 km/h (0 Bft) O 90 8,4 C 10,5 C 0,0 km/h (0 Bft)
09.08.2022 01:38 25,8 C 10,5 C 8,6 C 24,0 C 54 % 87 % 61 % 1030,3 hPa 0,0 l/m 0,0 km/h (0 Bft) O 90 8,4 C 10,5 C 0,0 km/h (0 Bft)
09.08.2022 01:37 25,8 C 10,5 C 8,6 C 24,0 C 54 % 87 % 61 % 1030,3 hPa 0,0 l/m 0,0 km/h (0 Bft) O 90 8,4 C 10,5 C 0,0 km/h (0 Bft)
09.08.2022 01:36 25,8 C 10,6 C 8,8 C 24,0 C 54 % 87 % 61 % 1030,5 hPa 0,0 l/m 0,0 km/h (0 Bft) O 90 8,5 C 10,6 C 0,0 km/h (0 Bft)
09.08.2022 01:35 25,8 C 10,6 C 8,8 C 24,0 C 54 % 87 % 61 % 1030,5 hPa 0,0 l/m 0,0 km/h (0 Bft) O 90 8,5 C 10,6 C 0,0 km/h (0 Bft)
09.08.2022 01:34 25,8 C 10,6 C 9,1 C 24,1 C 54 % 87 % 61 % 1030,5 hPa 0,0 l/m 0,0 km/h (0 Bft) O 90 8,5 C 10,6 C 0,0 km/h (0 Bft)
09.08.2022 01:33 25,8 C 10,6 C 9,1 C 24,1 C 54 % 87 % 61 % 1030,5 hPa 0,0 l/m 0,0 km/h (0 Bft) O 90 8,5 C 10,6 C 0,0 km/h (0 Bft)
09.08.2022 01:32 25,8 C 10,6 C 9,5 C 24,0 C 54 % 87 % 61 % 1030,5 hPa 0,0 l/m 0,0 km/h (0 Bft) O 90 8,5 C 10,6 C 0,0 km/h (0 Bft)
09.08.2022 01:31 25,8 C 10,6 C 9,5 C 24,0 C 54 % 87 % 61 % 1030,5 hPa 0,0 l/m 0,0 km/h (0 Bft) O 90 8,5 C 10,6 C 0,0 km/h (0 Bft)
09.08.2022 01:30 25,8 C 10,6 C 9,5 C 24,1 C 54 % 87 % 61 % 1030,5 hPa 0,0 l/m 0,0 km/h (0 Bft) O 90 8,5 C 10,6 C 0,0 km/h (0 Bft)
09.08.2022 01:29 25,8 C 10,6 C 9,5 C 24,1 C 54 % 87 % 61 % 1030,5 hPa 0,0 l/m 0,0 km/h (0 Bft) O 90 8,5 C 10,6 C 0,0 km/h (0 Bft)
09.08.2022 01:28 25,8 C 10,6 C 9,5 C 24,0 C 54 % 87 % 61 % 1030,5 hPa 0,0 l/m 0,0 km/h (0 Bft) O 90 8,5 C 10,6 C 0,0 km/h (0 Bft)
09.08.2022 01:27 25,8 C 10,6 C 9,5 C 24,0 C 54 % 87 % 61 % 1030,5 hPa 0,0 l/m 0,0 km/h (0 Bft) O 90 8,5 C 10,6 C 0,0 km/h (0 Bft)
09.08.2022 01:26 25,8 C 10,7 C 9,0 C 24,1 C 54 % 87 % 61 % 1030,5 hPa 0,0 l/m 0,0 km/h (0 Bft) O 90 8,6 C 10,7 C 0,0 km/h (0 Bft)
09.08.2022 01:25 25,8 C 10,7 C 9,0 C 24,1 C 54 % 87 % 61 % 1030,5 hPa 0,0 l/m 0,0 km/h (0 Bft) O 90 8,6 C 10,7 C 0,0 km/h (0 Bft)
09.08.2022 01:24 25,8 C 10,7 C 8,9 C 24,0 C 54 % 87 % 61 % 1030,5 hPa 0,0 l/m 0,0 km/h (0 Bft) O 90 8,6 C 10,7 C 0,0 km/h (0 Bft)
09.08.2022 01:23 25,8 C 10,7 C 8,9 C 24,0 C 54 % 87 % 61 % 1030,5 hPa 0,0 l/m 0,0 km/h (0 Bft) O 90 8,6 C 10,7 C 0,0 km/h (0 Bft)
09.08.2022 01:22 25,8 C 10,7 C 9,0 C 24,0 C 54 % 87 % 61 % 1030,5 hPa 0,0 l/m 0,0 km/h (0 Bft) O 90 8,6 C 10,7 C 0,0 km/h (0 Bft)
09.08.2022 01:21 25,8 C 10,7 C 9,0 C 24,0 C 54 % 87 % 61 % 1030,5 hPa 0,0 l/m 0,0 km/h (0 Bft) O 90 8,6 C 10,7 C 0,0 km/h (0 Bft)
09.08.2022 01:20 25,8 C 10,7 C 9,3 C 24,0 C 54 % 87 % 61 % 1030,5 hPa 0,0 l/m 0,0 km/h (0 Bft) O 90 8,6 C 10,7 C 0,0 km/h (0 Bft)
09.08.2022 01:19 25,8 C 10,7 C 9,3 C 24,0 C 54 % 87 % 61 % 1030,5 hPa 0,0 l/m 0,0 km/h (0 Bft) O 90 8,6 C 10,7 C 0,0 km/h (0 Bft)
09.08.2022 01:18 25,9 C 10,7 C 9,4 C 24,1 C 54 % 87 % 61 % 1030,5 hPa 0,0 l/m 0,0 km/h (0 Bft) O 90 8,6 C 10,7 C 0,0 km/h (0 Bft)
09.08.2022 01:17 25,9 C 10,7 C 9,4 C 24,1 C 54 % 87 % 61 % 1030,5 hPa 0,0 l/m 0,0 km/h (0 Bft) O 90 8,6 C 10,7 C 0,0 km/h (0 Bft)
09.08.2022 01:16 25,8 C 10,8 C 9,3 C 24,0 C 54 % 87 % 61 % 1030,4 hPa 0,0 l/m 0,0 km/h (0 Bft) O 90 8,7 C 10,8 C 0,0 km/h (0 Bft)
09.08.2022 01:15 25,8 C 10,8 C 9,3 C 24,0 C 54 % 87 % 61 % 1030,4 hPa 0,0 l/m 0,0 km/h (0 Bft) O 90 8,7 C 10,8 C 0,0 km/h (0 Bft)
09.08.2022 01:14 25,9 C 10,8 C 9,4 C 24,1 C 54 % 87 % 61 % 1030,4 hPa 0,0 l/m 0,0 km/h (0 Bft) O 90 8,7 C 10,8 C 0,0 km/h (0 Bft)
09.08.2022 01:13 25,9 C 10,8 C 9,4 C 24,1 C 54 % 87 % 61 % 1030,4 hPa 0,0 l/m 0,0 km/h (0 Bft) O 90 8,7 C 10,8 C 0,0 km/h (0 Bft)
09.08.2022 01:12 25,8 C 10,8 C 9,1 C 24,1 C 54 % 87 % 61 % 1030,4 hPa 0,0 l/m 0,0 km/h (0 Bft) O-SO 112 8,7 C 10,8 C 0,0 km/h (0 Bft)
09.08.2022 01:11 25,8 C 10,8 C 9,1 C 24,1 C 54 % 87 % 61 % 1030,4 hPa 0,0 l/m 0,0 km/h (0 Bft) O-SO 112 8,7 C 10,8 C 0,0 km/h (0 Bft)
09.08.2022 01:10 25,9 C 10,8 C 9,0 C 24,1 C 53 % 87 % 61 % 1030,4 hPa 0,0 l/m 0,0 km/h (0 Bft) SO 135 8,7 C 10,8 C 0,0 km/h (0 Bft)
09.08.2022 01:09 25,9 C 10,8 C 9,0 C 24,1 C 53 % 87 % 61 % 1030,4 hPa 0,0 l/m 0,0 km/h (0 Bft) SO 135 8,7 C 10,8 C 0,0 km/h (0 Bft)
09.08.2022 01:08 25,9 C 10,8 C 9,3 C 24,1 C 54 % 86 % 61 % 1030,4 hPa 0,0 l/m 0,0 km/h (0 Bft) O-SO 112 8,6 C 10,8 C 0,0 km/h (0 Bft)
09.08.2022 01:07 25,9 C 10,8 C 9,3 C 24,1 C 54 % 86 % 61 % 1030,4 hPa 0,0 l/m 0,0 km/h (0 Bft) O-SO 112 8,6 C 10,8 C 0,0 km/h (0 Bft)
09.08.2022 01:06 25,9 C 11,0 C 9,9 C 24,2 C 53 % 86 % 61 % 1030,4 hPa 0,0 l/m 0,0 km/h (0 Bft) O 90 8,7 C 11,0 C 0,0 km/h (0 Bft)
09.08.2022 01:05 25,9 C 11,0 C 9,9 C 24,2 C 53 % 86 % 61 % 1030,4 hPa 0,0 l/m 0,0 km/h (0 Bft) O 90 8,7 C 11,0 C 0,0 km/h (0 Bft)
09.08.2022 01:04 25,9 C 11,0 C 9,9 C 24,2 C 53 % 86 % 61 % 1030,4 hPa 0,0 l/m 0,0 km/h (0 Bft) O 90 8,7 C 11,0 C 0,0 km/h (0 Bft)
09.08.2022 01:03 25,9 C 11,0 C 9,9 C 24,2 C 53 % 86 % 61 % 1030,4 hPa 0,0 l/m 0,0 km/h (0 Bft) O 90 8,7 C 11,0 C 0,0 km/h (0 Bft)
09.08.2022 01:02 25,9 C 11,0 C 9,9 C 24,2 C 53 % 86 % 61 % 1030,4 hPa 0,0 l/m 0,0 km/h (0 Bft) O 90 8,7 C 11,0 C 0,0 km/h (0 Bft)
09.08.2022 01:00 25,9 C 11,0 C 9,9 C 24,2 C 53 % 86 % 61 % 1030,4 hPa 0,0 l/m 0,0 km/h (0 Bft) O 90 8,7 C 11,0 C 0,0 km/h (0 Bft)
09.08.2022 00:59 25,9 C 11,0 C 9,9 C 24,2 C 53 % 86 % 61 % 1030,4 hPa 0,0 l/m 0,0 km/h (0 Bft) O 90 8,7 C 11,0 C 0,0 km/h (0 Bft)
09.08.2022 00:58 25,9 C 11,0 C 9,9 C 24,2 C 53 % 86 % 61 % 1030,4 hPa 0,0 l/m 0,0 km/h (0 Bft) O 90 8,7 C 11,0 C 0,0 km/h (0 Bft)
09.08.2022 00:57 25,9 C 11,0 C 9,9 C 24,2 C 53 % 86 % 61 % 1030,4 hPa 0,0 l/m 0,0 km/h (0 Bft) O 90 8,7 C 11,0 C 0,0 km/h (0 Bft)
09.08.2022 00:56 26,0 C 11,1 C 9,9 C 24,2 C 53 % 86 % 61 % 1030,2 hPa 0,0 l/m 0,0 km/h (0 Bft) O 90 8,8 C 11,1 C 0,0 km/h (0 Bft)
09.08.2022 00:55 26,0 C 11,1 C 9,9 C 24,2 C 53 % 86 % 61 % 1030,2 hPa 0,0 l/m 0,0 km/h (0 Bft) O 90 8,8 C 11,1 C 0,0 km/h (0 Bft)
09.08.2022 00:54 26,0 C 11,1 C 9,8 C 24,2 C 53 % 86 % 60 % 1030,2 hPa 0,0 l/m 0,0 km/h (0 Bft) O 90 8,8 C 11,1 C 0,0 km/h (0 Bft)
09.08.2022 00:53 26,0 C 11,1 C 9,8 C 24,2 C 53 % 86 % 60 % 1030,2 hPa 0,0 l/m 0,0 km/h (0 Bft) O 90 8,8 C 11,1 C 0,0 km/h (0 Bft)
09.08.2022 00:52 26,0 C 11,1 C 9,9 C 24,2 C 53 % 86 % 60 % 1030,2 hPa 0,0 l/m 0,0 km/h (0 Bft) O-NO 67 8,8 C 11,1 C 0,0 km/h (0 Bft)
09.08.2022 00:51 26,0 C 11,1 C 9,9 C 24,2 C 53 % 86 % 60 % 1030,2 hPa 0,0 l/m 0,0 km/h (0 Bft) O-NO 67 8,8 C 11,1 C 0,0 km/h (0 Bft)
09.08.2022 00:50 26,0 C 11,1 C 9,8 C 24,3 C 53 % 86 % 60 % 1030,2 hPa 0,0 l/m 0,0 km/h (0 Bft) O 90 8,8 C 11,1 C 0,0 km/h (0 Bft)
09.08.2022 00:49 26,0 C 11,1 C 9,8 C 24,3 C 53 % 86 % 60 % 1030,2 hPa 0,0 l/m 0,0 km/h (0 Bft) O 90 8,8 C 11,1 C 0,0 km/h (0 Bft)
09.08.2022 00:48 26,0 C 11,1 C 9,8 C 24,3 C 53 % 86 % 61 % 1030,2 hPa 0,0 l/m 0,0 km/h (0 Bft) O 90 8,8 C 11,1 C 0,0 km/h (0 Bft)
09.08.2022 00:47 26,0 C 11,1 C 9,8 C 24,3 C 53 % 86 % 61 % 1030,2 hPa 0,0 l/m 0,0 km/h (0 Bft) O 90 8,8 C 11,1 C 0,0 km/h (0 Bft)
09.08.2022 00:46 26,0 C 11,2 C 9,8 C 24,3 C 53 % 86 % 61 % 1030,2 hPa 0,0 l/m 0,0 km/h (0 Bft) O-NO 67 8,9 C 11,2 C 0,0 km/h (0 Bft)
09.08.2022 00:45 26,0 C 11,2 C 9,8 C 24,3 C 53 % 86 % 61 % 1030,2 hPa 0,0 l/m 0,0 km/h (0 Bft) O-NO 67 8,9 C 11,2 C 0,0 km/h (0 Bft)
09.08.2022 00:44 26,0 C 11,2 C 9,5 C 24,3 C 53 % 86 % 60 % 1030,2 hPa 0,0 l/m 0,0 km/h (0 Bft) NO 45 8,9 C 11,2 C 0,0 km/h (0 Bft)
09.08.2022 00:43 26,0 C 11,2 C 9,5 C 24,3 C 53 % 86 % 60 % 1030,2 hPa 0,0 l/m 0,0 km/h (0 Bft) NO 45 8,9 C 11,2 C 0,0 km/h (0 Bft)
09.08.2022 00:42 26,0 C 11,2 C 9,4 C 24,2 C 53 % 86 % 61 % 1030,2 hPa 0,0 l/m 0,0 km/h (0 Bft) NO 45 8,9 C 11,2 C 0,0 km/h (0 Bft)
09.08.2022 00:41 26,0 C 11,2 C 9,4 C 24,2 C 53 % 86 % 61 % 1030,2 hPa 0,0 l/m 0,0 km/h (0 Bft) NO 45 8,9 C 11,2 C 0,0 km/h (0 Bft)
09.08.2022 00:40 26,0 C 11,3 C 9,4 C 24,2 C 53 % 86 % 60 % 1030,2 hPa 0,0 l/m 0,0 km/h (0 Bft) O-NO 67 9,0 C 11,3 C 0,0 km/h (0 Bft)
09.08.2022 00:39 26,0 C 11,3 C 9,4 C 24,2 C 53 % 86 % 60 % 1030,2 hPa 0,0 l/m 0,0 km/h (0 Bft) O-NO 67 9,0 C 11,3 C 0,0 km/h (0 Bft)
09.08.2022 00:38 26,0 C 11,4 C 9,8 C 24,2 C 53 % 86 % 61 % 1030,2 hPa 0,0 l/m 0,0 km/h (0 Bft) N-NO 22 9,1 C 11,4 C 0,0 km/h (0 Bft)
09.08.2022 00:37 26,0 C 11,4 C 9,8 C 24,2 C 53 % 86 % 61 % 1030,2 hPa 0,0 l/m 0,0 km/h (0 Bft) N-NO 22 9,1 C 11,4 C 0,0 km/h (0 Bft)
09.08.2022 00:36 26,0 C 11,5 C 10,2 C 24,2 C 53 % 86 % 61 % 1030,2 hPa 0,0 l/m 0,0 km/h (0 Bft) NO 45 9,2 C 11,5 C 0,0 km/h (0 Bft)
09.08.2022 00:35 26,0 C 11,5 C 10,2 C 24,2 C 53 % 86 % 61 % 1030,2 hPa 0,0 l/m 0,0 km/h (0 Bft) NO 45 9,2 C 11,5 C 0,0 km/h (0 Bft)
09.08.2022 00:34 26,0 C 11,5 C 10,3 C 24,3 C 53 % 86 % 61 % 1030,2 hPa 0,0 l/m 0,0 km/h (0 Bft) NO 45 9,2 C 11,5 C 0,0 km/h (0 Bft)
09.08.2022 00:33 26,0 C 11,5 C 10,3 C 24,3 C 53 % 86 % 61 % 1030,2 hPa 0,0 l/m 0,0 km/h (0 Bft) NO 45 9,2 C 11,5 C 0,0 km/h (0 Bft)
09.08.2022 00:32 26,0 C 11,5 C 10,4 C 24,3 C 53 % 86 % 61 % 1030,2 hPa 0,0 l/m 0,0 km/h (0 Bft) NO 45 9,2 C 11,5 C 0,0 km/h (0 Bft)
09.08.2022 00:31 26,0 C 11,5 C 10,4 C 24,3 C 53 % 86 % 61 % 1030,2 hPa 0,0 l/m 0,0 km/h (0 Bft) NO 45 9,2 C 11,5 C 0,0 km/h (0 Bft)
09.08.2022 00:30 26,0 C 11,5 C 10,5 C 24,3 C 53 % 86 % 60 % 1030,2 hPa 0,0 l/m 0,0 km/h (0 Bft) NO 45 9,2 C 11,5 C 0,0 km/h (0 Bft)
09.08.2022 00:29 26,0 C 11,5 C 10,5 C 24,3 C 53 % 86 % 60 % 1030,2 hPa 0,0 l/m 0,0 km/h (0 Bft) NO 45 9,2 C 11,5 C 0,0 km/h (0 Bft)
09.08.2022 00:28 26,0 C 11,5 C 10,3 C 24,3 C 53 % 86 % 60 % 1030,2 hPa 0,0 l/m 0,0 km/h (0 Bft) NO 45 9,2 C 11,5 C 0,0 km/h (0 Bft)
09.08.2022 00:27 26,0 C 11,5 C 10,3 C 24,3 C 53 % 86 % 60 % 1030,2 hPa 0,0 l/m 0,0 km/h (0 Bft) NO 45 9,2 C 11,5 C 0,0 km/h (0 Bft)
09.08.2022 00:26 26,0 C 11,4 C 10,2 C 24,3 C 53 % 86 % 60 % 1030,2 hPa 0,0 l/m 0,0 km/h (0 Bft) NO 45 9,1 C 11,4 C 0,0 km/h (0 Bft)
09.08.2022 00:25 26,0 C 11,4 C 10,2 C 24,3 C 53 % 86 % 60 % 1030,2 hPa 0,0 l/m 0,0 km/h (0 Bft) NO 45 9,1 C 11,4 C 0,0 km/h (0 Bft)
09.08.2022 00:24 26,1 C 11,4 C 10,2 C 24,3 C 53 % 86 % 60 % 1030,2 hPa 0,0 l/m 0,0 km/h (0 Bft) O-NO 67 9,1 C 11,4 C 0,0 km/h (0 Bft)
09.08.2022 00:23 26,1 C 11,4 C 10,2 C 24,3 C 53 % 86 % 60 % 1030,2 hPa 0,0 l/m 0,0 km/h (0 Bft) O-NO 67 9,1 C 11,4 C 0,0 km/h (0 Bft)
09.08.2022 00:22 26,1 C 11,4 C 10,1 C 24,3 C 53 % 86 % 60 % 1030,2 hPa 0,0 l/m 0,0 km/h (0 Bft) NO 45 9,1 C 11,4 C 0,0 km/h (0 Bft)
09.08.2022 00:21 26,1 C 11,4 C 10,1 C 24,3 C 53 % 86 % 60 % 1030,2 hPa 0,0 l/m 0,0 km/h (0 Bft) NO 45 9,1 C 11,4 C 0,0 km/h (0 Bft)
09.08.2022 00:20 26,1 C 11,5 C 9,9 C 24,3 C 53 % 86 % 60 % 1030,2 hPa 0,0 l/m 0,0 km/h (0 Bft) NO 45 9,2 C 11,5 C 0,0 km/h (0 Bft)
09.08.2022 00:19 26,1 C 11,5 C 9,9 C 24,3 C 53 % 86 % 60 % 1030,2 hPa 0,0 l/m 0,0 km/h (0 Bft) NO 45 9,2 C 11,5 C 0,0 km/h (0 Bft)
09.08.2022 00:18 26,1 C 11,5 C 10,2 C 24,4 C 52 % 86 % 60 % 1030,2 hPa 0,0 l/m 0,0 km/h (0 Bft) O-SO 112 9,2 C 11,5 C 0,0 km/h (0 Bft)
09.08.2022 00:17 26,1 C 11,5 C 10,2 C 24,4 C 52 % 86 % 60 % 1030,2 hPa 0,0 l/m 0,0 km/h (0 Bft) O-SO 112 9,2 C 11,5 C 0,0 km/h (0 Bft)
09.08.2022 00:16 26,1 C 11,6 C 10,3 C 24,4 C 52 % 86 % 60 % 1030,3 hPa 0,0 l/m 0,0 km/h (0 Bft) SO 135 9,3 C 11,6 C 0,0 km/h (0 Bft)
09.08.2022 00:15 26,1 C 11,6 C 10,3 C 24,4 C 52 % 86 % 60 % 1030,3 hPa 0,0 l/m 0,0 km/h (0 Bft) SO 135 9,3 C 11,6 C 0,0 km/h (0 Bft)
09.08.2022 00:14 26,1 C 11,6 C 10,4 C 24,4 C 52 % 86 % 60 % 1030,3 hPa 0,0 l/m 0,0 km/h (0 Bft) SO 135 9,3 C 11,6 C 0,0 km/h (0 Bft)
09.08.2022 00:13 26,1 C 11,6 C 10,4 C 24,4 C 52 % 86 % 60 % 1030,3 hPa 0,0 l/m 0,0 km/h (0 Bft) SO 135 9,3 C 11,6 C 0,0 km/h (0 Bft)
09.08.2022 00:12 26,1 C 11,6 C 10,5 C 24,4 C 52 % 86 % 60 % 1030,3 hPa 0,0 l/m 0,0 km/h (0 Bft) SO 135 9,3 C 11,6 C 0,0 km/h (0 Bft)
09.08.2022 00:11 26,1 C 11,6 C 10,5 C 24,4 C 52 % 86 % 60 % 1030,3 hPa 0,0 l/m 0,0 km/h (0 Bft) SO 135 9,3 C 11,6 C 0,0 km/h (0 Bft)
09.08.2022 00:10 26,1 C 11,7 C 10,5 C 24,4 C 52 % 86 % 60 % 1030,3 hPa 0,0 l/m 0,0 km/h (0 Bft) SO 135 9,4 C 11,7 C 0,0 km/h (0 Bft)
09.08.2022 00:09 26,1 C 11,7 C 10,5 C 24,4 C 52 % 86 % 60 % 1030,3 hPa 0,0 l/m 0,0 km/h (0 Bft) SO 135 9,4 C 11,7 C 0,0 km/h (0 Bft)
09.08.2022 00:08 26,1 C 11,7 C 10,4 C 24,4 C 52 % 86 % 60 % 1030,3 hPa 0,0 l/m 0,0 km/h (0 Bft) SO 135 9,4 C 11,7 C 0,0 km/h (0 Bft)
09.08.2022 00:07 26,1 C 11,7 C 10,4 C 24,4 C 52 % 86 % 60 % 1030,3 hPa 0,0 l/m 0,0 km/h (0 Bft) SO 135 9,4 C 11,7 C 0,0 km/h (0 Bft)
09.08.2022 00:06 26,1 C 11,8 C 10,2 C 24,4 C 52 % 86 % 60 % 1030,3 hPa 0,0 l/m 0,0 km/h (0 Bft) O-NO 67 9,5 C 11,8 C 0,0 km/h (0 Bft)
09.08.2022 00:05 26,1 C 11,8 C 10,2 C 24,4 C 52 % 86 % 60 % 1030,3 hPa 0,0 l/m 0,0 km/h (0 Bft) O-NO 67 9,5 C 11,8 C 0,0 km/h (0 Bft)
09.08.2022 00:04 26,1 C 11,8 C 10,0 C 24,5 C 52 % 86 % 60 % 1030,3 hPa 0,0 l/m 0,0 km/h (0 Bft) NO 45 9,5 C 11,8 C 0,0 km/h (0 Bft)
09.08.2022 00:03 26,1 C 11,8 C 10,0 C 24,5 C 52 % 86 % 60 % 1030,3 hPa 0,0 l/m 0,0 km/h (0 Bft) NO 45 9,5 C 11,8 C 0,0 km/h (0 Bft)
09.08.2022 00:02 26,1 C 11,8 C 9,7 C 24,5 C 52 % 86 % 60 % 1030,3 hPa 0,0 l/m 0,0 km/h (0 Bft) NO 45 9,5 C 11,8 C 0,0 km/h (0 Bft)
09.08.2022 00:00 26,1 C 11,9 C 10,0 C 24,5 C 52 % 86 % 60 % 1030,3 hPa 0,0 l/m 0,0 km/h (0 Bft) NO 45 9,6 C 11,9 C 0,0 km/h (0 Bft)
_ Min-Zeit 08:59 06:01 05:31 06:37 20:09 14:19 21:07 15:57 - 00:00 - - 06:01 06:01 00:00
Minimum _ 23,2 C 8,5 C 7,0 C 23,1 C 40 % 37 % 52 % 1029,1 hPa - 0,0 km/h (0 Bft) - - 6,6 C 8,5 C 0,0 km/h (0 Bft)
_ Max-Zeit 18:39 14:27 12:57 18:51 01:07 04:07 08:13 21:17 15:13 09:29 - - 11:09 14:27 17:41
Maximum _ 31,7 C 23,8 C 24,2 C 27,2 C 54 % 88 % 63 % 1031,2 hPa 0,1 l/m 4,8 km/h
O (1 Bft)
- - 13,0 C 23,8 C 16,9 km/h
SW (3 Bft)
Durchschnitt _ 26,3 C 16,3 C 14,4 C 24,5 C 50 % 69 % 58 % 1030,0 hPa #0,1 l/m 1,6 km/h (1 Bft) W-NW - 10,0 C 16,3 C 2,9 km/h (1 Bft)